[[{"header":{"parameterUnit":"m.s-1","parameterCategory":1,"la1":31.0,"la2":29.5877,"lo1":-88.7671,"lo2":-86.6584,"dy":0.0162,"dx":0.0185,"nx":115,"ny":88,"refTime":"2026-04-14T12:00:00:Z","depth":0,"parameterNumber":2,"parameterNumberName":"U-component_of_WINDS"},"data":[0.0,0.0,0.0,0.0,0.0,0.0,0.0,0.0,0.0,0.0,0.0,0.0,0.0,0.0,0.0,0.0,0.0,0.0,0.0,0.0,0.0,0.0,0.0,0.0,0.0,0.0,0.0,0.0,0.0,0.0,0.0,0.0,0.0,0.0,0.0,0.0,0.0,0.0,0.0,0.0,0.0,0.0,0.0,0.0,0.0,0.0,0.0,0.0,0.0,0.0,0.0,0.0,0.0,0.0,0.0,0.0,0.0,0.0,0.0,0.0,0.0,0.0,0.0,0.0,0.0,0.0,0.0,0.0,0.0,0.0,0.0,0.0,0.0,0.0,0.0,0.0,0.0,0.0,0.0,0.0,0.0,0.0,0.0,0.0,0.0,0.0,0.0,0.0,0.0,0.0,0.0,0.0,0.0,0.0,0.0,0.0,0.0,0.0,0.0,0.0,0.0,0.0,0.0,0.0,0.0,0.0,0.0,0.0,0.0,0.0,0.0,0.0,0.0,0.0,0.0,0.0,0.0,0.0,0.0,0.0,0.0,0.0,0.0,0.0,0.0,0.0,0.0,0.0,0.0,0.0,0.0,0.0,0.0,0.0,0.0,0.0,0.0,0.0,0.0,0.0,0.0,0.0,0.0,0.0,0.0,0.0,0.0,0.0,0.0,0.0,0.0,0.0,0.0,0.0,0.0,0.0,0.0,0.0,0.0,0.0,0.0,0.0,0.0,0.0,0.0,0.0,0.0,0.0,0.0,0.0,0.0,0.0,0.0,0.0,0.0,0.0,0.0,0.0,0.0,0.0,0.0,0.0,0.0,0.0,0.0,0.0,0.0,0.0,0.0,0.0,0.0,0.0,0.0,0.0,0.0,0.0,0.0,0.0,0.0,0.0,0.0,0.0,0.0,0.0,0.0,0.0,0.0,0.0,0.0,0.0,0.0,0.0,0.0,0.0,0.0,0.0,0.0,0.0,0.0,0.0,0.0,0.0,0.0,0.0,0.0,0.0,0.0,0.0,0.0,0.0,0.0,0.0,0.0,0.0,0.0,0.0,0.0,0.0,0.0,0.0,0.0,0.0,0.0,0.0,0.0,0.0,0.0,0.0,0.0,0.0,0.0,0.0,0.0,0.0,0.0,0.0,0.0,0.0,0.0,0.0,0.0,0.0,0.0,0.0,0.0,0.0,0.0,0.0,0.0,0.0,0.0,0.0,0.0,0.0,0.0,0.0,0.0,0.0,0.0,0.0,0.0,0.0,0.0,0.0,0.0,0.0,0.0,0.0,0.0,0.0,0.0,0.0,0.0,0.0,0.0,0.0,0.0,0.0,0.0,0.0,0.0,0.0,0.0,0.0,0.0,0.0,0.0,0.0,0.0,0.0,0.0,0.0,0.0,0.0,0.0,0.0,0.0,0.0,0.0,0.0,0.0,0.0,0.0,0.0,0.0,0.0,0.0,0.0,0.0,0.0,0.0,0.0,0.0,0.0,0.0,0.0,0.0,0.0,0.0,0.0,0.0,0.0,0.0,0.0,0.0,0.0,0.0,0.0,0.0,0.0,0.0,0.0,0.0,0.0,0.0,0.0,0.0,0.0,0.0,0.0,0.0,0.0,0.0,0.0,0.0,0.0,0.0,0.0,0.0,0.0,0.0,0.0,0.0,0.0,0.0,0.0,0.0,0.0,0.0,0.0,0.0,0.0,0.0,0.0,0.0,0.0,0.0,0.0,0.0,0.0,0.0,0.0,0.0,0.0,0.0,0.0,0.0,0.0,0.0,0.0,0.0,0.0,0.0,0.0,0.0,0.0,0.0,0.0,0.0,0.0,0.0,0.0,0.0,0.0,0.0,0.0,0.0,0.0,0.0,0.0,0.0,0.0,0.0,0.0,0.0,0.0,0.0,0.0,0.0,0.0,0.0,0.0,0.0,0.0,0.0,0.0,0.0,0.0,0.0,0.0,0.0,0.0,0.0,0.0,0.0,0.0,0.0,0.0,0.0,0.0,0.0,0.0,0.0,0.0,0.0,0.0,0.0,0.0,0.0,0.0,0.0,0.0,0.0,0.0,0.0,0.0,0.0,0.0,0.0,0.0,0.0,0.0,0.0,0.0,0.0,0.0,0.0,0.0,0.0,0.0,0.0,0.0,0.0,0.0,0.0,0.0,0.0,0.0,0.0,0.0,0.0,0.0,0.0,0.0,0.0,0.0,0.0,0.0,0.0,0.0,0.0,0.0,0.0,0.0,0.0,0.0,0.0,0.0,0.0,0.0,0.0,0.0,0.0,0.0,0.0,0.0,0.0,0.0,0.0,0.0,0.0,0.0,0.0,0.0,0.0,0.0,0.0,0.0,0.0,0.0,0.0,0.0,0.0,0.0,0.0,0.0,0.0,0.0,0.0,0.0,0.0,0.0,0.0,0.0,0.0,0.0,0.0,0.0,0.0,0.0,0.0,0.0,0.0,0.0,0.0,0.0,0.0,0.0,0.0,0.0,0.0,0.0,0.0,0.0,0.0,0.0,0.0,0.0,0.0,0.0,0.0,0.0,0.0,0.0,0.0,0.0,0.0,0.0,0.0,0.0,0.0,0.0,0.0,0.0,0.0,0.0,0.0,0.0,0.0,0.0,0.0,0.0,0.0,0.0,0.0,0.0,0.0,0.0,0.0,0.0,0.0,0.0,0.0,0.0,0.0,0.0,0.0,0.0,0.0,0.0,0.0,0.0,0.0,0.0,0.0,0.0,0.0,0.0,0.0,0.0,0.0,0.0,0.0,0.0,0.0,0.0,0.0,0.0,0.0,0.0,0.0,0.0,0.0,0.0,0.0,0.0,0.0,0.0,0.0,0.0,0.0,0.0,0.0,0.0,0.0,0.0,0.0,0.0,0.0,0.0,0.0,0.0,0.0,0.0,0.0,0.0,0.0,0.0,0.0,0.0,0.0,0.0,0.0,0.0,0.0,0.0,0.0,0.0,0.0,0.0,0.0,0.0,0.0,0.0,0.0,0.0,0.0,0.0,0.0,0.0,0.0,0.0,0.0,0.0,0.0,0.0,0.0,0.0,0.0,0.0,0.0,0.0,0.0,0.0,0.0,0.0,0.0,0.0,0.0,0.0,0.0,0.0,0.0,0.0,0.0,0.0,0.0,0.0,0.0,0.0,0.0,0.0,0.0,0.0,0.0,0.0,0.0,0.0,0.0,0.0,0.0,0.0,0.0,0.0,0.0,0.0,0.0,0.0,0.0,0.0,0.0,0.0,0.0,0.0,0.0,0.0,0.0,0.0,0.0,0.0,0.0,0.0,0.0,0.0,0.0,0.0,0.0,0.0,0.0,0.0,0.0,0.0,0.0,0.0,0.0,0.0,0.0,0.0,0.0,0.0,0.0,0.0,0.0,0.0,0.0,0.0,0.0,0.0,0.0,0.0,0.0,0.0,0.0,0.0,0.0,0.0,0.0,0.0,0.0,0.0,0.0,0.0,0.0,0.0,0.0,0.0,0.0,0.0,0.0,0.0,0.0,0.0,0.0,0.0,0.0,0.0,0.0,0.0,0.0,0.0,0.0,0.0,0.0,0.0,0.0,0.0,0.0,0.0,0.0,0.0,0.0,0.0,0.0,0.0,0.0,0.0,0.0,0.0,0.0,0.0,0.0,0.0,0.0,0.0,0.0,0.0,0.0,0.0,0.0,0.0,0.0,0.0,0.0,0.0,0.0,0.0,0.0,0.0,0.0,0.0,0.0,0.0,0.0,0.0,0.0,0.0,0.0,0.0,0.0,0.0,0.0,0.0,0.0,0.0,0.0,0.0,0.0,0.0,0.0,0.0,0.0,0.0,0.0,0.0,0.0,0.0,0.0,0.0,0.0,0.0,0.0,0.0,0.0,0.0,0.0,0.0,0.0,0.0,0.0,0.0,0.0,0.0,0.0,0.0,0.0,0.0,0.0,0.0,0.0,0.0,0.0,0.0,0.0,0.0,0.0,0.0,0.0,0.0,0.0,0.0,0.0,0.0,0.0,0.0,0.0,0.0,0.0,0.0,0.0,0.0,0.0,0.0,0.0,0.0,0.0,0.0,0.0,0.0,0.0,0.0,0.0,0.0,0.0,0.0,0.0,0.0,0.0,0.0,0.0,0.0,0.0,0.0,0.0,0.0,0.0,0.0,0.0,0.0,0.0,0.0,0.0,0.0,0.0,0.0,0.0,0.0,0.0,0.0,0.0,0.0,0.0,0.0,0.0,0.0,0.0,0.0,0.0,0.0,0.0,0.0,0.0,0.0,0.0,0.0,0.0,0.0,5.0,0.0,0.0,0.0,0.0,0.0,0.0,0.0,0.0,0.0,0.0,0.0,0.0,0.0,0.0,0.0,0.0,0.0,0.0,0.0,0.0,0.0,0.0,0.0,0.0,0.0,0.0,0.0,0.0,0.0,0.0,0.0,0.0,0.0,0.0,0.0,0.0,0.0,0.0,0.0,0.0,0.0,0.0,0.0,0.0,0.0,0.0,0.0,0.0,0.0,0.0,0.0,0.0,0.0,0.0,0.0,0.0,0.0,0.0,0.0,0.0,0.0,0.0,0.0,0.0,0.0,0.0,0.0,0.0,0.0,0.0,0.0,0.0,0.0,0.0,0.0,0.0,0.0,0.0,0.0,0.0,0.0,0.0,0.0,0.0,0.0,0.0,0.0,0.0,0.0,0.0,0.0,0.0,0.0,0.0,0.0,0.0,0.0,0.0,0.0,0.0,0.0,0.0,0.0,0.0,0.0,0.0,0.0,0.0,0.0,0.0,4.9726,4.8828,4.9726,5.0195,5.0195,0.0,0.0,0.0,0.0,0.0,0.0,0.0,0.0,0.0,0.0,0.0,0.0,0.0,0.0,0.0,0.0,0.0,0.0,0.0,0.0,0.0,0.0,0.0,0.0,0.0,0.0,0.0,0.0,0.0,0.0,0.0,0.0,0.0,0.0,0.0,0.0,0.0,0.0,0.0,0.0,0.0,0.0,0.0,0.0,0.0,0.0,0.0,0.0,0.0,0.0,0.0,0.0,0.0,0.0,0.0,0.0,0.0,0.0,0.0,0.0,0.0,0.0,0.0,0.0,0.0,0.0,0.0,0.0,0.0,0.0,0.0,0.0,0.0,0.0,0.0,0.0,0.0,0.0,0.0,0.0,0.0,0.0,0.0,0.0,0.0,0.0,0.0,0.0,0.0,0.0,0.0,0.0,0.0,0.0,0.0,0.0,0.0,0.0,0.0,0.0,0.0,0.0,0.0,0.0,0.0,0.0,0.0,0.0,0.0,0.0,0.0,0.0,5.0273,5.0508,4.9922,0.0,0.0,0.0,0.0,0.0,0.0,0.0,0.0,0.0,0.0,0.0,0.0,0.0,0.0,0.0,0.0,0.0,0.0,0.0,0.0,0.0,0.0,0.0,0.0,0.0,0.0,0.0,0.0,0.0,0.0,0.0,0.0,0.0,0.0,0.0,0.0,0.0,0.0,0.0,0.0,0.0,0.0,0.0,0.0,0.0,0.0,0.0,0.0,0.0,0.0,0.0,0.0,0.0,0.0,0.0,0.0,0.0,0.0,0.0,0.0,0.0,0.0,0.0,0.0,0.0,0.0,0.0,0.0,0.0,0.0,0.0,0.0,0.0,0.0,0.0,0.0,0.0,0.0,0.0,0.0,0.0,0.0,0.0,0.0,0.0,0.0,0.0,0.0,0.0,0.0,0.0,0.0,0.0,0.0,0.0,0.0,0.0,0.0,0.0,0.0,0.0,0.0,0.0,0.0,0.0,0.0,0.0,0.0,0.0,0.0,5.3935,5.4562,5.3195,0.0,4.918,0.0,0.0,0.0,0.0,0.0,0.0,0.0,0.0,0.0,0.0,0.0,0.0,0.0,0.0,0.0,0.0,0.0,0.0,0.0,0.0,0.0,0.0,0.0,0.0,0.0,0.0,0.0,0.0,0.0,0.0,0.0,0.0,0.0,0.0,0.0,0.0,0.0,0.0,0.0,0.0,0.0,0.0,0.0,0.0,0.0,0.0,0.0,0.0,0.0,0.0,0.0,0.0,0.0,0.0,0.0,0.0,0.0,0.0,0.0,0.0,0.0,0.0,0.0,0.0,0.0,0.0,0.0,0.0,0.0,0.0,0.0,0.0,0.0,0.0,0.0,0.0,0.0,0.0,0.0,0.0,0.0,0.0,0.0,0.0,0.0,0.0,0.0,0.0,0.0,0.0,0.0,0.0,0.0,0.0,0.0,0.0,0.0,0.0,0.0,0.0,0.0,0.0,0.0,0.0,0.0,0.0,0.0,0.0,0.0,0.0,0.0,5.6067,5.4392,5.225,0.0,0.0,0.0,0.0,0.0,0.0,0.0,0.0,0.0,0.0,0.0,0.0,0.0,0.0,0.0,0.0,0.0,0.0,0.0,0.0,0.0,0.0,0.0,0.0,0.0,0.0,0.0,0.0,0.0,0.0,0.0,0.0,0.0,0.0,0.0,0.0,0.0,0.0,0.0,0.0,0.0,0.0,0.0,0.0,0.0,0.0,0.0,0.0,0.0,0.0,0.0,0.0,0.0,0.0,0.0,0.0,0.0,0.0,0.0,0.0,0.0,0.0,0.0,0.0,0.0,0.0,0.0,0.0,0.0,0.0,0.0,0.0,0.0,0.0,0.0,0.0,0.0,0.0,0.0,0.0,0.0,0.0,0.0,0.0,0.0,0.0,0.0,0.0,0.0,0.0,0.0,0.0,0.0,0.0,0.0,0.0,0.0,0.0,0.0,0.0,0.0,0.0,0.0,0.0,0.0,0.0,0.0,0.0,0.0,0.0,5.5977,0.0,5.6563,5.4927,5.2667,4.9817,0.0,0.0,0.0,0.0,0.0,0.0,0.0,0.0,0.0,0.0,0.0,0.0,0.0,0.0,0.0,0.0,0.0,0.0,0.0,0.0,0.0,0.0,0.0,0.0,0.0,0.0,0.0,0.0,0.0,0.0,0.0,0.0,0.0,0.0,0.0,0.0,0.0,0.0,0.0,0.0,0.0,0.0,0.0,0.0,0.0,0.0,0.0,0.0,0.0,0.0,0.0,0.0,0.0,0.0,0.0,0.0,0.0,0.0,0.0,0.0,0.0,0.0,0.0,0.0,0.0,0.0,0.0,0.0,0.0,0.0,0.0,0.0,0.0,0.0,0.0,0.0,0.0,0.0,0.0,0.0,0.0,0.0,0.0,0.0,0.0,0.0,0.0,0.0,0.0,0.0,0.0,0.0,0.0,0.0,0.0,0.0,0.0,0.0,0.0,0.0,0.0,0.0,0.0,0.0,0.0,0.0,0.0,0.0,0.0,5.7621,5.8207,5.6645,5.4888,5.239,0.0,0.0,0.0,0.0,0.0,0.0,0.0,0.0,0.0,0.0,0.0,0.0,0.0,0.0,0.0,0.0,0.0,0.0,0.0,0.0,0.0,0.0,0.0,0.0,0.0,0.0,0.0,0.0,0.0,0.0,0.0,0.0,0.0,0.0,0.0,0.0,0.0,0.0,0.0,0.0,0.0,0.0,0.0,0.0,0.0,0.0,0.0,0.0,0.0,0.0,0.0,0.0,0.0,0.0,0.0,0.0,0.0,0.0,0.0,0.0,0.0,0.0,0.0,0.0,0.0,0.0,0.0,0.0,0.0,0.0,0.0,0.0,0.0,0.0,0.0,0.0,0.0,0.0,0.0,0.0,0.0,0.0,0.0,0.0,0.0,0.0,0.0,0.0,0.0,0.0,0.0,0.0,0.0,0.0,0.0,0.0,0.0,0.0,0.0,0.0,0.0,0.0,0.0,0.0,0.0,0.0,0.0,0.0,0.0,5.4537,5.6992,5.7773,5.6602,5.4377,5.2034,0.0,0.0,0.0,0.0,0.0,0.0,0.0,0.0,0.0,0.0,0.0,0.0,0.0,0.0,0.0,0.0,0.0,0.0,0.0,0.0,0.0,0.0,0.0,0.0,0.0,0.0,0.0,0.0,0.0,0.0,0.0,0.0,0.0,0.0,0.0,0.0,0.0,0.0,0.0,0.0,0.0,0.0,0.0,0.0,0.0,0.0,0.0,0.0,0.0,0.0,0.0,0.0,0.0,0.0,0.0,0.0,0.0,0.0,0.0,0.0,0.0,0.0,0.0,0.0,0.0,0.0,0.0,0.0,0.0,0.0,0.0,0.0,0.0,0.0,0.0,0.0,0.0,0.0,0.0,0.0,0.0,0.0,0.0,0.0,0.0,0.0,0.0,0.0,0.0,0.0,0.0,0.0,0.0,0.0,0.0,0.0,0.0,0.0,0.0,0.0,0.0,0.0,0.0,0.0,0.0,0.0,0.0,0.0,0.0,5.5669,0.0,5.8475,0.0,5.4767,5.2464,0.0,0.0,0.0,0.0,0.0,0.0,0.0,0.0,0.0,0.0,0.0,0.0,0.0,0.0,0.0,0.0,0.0,0.0,0.0,0.0,0.0,0.0,0.0,0.0,0.0,0.0,0.0,0.0,0.0,0.0,0.0,0.0,0.0,0.0,0.0,0.0,0.0,0.0,0.0,0.0,0.0,0.0,0.0,0.0,0.0,0.0,0.0,0.0,0.0,0.0,0.0,0.0,0.0,0.0,0.0,0.0,0.0,0.0,0.0,0.0,0.0,0.0,0.0,0.0,0.0,0.0,0.0,0.0,0.0,0.0,0.0,0.0,0.0,0.0,0.0,0.0,0.0,0.0,0.0,0.0,0.0,0.0,0.0,0.0,0.0,0.0,0.0,0.0,0.0,0.0,0.0,0.0,0.0,0.0,0.0,0.0,0.0,0.0,0.0,0.0,0.0,0.0,0.0,0.0,0.0,0.0,0.0,0.0,5.5708,5.8909,6.0744,6.0432,5.7894,5.6216,5.3678,0.0,0.0,0.0,0.0,0.0,0.0,0.0,0.0,0.0,0.0,0.0,0.0,0.0,0.0,0.0,0.0,0.0,0.0,0.0,0.0,0.0,0.0,0.0,0.0,0.0,0.0,0.0,0.0,0.0,0.0,0.0,0.0,0.0,0.0,0.0,0.0,0.0,0.0,0.0,0.0,0.0,0.0,0.0,0.0,0.0,0.0,0.0,0.0,0.0,0.0,0.0,0.0,0.0,0.0,0.0,0.0,0.0,0.0,0.0,0.0,0.0,0.0,0.0,0.0,0.0,0.0,0.0,0.0,0.0,0.0,0.0,0.0,0.0,0.0,0.0,0.0,0.0,0.0,0.0,0.0,0.0,0.0,0.0,0.0,0.0,0.0,0.0,0.0,0.0,0.0,0.0,0.0,0.0,0.0,0.0,0.0,0.0,0.0,0.0,0.0,0.0,0.0,0.0,0.0,0.0,0.0,0.0,0.0,0.0,5.8241,6.1091,6.1637,5.9646,5.7972,5.5474,0.0,0.0,0.0,0.0,0.0,0.0,0.0,0.0,0.0,0.0,0.0,0.0,0.0,0.0,0.0,0.0,0.0,0.0,0.0,0.0,0.0,0.0,0.0,0.0,0.0,0.0,0.0,0.0,0.0,0.0,0.0,0.0,0.0,0.0,0.0,0.0,0.0,0.0,0.0,0.0,0.0,0.0,0.0,0.0,0.0,0.0,0.0,0.0,0.0,0.0,0.0,0.0,0.0,0.0,0.0,0.0,0.0,0.0,0.0,0.0,0.0,0.0,0.0,0.0,0.0,0.0,0.0,0.0,0.0,0.0,0.0,0.0,0.0,0.0,0.0,0.0,0.0,0.0,0.0,0.0,0.0,0.0,0.0,0.0,0.0,0.0,0.0,0.0,0.0,0.0,0.0,0.0,0.0,0.0,0.0,0.0,0.0,0.0,0.0,0.0,0.0,0.0,0.0,0.0,0.0,0.0,0.0,0.0,0.0,6.3628,6.5697,6.5697,6.3316,6.133,5.8363,5.4264,0.0,0.0,0.0,0.0,0.0,0.0,0.0,0.0,0.0,0.0,0.0,0.0,0.0,0.0,0.0,0.0,0.0,0.0,0.0,0.0,0.0,0.0,0.0,0.0,0.0,0.0,0.0,0.0,0.0,0.0,0.0,0.0,0.0,0.0,0.0,0.0,0.0,0.0,0.0,0.0,0.0,0.0,0.0,0.0,0.0,0.0,0.0,0.0,0.0,0.0,0.0,0.0,0.0,0.0,0.0,0.0,0.0,0.0,0.0,0.0,0.0,0.0,0.0,0.0,0.0,0.0,0.0,0.0,0.0,0.0,0.0,0.0,0.0,0.0,0.0,0.0,0.0,0.0,0.0,0.0,0.0,0.0,0.0,0.0,0.0,0.0,0.0,0.0,0.0,0.0,0.0,0.0,0.0,0.0,0.0,0.0,0.0,0.0,0.0,0.0,0.0,0.0,0.0,0.0,0.0,0.0,0.0,0.0,7.351,7.4056,7.2573,6.8864,6.6288,6.2384,0.0,0.0,0.0,0.0,0.0,0.0,0.0,0.0,0.0,0.0,0.0,0.0,0.0,0.0,0.0,0.0,0.0,0.0,0.0,0.0,0.0,0.0,0.0,0.0,0.0,0.0,0.0,0.0,0.0,0.0,0.0,0.0,0.0,0.0,0.0,0.0,0.0,0.0,0.0,0.0,0.0,0.0,0.0,0.0,0.0,0.0,0.0,0.0,0.0,0.0,0.0,0.0,0.0,0.0,0.0,0.0,0.0,0.0,0.0,0.0,0.0,0.0,0.0,0.0,0.0,0.0,0.0,0.0,0.0,0.0,0.0,0.0,0.0,0.0,0.0,0.0,0.0,0.0,0.0,0.0,0.0,0.0,0.0,0.0,0.0,0.0,0.0,0.0,0.0,0.0,0.0,0.0,0.0,0.0,0.0,0.0,0.0,0.0,0.0,0.0,0.0,0.0,0.0,0.0,0.0,0.0,0.0,0.0,0.0,7.6984,8.3308,8.3426,7.6906,7.351,6.8513,0.0,0.0,0.0,0.0,0.0,0.0,0.0,0.0,0.0,0.0,0.0,0.0,0.0,0.0,0.0,0.0,0.0,0.0,0.0,0.0,0.0,0.0,0.0,0.0,0.0,0.0,0.0,0.0,0.0,0.0,0.0,0.0,0.0,0.0,0.0,0.0,0.0,0.0,0.0,0.0,0.0,0.0,0.0,0.0,0.0,0.0,0.0,0.0,0.0,0.0,0.0,0.0,0.0,0.0,0.0,0.0,0.0,0.0,0.0,0.0,0.0,0.0,0.0,0.0,0.0,0.0,0.0,0.0,0.0,0.0,0.0,0.0,0.0,0.0,0.0,0.0,0.0,0.0,0.0,0.0,0.0,0.0,0.0,0.0,0.0,0.0,0.0,0.0,0.0,0.0,0.0,0.0,0.0,0.0,0.0,0.0,0.0,0.0,0.0,0.0,0.0,0.0,0.0,0.0,0.0,0.0,0.0,0.0,7.4642,8.1005,8.9516,9.1311,8.5768,7.9834,7.3041,0.0,0.0,0.0,0.0,0.0,0.0,0.0,0.0,0.0,0.0,0.0,0.0,0.0,0.0,0.0,0.0,0.0,0.0,0.0,0.0,0.0,0.0,0.0,0.0,0.0,0.0,0.0,0.0,0.0,0.0,0.0,0.0,0.0,0.0,0.0,0.0,0.0,0.0,0.0,0.0,0.0,0.0,0.0,0.0,0.0,0.0,0.0,0.0,0.0,0.0,0.0,0.0,0.0,0.0,0.0,0.0,0.0,0.0,0.0,0.0,0.0,0.0,0.0,0.0,0.0,0.0,0.0,0.0,0.0,0.0,0.0,0.0,0.0,0.0,0.0,0.0,0.0,0.0,0.0,0.0,0.0,0.0,0.0,0.0,0.0,0.0,0.0,0.0,0.0,0.0,0.0,0.0,0.0,0.0,0.0,0.0,0.0,0.0,0.0,0.0,0.0,0.0,0.0,0.0,0.0,0.0,0.0,0.0,7.835,8.5104,9.3654,9.6738,9.381,8.5221,7.6828,0.0,0.0,0.0,0.0,0.0,0.0,0.0,0.0,0.0,0.0,0.0,0.0,0.0,0.0,0.0,0.0,0.0,0.0,0.0,0.0,0.0,0.0,0.0,0.0,0.0,0.0,0.0,0.0,0.0,0.0,0.0,0.0,0.0,0.0,0.0,0.0,0.0,0.0,0.0,0.0,0.0,0.0,0.0,0.0,0.0,0.0,0.0,0.0,0.0,0.0,0.0,0.0,0.0,0.0,0.0,0.0,0.0,0.0,0.0,0.0,0.0,0.0,0.0,0.0,0.0,0.0,0.0,0.0,0.0,0.0,0.0,0.0,0.0,0.0,0.0,0.0,0.0,0.0,0.0,0.0,0.0,0.0,0.0,0.0,0.0,0.0,0.0,0.0,0.0,0.0,0.0,0.0,0.0,0.0,0.0,0.0,0.0,0.0,0.0,0.0,0.0,0.0,0.0,0.0,0.0,0.0,0.0,0.0,8.163,8.7837,9.6269,9.8807,9.4903,8.893,8.1786,0.0,0.0,0.0,0.0,0.0,0.0,0.0,0.0,0.0,0.0,0.0,0.0,0.0,0.0,0.0,0.0,0.0,0.0,0.0,0.0,0.0,0.0,0.0,0.0,0.0,0.0,0.0,0.0,0.0,0.0,0.0,0.0,0.0,0.0,0.0,0.0,0.0,0.0,0.0,0.0,0.0,0.0,0.0,0.0,0.0,0.0,0.0,0.0,4.8967,0.0,0.0,0.0,0.0,0.0,0.0,0.0,0.0,0.0,0.0,0.0,0.0,0.0,0.0,0.0,0.0,0.0,0.0,0.0,0.0,0.0,0.0,0.0,0.0,0.0,0.0,0.0,0.0,0.0,0.0,0.0,0.0,0.0,0.0,0.0,0.0,0.0,0.0,0.0,0.0,0.0,0.0,0.0,0.0,0.0,0.0,0.0,0.0,0.0,0.0,0.0,0.0,0.0,0.0,0.0,0.0,0.0,0.0,0.0,8.5221,9.0452,9.7323,9.947,9.6347,9.2092,8.5377,0.0,0.0,0.0,0.0,0.0,0.0,0.0,0.0,0.0,0.0,0.0,0.0,0.0,0.0,0.0,0.0,0.0,0.0,0.0,0.0,0.0,0.0,0.0,0.0,0.0,0.0,0.0,0.0,0.0,0.0,0.0,0.0,0.0,0.0,0.0,0.0,0.0,0.0,0.0,0.0,0.0,0.0,0.0,0.0,0.0,0.0,0.0,0.0,0.0,0.0,0.0,0.0,0.0,0.0,0.0,0.0,0.0,0.0,0.0,0.0,0.0,0.0,0.0,0.0,0.0,0.0,0.0,0.0,0.0,0.0,0.0,0.0,0.0,0.0,0.0,0.0,0.0,0.0,0.0,0.0,0.0,0.0,0.0,0.0,0.0,0.0,0.0,0.0,0.0,0.0,0.0,0.0,0.0,0.0,0.0,0.0,0.0,0.0,0.0,0.0,0.0,0.0,0.0,0.0,0.0,0.0,0.0,8.1005,8.8696,9.2873,9.7987,9.9627,9.7362,9.4044,8.7407,7.7062,0.0,0.0,0.0,0.0,0.0,0.0,0.0,0.0,0.0,0.0,0.0,0.0,0.0,0.0,0.0,0.0,0.0,0.0,0.0,0.0,0.0,0.0,0.0,0.0,0.0,0.0,0.0,0.0,0.0,0.0,0.0,0.0,0.0,0.0,0.0,0.0,0.0,0.0,4.7932,5.0334,0.0,0.0,0.0,0.0,0.0,0.0,0.0,0.0,5.1804,0.0,0.0,0.0,0.0,0.0,0.0,0.0,0.0,0.0,0.0,0.0,0.0,0.0,0.0,0.0,0.0,0.0,0.0,0.0,0.0,0.0,0.0,0.0,0.0,0.0,0.0,0.0,0.0,0.0,0.0,0.0,0.0,0.0,0.0,0.0,0.0,0.0,0.0,0.0,0.0,0.0,0.0,0.0,0.0,0.0,0.0,0.0,0.0,0.0,0.0,0.0,0.0,0.0,0.0,0.0,0.0,7.2612,8.3699,9.1077,9.463,9.9744,10.0173,9.5684,9.2912,8.6275,7.554,0.0,0.0,0.0,0.0,0.0,0.0,0.0,0.0,0.0,0.0,0.0,0.0,0.0,0.0,0.0,0.0,0.0,0.0,0.0,0.0,0.0,0.0,0.0,0.0,0.0,0.0,0.0,0.0,0.0,0.0,0.0,0.0,0.0,0.0,0.0,0.0,0.0,0.0,0.0,5.3007,5.4303,0.0,0.0,0.0,0.0,0.0,0.0,0.0,0.0,5.2706,0.0,0.0,0.0,0.0,0.0,0.0,0.0,0.0,0.0,0.0,0.0,0.0,0.0,0.0,0.0,0.0,0.0,0.0,0.0,0.0,0.0,0.0,0.0,0.0,0.0,0.0,0.0,0.0,0.0,0.0,0.0,0.0,0.0,0.0,0.0,0.0,0.0,0.0,0.0,0.0,0.0,0.0,0.0,0.0,0.0,0.0,0.0,0.0,0.0,0.0,0.0,0.0,0.0,0.0,0.0,7.5423,8.6744,9.3888,9.6464,10.0173,9.9431,9.3888,8.9984,8.3074,0.0,0.0,0.0,0.0,0.0,0.0,0.0,0.0,0.0,0.0,0.0,0.0,0.0,0.0,0.0,0.0,0.0,0.0,0.0,0.0,0.0,0.0,0.0,0.0,0.0,0.0,0.0,0.0,0.0,0.0,0.0,0.0,0.0,0.0,0.0,0.0,0.0,0.0,0.0,0.0,5.5469,5.7489,5.6172,0.0,0.0,0.0,0.0,0.0,0.0,5.5704,5.4806,0.0,0.0,0.0,0.0,0.0,0.0,0.0,0.0,0.0,0.0,0.0,0.0,0.0,0.0,0.0,0.0,0.0,0.0,0.0,0.0,0.0,0.0,0.0,0.0,0.0,0.0,0.0,0.0,0.0,0.0,0.0,0.0,0.0,0.0,0.0,0.0,0.0,0.0,0.0,0.0,0.0,0.0,0.0,0.0,0.0,0.0,0.0,0.0,0.0,0.0,0.0,0.0,0.0,0.0,0.0,7.7453,8.9086,9.5957,9.7714,10.0368,9.8807,9.2678,8.7681,8.0459,0.0,0.0,0.0,0.0,0.0,0.0,0.0,0.0,0.0,0.0,0.0,0.0,0.0,0.0,0.0,0.0,0.0,0.0,0.0,0.0,0.0,0.0,0.0,0.0,0.0,0.0,0.0,0.0,0.0,0.0,0.0,0.0,0.0,0.0,0.0,0.0,0.0,0.0,0.0,0.0,0.0,6.0468,5.9295,5.8414,0.0,0.0,0.0,0.0,5.7894,5.8714,0.0,0.0,0.0,0.0,0.0,0.0,0.0,0.0,0.0,0.0,0.0,0.0,0.0,0.0,0.0,0.0,0.0,0.0,0.0,0.0,0.0,0.0,0.0,0.0,0.0,0.0,0.0,0.0,0.0,0.0,0.0,0.0,0.0,0.0,0.0,0.0,0.0,0.0,0.0,0.0,0.0,0.0,0.0,0.0,0.0,0.0,0.0,0.0,0.0,0.0,0.0,0.0,0.0,0.0,0.0,0.0,7.8311,8.9359,9.5957,9.7753,10.0915,9.9431,9.2678,8.8227,8.081,0.0,0.0,0.0,0.0,0.0,0.0,0.0,0.0,0.0,0.0,0.0,0.0,0.0,0.0,0.0,0.0,0.0,0.0,0.0,0.0,0.0,0.0,0.0,0.0,0.0,0.0,0.0,0.0,0.0,0.0,0.0,0.0,0.0,0.0,0.0,0.0,0.0,0.0,0.0,0.0,0.0,6.2846,6.3467,6.281,6.226,0.0,0.0,6.2248,6.2267,6.3646,0.0,0.0,0.0,0.0,0.0,0.0,0.0,0.0,0.0,0.0,0.0,0.0,0.0,0.0,0.0,0.0,0.0,0.0,0.0,0.0,0.0,0.0,0.0,0.0,0.0,0.0,0.0,0.0,0.0,0.0,0.0,0.0,0.0,0.0,0.0,0.0,0.0,0.0,0.0,0.0,0.0,0.0,0.0,0.0,0.0,0.0,0.0,0.0,0.0,0.0,0.0,0.0,0.0,0.0,0.0,7.1128,7.8468,8.9398,9.5684,9.6972,9.9861,9.8299,9.1975,8.7642,8.0341,0.0,0.0,0.0,0.0,0.0,0.0,0.0,0.0,0.0,0.0,0.0,0.0,0.0,0.0,0.0,0.0,0.0,0.0,0.0,0.0,0.0,0.0,0.0,0.0,0.0,0.0,0.0,0.0,0.0,0.0,0.0,0.0,0.0,0.0,0.0,0.0,0.0,0.0,0.0,0.0,0.0,0.0,6.6394,6.6991,0.0,0.0,0.0,6.6242,6.7213,0.0,0.0,0.0,0.0,0.0,0.0,0.0,0.0,0.0,0.0,0.0,0.0,0.0,0.0,0.0,0.0,0.0,0.0,0.0,0.0,0.0,0.0,0.0,0.0,0.0,0.0,0.0,0.0,0.0,0.0,0.0,0.0,0.0,0.0,0.0,0.0,0.0,0.0,0.0,0.0,0.0,0.0,0.0,0.0,0.0,0.0,0.0,0.0,0.0,0.0,0.0,0.0,0.0,0.0,0.0,0.0,0.0,7.9053,8.9867,9.5957,9.705,9.9588,9.826,9.2717,8.8383,0.0,0.0,0.0,0.0,0.0,0.0,0.0,0.0,0.0,0.0,0.0,0.0,0.0,0.0,0.0,0.0,0.0,0.0,0.0,0.0,0.0,0.0,0.0,0.0,0.0,0.0,0.0,3.9593,0.0,0.0,0.0,0.0,0.0,0.0,0.0,0.0,0.0,0.0,0.0,0.0,0.0,0.0,6.8586,6.9288,7.0857,7.1747,0.0,0.0,7.0386,7.1515,7.3086,7.1986,0.0,0.0,0.0,0.0,0.0,0.0,0.0,0.0,0.0,0.0,0.0,0.0,0.0,0.0,0.0,0.0,0.0,0.0,0.0,0.0,0.0,0.0,0.0,0.0,0.0,0.0,0.0,0.0,0.0,0.0,0.0,0.0,0.0,0.0,0.0,0.0,0.0,0.0,0.0,0.0,0.0,0.0,0.0,0.0,0.0,0.0,0.0,0.0,0.0,0.0,0.0,0.0,0.0,0.0,0.0,8.0849,9.1038,9.7089,9.8807,10.1305,10.0524,9.6152,9.1897,8.5182,0.0,0.0,0.0,0.0,0.0,0.0,0.0,0.0,0.0,0.0,0.0,0.0,0.0,0.0,0.0,0.0,0.0,0.0,0.0,0.0,0.0,0.0,0.0,0.0,0.0,0.0,0.0,0.0,0.0,0.0,0.0,0.0,0.0,0.0,0.0,0.0,0.0,0.0,0.0,0.0,0.0,7.0148,7.2617,7.4374,7.5457,0.0,0.0,7.5069,7.4441,7.5733,7.4251,6.6674,0.0,0.0,0.0,0.0,0.0,0.0,0.0,0.0,0.0,0.0,0.0,0.0,0.0,0.0,0.0,0.0,0.0,0.0,0.0,0.0,0.0,0.0,0.0,0.0,0.0,0.0,0.0,0.0,0.0,0.0,0.0,0.0,0.0,0.0,0.0,0.0,0.0,0.0,0.0,0.0,0.0,0.0,0.0,0.0,0.0,0.0,0.0,0.0,0.0,0.0,0.0,0.0,0.0,7.2104,8.0146,9.0882,9.6972,9.8221,10.0681,10.0485,9.7284,9.5567,8.9789,0.0,0.0,0.0,0.0,0.0,0.0,0.0,0.0,0.0,0.0,0.0,0.0,0.0,0.0,0.0,0.0,0.0,0.0,0.0,0.0,0.0,0.0,0.0,0.0,0.0,0.0,0.0,0.0,4.2513,4.263,4.2435,0.0,0.0,0.0,0.0,0.0,0.0,0.0,0.0,0.0,0.0,7.2851,7.6008,7.8332,0.0,0.0,7.937,7.8704,7.7879,7.7773,7.5418,6.8266,6.2288,0.0,0.0,0.0,0.0,0.0,0.0,0.0,0.0,0.0,0.0,0.0,0.0,0.0,0.0,0.0,0.0,0.0,0.0,0.0,0.0,0.0,0.0,0.0,0.0,0.0,0.0,0.0,0.0,0.0,0.0,0.0,0.0,0.0,0.0,0.0,0.0,0.0,0.0,0.0,0.0,0.0,0.0,0.0,0.0,0.0,0.0,0.0,0.0,0.0,0.0,0.0,0.0,7.2456,8.042,9.1233,9.7323,9.8455,10.0681,10.0798,9.8572,9.7714,9.2522,0.0,0.0,0.0,0.0,0.0,0.0,0.0,0.0,0.0,0.0,0.0,0.0,0.0,0.0,0.0,0.0,0.0,0.0,0.0,0.0,0.0,0.0,0.0,0.0,0.0,0.0,0.0,0.0,4.384,4.3372,4.2474,0.0,0.0,0.0,0.0,0.0,0.0,0.0,0.0,0.0,0.0,7.4439,7.7915,8.1031,8.3002,8.3027,8.2328,8.1276,7.9915,7.8281,7.5099,6.9077,0.0,0.0,0.0,0.0,0.0,0.0,0.0,0.0,0.0,0.0,0.0,0.0,0.0,0.0,0.0,0.0,0.0,0.0,0.0,0.0,0.0,0.0,0.0,0.0,0.0,0.0,0.0,0.0,0.0,0.0,0.0,0.0,0.0,0.0,0.0,0.0,0.0,0.0,0.0,0.0,0.0,0.0,0.0,0.0,0.0,0.0,0.0,0.0,0.0,0.0,0.0,0.0,0.0,0.0,8.2176,9.2365,9.8494,10.0173,10.1891,10.1969,10.0212,9.7792,9.2756,8.4792,0.0,0.0,0.0,0.0,0.0,0.0,0.0,0.0,0.0,0.0,0.0,0.0,0.0,0.0,0.0,0.0,0.0,0.0,0.0,0.0,0.0,0.0,0.0,0.0,0.0,0.0,4.4855,4.4192,4.3372,0.0,0.0,0.0,0.0,0.0,0.0,0.0,0.0,0.0,0.0,6.8343,7.4474,7.7987,8.2046,8.4668,8.4714,8.3994,8.2554,8.0029,7.6792,7.3107,0.0,0.0,0.0,0.0,0.0,0.0,0.0,0.0,0.0,0.0,0.0,0.0,0.0,0.0,0.0,0.0,0.0,0.0,0.0,0.0,0.0,0.0,0.0,0.0,0.0,0.0,0.0,5.0134,4.9432,0.0,0.0,0.0,0.0,0.0,0.0,0.0,0.0,0.0,0.0,0.0,6.7475,6.7205,0.0,0.0,0.0,0.0,0.0,0.0,0.0,0.0,0.0,0.0,0.0,0.0,7.2807,8.1474,9.217,9.8533,10.029,10.2515,10.2593,10.0368,9.9978,9.4005,8.1786,0.0,0.0,0.0,0.0,0.0,0.0,0.0,0.0,0.0,0.0,0.0,0.0,0.0,0.0,0.0,0.0,0.0,0.0,0.0,0.0,0.0,0.0,0.0,0.0,0.0,4.466,0.0,0.0,0.0,0.0,0.0,0.0,0.0,0.0,0.0,0.0,0.0,5.6321,6.2617,6.9124,7.4909,7.9476,8.2794,8.498,0.0,0.0,0.0,0.0,0.0,0.0,0.0,0.0,0.0,0.0,0.0,0.0,0.0,0.0,6.6824,6.3197,6.2538,6.1806,5.9434,0.0,0.0,0.0,0.0,0.0,0.0,0.0,0.0,0.0,0.0,0.0,0.0,0.0,0.0,0.0,0.0,5.1999,0.0,0.0,0.0,0.0,0.0,0.0,0.0,0.0,6.8924,7.2437,7.4822,7.5168,7.6053,0.0,7.6015,7.1926,0.0,0.0,0.0,0.0,0.0,0.0,0.0,0.0,7.3225,8.1897,9.2014,9.8221,10.0251,10.2203,10.2281,10.0368,9.8768,9.2756,8.1825,7.2924,6.5194,0.0,0.0,0.0,0.0,0.0,0.0,0.0,0.0,0.0,0.0,0.0,0.0,0.0,0.0,0.0,0.0,0.0,0.0,0.0,0.0,0.0,0.0,0.0,4.5948,0.0,0.0,0.0,0.0,0.0,0.0,0.0,0.0,0.0,5.0652,5.4647,5.9531,6.4916,7.0562,7.5858,8.0381,0.0,0.0,0.0,0.0,0.0,0.0,0.0,7.3529,7.3046,7.2656,7.2529,7.2718,7.3627,7.4741,7.6066,0.0,0.0,7.2211,7.1242,7.0505,6.8179,6.7736,6.7462,6.6591,6.7553,6.8921,0.0,0.0,0.0,0.0,0.0,0.0,0.0,0.0,6.0716,5.994,0.0,5.6548,0.0,0.0,0.0,0.0,0.0,0.0,0.0,0.0,7.5936,7.9977,8.2324,8.317,8.4093,0.0,8.3978,8.2593,8.0323,6.9477,0.0,0.0,0.0,0.0,0.0,0.0,7.4921,8.3444,9.2046,9.7675,10.0173,10.1032,10.1071,10.0134,9.463,8.9555,8.5065,7.7726,7.0894,6.496,5.9729,0.0,0.0,0.0,0.0,0.0,0.0,0.0,0.0,0.0,0.0,0.0,0.0,0.0,0.0,0.0,0.0,0.0,0.0,0.0,0.0,4.9,0.0,0.0,0.0,0.0,0.0,0.0,0.0,0.0,0.0,0.0,5.4849,5.8858,6.3434,6.7625,0.0,0.0,0.0,0.0,8.636,8.7258,8.6705,8.5565,8.3862,8.0066,7.7898,7.9556,0.0,0.0,8.1873,8.2305,8.2545,8.3219,8.4139,8.379,8.1181,8.0284,7.9563,7.7852,7.7379,7.7483,7.6746,7.6707,7.8039,7.5091,0.0,0.0,0.0,0.0,6.7062,6.9099,7.0943,6.9512,6.8777,6.8313,6.5276,0.0,0.0,0.0,0.0,0.0,0.0,6.9494,7.5465,8.0029,8.3478,8.5901,8.6209,8.6748,8.7555,8.6748,8.5132,8.2747,7.8276,7.1941,6.4023,0.0,0.0,0.0,0.0,7.6283,8.4298,9.2303,9.7362,9.9353,10.0212,10.0251,9.9392,9.5879,9.2834,9.0335,8.405,7.839,7.3588,6.6756,0.0,0.0,0.0,0.0,0.0,0.0,0.0,0.0,0.0,0.0,0.0,0.0,0.0,0.0,0.0,0.0,0.0,0.0,0.0,5.1301,5.3253,5.3093,0.0,0.0,0.0,0.0,0.0,0.0,0.0,0.0,0.0,6.4765,6.5677,6.7164,0.0,0.0,7.6828,7.9684,8.3003,8.5702,8.7187,0.0,0.0,0.0,8.4146,8.3107,8.4832,8.6858,8.8909,9.0789,9.1022,9.099,9.1059,9.1282,9.096,8.9526,8.6339,8.3358,8.1103,8.1398,8.1717,8.05,8.1633,8.3228,8.4439,7.6515,7.4389,7.3097,7.2661,7.4692,7.6646,7.832,7.6982,7.6391,7.6198,7.2925,7.0041,6.7495,6.5803,0.0,0.0,0.0,7.4818,7.9632,8.338,8.6247,8.8363,8.9094,8.9671,9.0171,8.9325,8.8094,8.6555,8.4593,8.0469,7.4109,0.0,0.0,6.8549,7.3144,7.9037,8.6128,9.2919,9.7245,9.8963,9.9509,9.9548,9.8963,9.6464,9.4278,9.2482,8.7368,8.2528,7.8272,7.1753,6.5468,0.0,0.0,0.0,0.0,0.0,0.0,0.0,0.0,0.0,0.0,0.0,4.1459,4.2357,0.0,0.0,0.0,4.8525,5.1765,5.4498,5.6762,0.0,0.0,0.0,0.0,0.0,0.0,0.0,6.3906,6.7693,7.1128,7.3627,7.4413,7.4496,7.3867,7.6438,7.9287,8.1864,0.0,8.6464,8.8186,8.9132,8.9454,8.8877,8.7936,8.7832,8.9547,9.1729,9.356,9.459,9.4737,9.4617,9.4482,9.4408,9.4148,9.3601,9.0892,8.8094,8.5565,8.5591,8.581,8.5139,8.6261,8.7494,9.0902,8.7671,8.3747,8.0977,7.9477,8.1785,8.3324,8.4132,8.3247,8.2862,8.2554,7.9548,7.7263,7.5507,7.239,0.0,0.0,7.663,7.9814,8.3123,8.6274,8.8594,9.0248,9.1825,9.2556,9.2441,9.1595,9.1133,9.0825,8.8594,8.6632,8.4747,7.4907,7.1463,7.4608,7.7982,8.2688,8.8651,9.3768,9.7206,9.8846,9.8924,9.8885,9.8885,9.6503,9.4395,9.26,8.8696,8.4558,8.0341,7.5266,6.945,6.2813,0.0,0.0,0.0,0.0,0.0,0.0,0.0,0.0,0.0,0.0,0.0,0.0,0.0,0.0,0.0,5.2819,0.0,5.8363,6.0159,0.0,0.0,0.0,5.8792,6.1954,6.4648,6.781,7.1909,0.0,0.0,0.0,0.0,8.3588,7.9717,8.1317,8.366,8.5963,8.7001,8.8206,8.9925,9.093,9.152,9.1587,9.1573,9.2119,9.356,9.4613,9.5119,9.5182,9.5119,9.4893,9.4823,9.469,9.4589,9.4413,9.4153,9.3534,9.0981,8.9964,8.9654,8.9886,9.0246,9.0875,9.4557,9.3056,9.1402,8.8594,8.5401,8.6632,8.8017,8.9286,8.8479,8.7748,8.7017,8.5167,8.2728,7.9929,7.7329,7.7312,7.9509,8.1439,8.4087,8.734,8.9359,9.1171,9.2787,9.321,9.3095,9.2479,9.1595,9.0556,8.9325,8.8671,8.7517,8.5747,8.3202,8.1445,8.064,8.2261,8.5494,9.0291,9.4334,9.6894,9.7987,9.7987,9.7987,9.7987,9.6777,9.5293,9.3537,9.1311,8.8383,8.4675,7.9639,7.433,6.8786,6.1993,0.0,0.0,0.0,0.0,0.0,0.0,0.0,0.0,0.0,4.6963,4.9111,0.0,5.2546,0.0,5.7543,6.1408,6.4375,6.6834,0.0,0.0,6.5624,6.5936,6.742,6.9879,7.2612,7.554,7.8936,8.1786,8.366,8.5573,8.6672,8.6275,8.6744,8.7407,8.8039,8.8784,8.9935,9.1571,9.3016,9.4262,9.4807,9.5548,9.6015,9.6522,9.6756,9.6873,9.6873,9.6832,9.6702,9.6499,9.6422,9.6333,9.6155,9.5661,9.481,9.3572,9.2672,9.1705,9.0699,9.1406,9.2499,9.6367,9.4867,9.4441,9.2903,9.0787,9.0902,9.1441,9.2249,9.1787,9.1133,9.0283,8.8737,8.6904,8.4843,8.3468,8.3576,8.4866,8.6007,8.7732,8.9893,9.1206,9.2479,9.3672,9.4095,9.3633,9.2479,9.121,9.0133,8.9248,8.8863,8.8594,8.8363,8.8748,8.8507,8.7665,8.725,8.8692,9.1992,9.5249,9.7199,9.7675,9.7675,9.7518,9.7089,9.5879,9.4278,9.217,9.0452,8.811,8.5026,8.1122,7.6633,7.148,6.4999,5.8519,0.0,0.0,0.0,0.0,0.0,0.0,0.0,0.0,0.0,0.0,0.0,5.8675,0.0,6.293,0.0,6.9879,7.2221,7.3471,7.3275,7.3275,7.3471,7.3939,7.5618,7.7531,7.9717,8.2684,8.5221,8.69,8.8618,8.9828,9.0335,9.0062,8.9867,8.9841,8.9922,9.0537,9.2237,9.356,9.4966,9.655,9.7199,9.7496,9.7496,9.7457,9.7442,9.7449,9.7398,9.7285,9.7137,9.7043,9.6953,9.6812,9.6435,9.5816,9.5004,9.4452,9.3523,9.1937,9.2335,9.3195,9.7096,9.4984,9.5097,9.5172,9.5095,9.4364,9.4018,9.4018,9.3903,9.3438,9.2588,9.1114,9.0045,8.9291,8.9079,8.8934,8.8899,8.9393,9.0171,9.121,9.2095,9.2979,9.3903,9.4749,9.4287,9.2633,9.0902,9.0017,8.9902,8.9171,8.9633,9.121,9.2172,9.3054,9.3808,9.2053,9.2022,9.3901,9.6343,9.765,9.7675,9.7597,9.7128,9.623,9.4434,9.2287,8.975,8.7993,8.5924,8.3426,8.0888,7.7375,7.269,6.7693,6.2384,0.0,5.4147,0.0,0.0,0.0,0.0,0.0,0.0,0.0,0.0,6.3086,6.5273,6.7888,6.8786,7.0894,7.4954,7.6906,7.8507,7.9834,8.0107,8.0185,8.0185,8.0849,8.1981,8.366,8.6041,8.8188,8.9672,9.1467,9.2482,9.2287,9.1624,9.1194,9.1318,9.0385,9.0307,9.2091,9.3217,9.487,9.6941,9.7525,9.7496,9.7496,9.7418,9.7387,9.7382,9.7324,9.7245,9.713,9.7031,9.6953,9.6812,9.6783,9.6474,9.5623,9.5352,9.4878,9.3562,9.3302,9.4085,9.6825,9.5867,9.5906,9.5944,9.6057,9.5865,9.5826,9.5749,9.5057,9.4323,9.3581,9.264,9.1778,9.0852,8.954,8.8892,8.8765,8.8128,8.9056,9.121,9.2095,9.3287,9.4749,9.5634,9.5172,9.3441,9.1787,9.0594,8.9902,8.9748,9.0171,9.121,9.271,9.3592,0.0,0.0,0.0,0.0,9.7188,9.7572,9.7675,9.7011,9.623,9.5332,9.3029,0.0,8.7993,8.6197,8.4441,8.2567,8.0029,0.0,0.0,0.0,0.0,0.0,0.0,0.0,0.0,0.0,0.0,0.0,7.0348,7.027,6.7029,6.8864,7.1675,7.4798,7.5305,7.6594,7.9483,8.1278,8.2176,8.1864,8.2411,8.2801,8.2801,8.2957,8.3699,8.5416,8.729,8.8813,8.9906,9.1467,9.2482,9.2443,9.1819,9.1624,9.2131,9.0315,8.9596,9.1211,9.3332,9.5395,9.7319,9.7604,9.7535,9.7496,9.7418,9.7377,9.7332,9.7261,9.7159,9.707,9.6979,9.6898,9.6812,9.6822,9.6551,9.5661,9.5506,9.5197,9.422,9.4539,9.5361,9.7277,0.0,9.6132,9.6058,0.0,0.0,9.6213,9.6174,9.5789,9.5209,9.4398,9.3547,9.2503,9.1231,8.9536,8.8309,8.7391,8.6126,8.6901,8.9363,9.0633,9.2556,9.5018,9.6288,9.598,9.4287,9.2633,9.1402,9.0594,9.0556,9.1171,9.2479,9.4134,9.5016,9.5091,9.5576,9.6317,9.7238,9.7379,9.755,9.7675,9.6855,9.5996,9.5059,0.0,0.0,0.0,0.0,0.0,0.0,0.0,0.0,0.0,0.0,0.0,6.7693,6.7459,6.6873,6.5741,6.9098,7.2182,7.4369,7.7296,7.7531,7.4095,7.5423,7.7335,7.9444,8.042,8.1786,8.3933,8.5338,8.608,8.608,8.608,8.5924,8.5495,8.5416,8.5612,8.6119,8.7642,8.9008,8.9867,9.1077,9.2014,9.2365,9.1819,9.1467,9.1663,9.0413,9.0047,9.2109,9.3853,9.5652,9.719,9.7616,9.7574,9.7535,9.7457,9.7416,9.7347,9.7251,9.7161,9.7044,9.6979,9.6926,9.6812,9.6822,9.6667,9.628,9.6164,9.6048,9.5574,9.5506,9.6057,9.7872,9.6959,9.6354,9.6054,9.59,9.5981,9.6098,9.6098,0.0,0.0,0.0,9.4595,9.3364,9.1556,8.9863,8.8137,8.6445,8.4791,8.5291,8.7637,8.9483,9.2018,9.5018,9.6865,9.6865,9.5172,9.3672,9.2479,9.1672,9.1633,9.2402,9.3941,9.5518,9.6288,9.6288,9.6429,9.6696,9.7129,9.7299,9.7474,9.7675,9.6855,9.5918,9.4903,9.2561,9.0062,8.7486,8.5885,8.4636,8.3738,8.2411,8.1356,8.0576,7.8546,7.6477,7.4486,7.4408,7.4486,7.4525,7.6711,7.8741,8.0341,8.245,8.2801,8.0771,8.1239,8.2176,8.3308,8.4675,8.6119,8.772,8.8461,8.9203,8.9906,8.9359,8.8618,8.7954,8.7876,8.7564,8.7095,8.8305,8.9437,9.0179,9.1038,9.1741,9.2248,9.1819,9.1311,9.1233,9.0882,9.1252,9.3236,9.4648,9.5926,9.7174,9.7589,9.7589,9.7496,9.7457,9.7394,9.7362,9.7285,9.7173,9.7006,9.7006,9.6926,9.6812,9.6822,9.6822,9.6822,9.6822,9.6822,9.6744,9.6241,9.6444,9.8401,9.6997,9.6882,9.6469,9.5862,9.5941,9.6019,9.6174,9.6981,9.6865,9.6172,9.6711,9.5634,9.3249,9.1485,8.9758,8.807,8.631,8.6501,0.0,9.0872,9.3061,9.5057,9.748,9.775,9.6134,9.5095,9.4172,9.3441,9.3364,9.3864,9.4826,9.5826,9.6288,9.6288,9.6432,9.6653,9.694,9.7129,9.7394,9.7675,9.6855,9.5606,9.4005,9.2287,9.0062,8.7525,8.6471,8.5495,8.4675,8.4401,8.4206,8.4089,8.3699,8.3347,8.3074,8.3699,8.4128,8.4089,8.5846,8.729,8.8266,8.8696,8.7564,8.4441,8.4206,8.526,8.7486,8.7954,8.854,8.9516,8.9789,8.9984,9.0062,8.9945,8.975,8.9672,8.9633,8.9555,8.9398,9.0296,9.0882,9.1077,9.1741,9.2248,9.2326,9.1897,9.135,9.1389,9.1819,9.2567,9.3706,9.5196,9.6476,9.7368,9.7583,9.755,9.7496,9.7457,9.7387,9.7342,9.7284,9.7176,9.7031,9.7006,9.6926,9.6812,9.6822,9.6812,9.6812,9.6812,9.6822,9.6822,9.6628,9.6938,9.8701,9.7598,9.7139,9.6495,9.5734,9.5814,9.6166,9.6786,9.7633,9.7635,9.7019,9.7326,9.6289,9.4176,9.1986,9.0031,8.8307,8.6582,8.7004,8.9151,9.1298,9.3716,9.6328,9.8481,9.9096,9.8327,9.748,9.6596,9.5788,9.5326,9.5288,9.5711,9.6134,9.6288,9.6288,9.6397,9.6558,9.6743,9.7043,9.7333,9.7632,9.6831,9.6019,9.5215,9.3537,9.1702,8.9594,8.8696,8.7798,8.6978,8.6471,8.6431,8.6861,8.6471,8.6197,8.6236,8.7017,8.7525,8.7486,8.8696,8.9555,8.9984,8.9984,8.9594,8.8461,8.7876,8.811,8.9281,8.9828,9.0257,9.0687,9.1507,9.2053,9.2053,9.2053,9.2053,9.2014,9.1585,9.1194,9.0843,9.1038,9.1311,9.1311,9.1624,9.2053,9.2326,9.2131,9.178,9.1428,9.2404,9.3497,9.4356,9.5215,9.6192,9.7335,9.7593,9.755,9.7496,9.7457,9.7418,9.7379,9.7349,9.7282,9.7186,9.716,9.7052,9.7018,9.6993,9.6954,9.6967,9.6947,9.6967,9.6899,9.686,9.7131,9.9228,9.8044,9.7432,9.6554,9.5637,9.5959,9.6504,9.7239,9.8316,9.8475,9.8058,9.7981,9.702,9.5175,9.2834,9.103,8.9612,8.7926,8.8462,9.0722,9.2526,9.4868,9.7594,9.9479,10.021,9.9941,9.9326,9.8481,9.7481,9.6827,9.6443,9.6326,9.6288,9.6288,9.6326,9.6358,9.6492,9.6568,9.694,9.7227,9.7499,9.6948,9.6587,9.6308,9.5098,9.3693,9.2248,9.1507,9.0765,8.9906,8.9398,8.9359,8.9789,8.9398,8.9125,8.9203,8.975,9.014,9.0179,9.0765,9.1155,9.1155,9.1155,9.1428,9.1975,9.1546,9.096,9.0726,9.1155,9.1624,9.1975,9.2951,9.3888,9.4044,9.4122,9.4005,9.4005,9.3497,9.2756,9.2053,9.1858,9.1858,9.1624,9.1585,9.1858,9.2365,9.2482,9.2209,9.1858,9.2873,9.4083,9.4864,9.5254,9.5997,9.7335,9.7593,9.755,9.7535,9.7496,9.7474,9.7483,9.7446,9.7416,9.7316,9.7294,9.7243,9.7168,9.7126,9.7143,9.7137,9.7134,9.7092,9.7015,9.6899,9.6976,10.026,9.8235,9.8044,9.7089,9.5789,9.6571,9.6959,9.7265,9.8849,9.9581,9.947,9.9508,9.8546,9.6897,9.5013,9.4053,9.3705,9.2091,9.2244,9.4088,9.5814,9.7235,9.8508,10.0122,10.0506,9.9853,9.9662,9.8859,9.7596,9.7365,9.6982,9.6365,9.6288,9.6365,9.6326,9.6432,9.6463,9.6525,9.6735,9.6998,9.734,9.7383,9.7093,9.6425,9.6269,9.5723,9.4669,9.4669,9.42,9.3497,9.3888,9.4005,9.3419,9.3927,9.4317,9.4278,9.4356,9.4512,9.4434,9.4591,9.4473,9.463,9.4434,9.4473,9.463,9.4591,9.3927,9.2717,9.2365,9.2756,9.3458,9.381,9.4239,9.4903,9.502,9.4981,9.502,9.4903,9.4512,9.3693,9.3419,9.3263,9.2482,9.2287,9.2326,9.2326,9.2561,9.2522,9.2404,9.3224,9.4239,9.5059,9.5723,9.6544,9.7377,9.7593,9.7578,9.755,9.7535,9.7538,9.7565,9.7527,9.7452,9.7425,9.7358,9.7304,9.7286,9.7282,9.7284,9.7304,9.7261,9.7238,9.7054,9.6899,9.6938,10.026,9.8884,9.8884,9.8158,9.7241,9.7516,9.7936,9.8516,9.9211,9.9785,10.0206,10.0244,9.9638,9.8576,9.7308,9.6686,9.656,9.5828,9.6172,9.7407,9.8178,9.8993,9.9917,10.0574,10.077,10.0425,9.9965,9.9351,9.882,9.8324,9.7981,9.7827,9.7788,9.7788,9.7788,9.7787,9.786,9.7822,9.7529,9.7545,9.7732,9.7582,9.7382,9.7199,9.7167,9.6777,9.5957,9.5879,9.5449,9.4669,9.4903,9.4942,9.4591,9.4903,9.5098,9.5098,9.5098,9.5098,9.5098,9.5098,9.5098,9.5098,9.5098,9.5098,9.5098,9.5098,9.4786,9.42,9.4044,9.42,9.4552,9.502,9.5488,9.5879,9.6308,9.6621,9.6621,9.6152,9.5527,9.4708,9.4122,9.3497,9.2717,9.2482,9.2287,9.2092,9.2522,9.3068,9.2717,9.3654,9.4864,9.5684,9.6191,9.6696,9.742,9.7656,9.7622,9.7578,9.7574,9.7577,9.7606,9.7574,9.7533,9.7527,9.7481,9.7466,9.7464,9.7494,9.7499,9.7472,9.7398,9.7315,9.7141,9.7015,9.6938,10.0833,10.0107,9.984,9.9228,9.8502,9.8693,9.8999,9.9419,9.9649,10.0069,10.0566,10.0604,10.0344,9.9823,9.8982,9.8669,9.8732,9.8579,9.8923,9.9649,9.9817,10.0206,10.0703,10.0831,10.0875,10.0798,10.0262,9.9841,9.9615,9.8936,9.8672,9.875,9.8788,9.8788,9.8788,9.8788,9.8788,9.8749,9.8125,9.7943,9.807,9.7653,9.7474,9.7667,9.7675,9.7401,9.6816,9.6738,9.6464,9.584,9.5801,9.5801,9.5801,9.5801,9.5801,9.5801,9.5801,9.5801,9.5801,9.5801,9.5801,9.5801,9.5801,9.5801,9.5801,9.5801,9.5801,9.5801,9.5801,9.5762,9.5567,9.6035,9.6464,9.6738,9.7362,9.7675,9.7597,9.7089,9.6425,9.5567,9.4747,9.3732,9.2795,9.2482,9.2365,9.2326,9.3068,9.381,9.3497,9.4512,9.5723,9.6308,9.6582,9.7003,9.75,9.7648,9.7689,9.7639,9.7617,9.7593,9.7617,9.7589,9.7643,9.7613,9.7616,9.7617,9.7578,9.7611,9.7633,9.7617,9.7515,9.7387,9.7293,9.7161,9.6996,10.2591,10.1712,10.0909,10.0145,9.9419,10.0145,10.0069,9.9534,10.0183,10.0566,10.0604,10.0604,10.0566,10.0451,9.9695,9.9725,10.0298,9.9649,9.9725,10.0413,10.0489,10.0527,10.0604,10.0604,10.0604,10.065,10.0536,10.0199,9.9562,9.8971,9.8594,9.8671,9.8904,9.8865,9.8942,9.8981,9.8865,9.8942,9.8279,9.7982,9.8124,9.7577,9.7379,9.7659,9.7675,9.7636,9.7597,9.7597,9.7558,9.7558,9.744,9.7518,9.7518,9.7518,9.7479,9.7479,9.7518,9.7518,9.7479,9.744,9.744,9.7479,9.7362,9.7518,9.7323,9.7323,9.7323,9.7518,9.7362,9.7089,9.6464,9.6464,9.6816,9.744,9.7636,9.7675,9.7675,9.7597,9.7245,9.6386,9.5449,9.4356,9.2834,9.2482,9.299,9.3419,9.3771,9.4083,9.4747,9.5645,9.623,9.6464,9.6972,9.7617,9.7609,9.7656,9.7684,9.7636,9.7611,9.7604,9.7616,9.7636,9.7682,9.7689,9.7701,9.7662,9.7689,9.7701,9.7687,9.7656,9.7594,9.7505,9.7433,9.7182,9.7044,10.3011,10.2705,10.24,10.1788,10.1062,10.133,10.0948,10.0222,10.0451,10.0604,10.0604,10.0604,10.0604,10.0566,10.0298,10.0336,10.0566,10.0298,10.0336,10.0566,10.0604,10.0604,10.0604,10.0604,10.0604,10.0604,10.0604,10.0497,10.0365,10.0109,10.0122,10.0246,10.0324,10.0364,10.0404,10.0404,10.0404,10.025,9.9281,9.8756,9.8862,9.7849,9.7379,9.7667,9.7675,9.7675,9.7675,9.7675,9.7675,9.7675,9.7675,9.7675,9.7675,9.7675,9.7675,9.7675,9.7675,9.7675,9.7675,9.7675,9.7675,9.7675,9.7675,9.7675,9.7675,9.7675,9.7675,9.7675,9.7675,9.7518,9.7362,9.7245,9.7323,9.7597,9.7675,9.7675,9.7675,9.7675,9.7362,9.6503,9.5645,9.4786,9.4317,9.4161,9.4278,9.4591,9.5098,9.5293,9.5215,9.5879,9.6425,9.6425,9.666,9.7057,9.7656,9.768,9.7694,9.7691,9.7687,9.7656,9.7667,9.7682,9.7682,9.7682,9.7675,9.7675,9.7682,9.7682,9.7706,9.7691,9.7611,9.7578,9.755,9.7286,9.7137,10.4004,10.4004,10.4004,10.3508,10.2782,10.2705,10.2094,10.11,10.1024,10.0871,10.0642,10.0604,10.0604,10.0604,10.0604,10.0604,10.0604,10.0566,10.0604,10.0604,10.0604,10.0604,10.0604,10.0604,10.0604,10.0604,10.0604,10.065,10.0742,10.0787,10.0913,10.1126,10.1206,10.1208,10.1288,10.1289,10.1289,10.1058,10.009,9.9529,9.9367,9.8277,9.7652,9.7689,9.7675,9.7675,9.7675,9.7675,9.7675,9.7675,9.7675,9.7675,9.7675,9.7675,9.7675,9.7675,9.7675,9.7675,9.7675,9.7675,9.7675,9.7675,9.7675,9.7675,9.7675,9.7675,9.7675,9.7675,9.7675,9.7675,9.7675,9.7675,9.7675,9.7675,9.7675,9.7675,9.7675,9.7675,9.7284,9.6542,9.5957,9.5449,9.5137,9.5059,9.5059,9.5098,9.584,9.6074,9.5762,9.5957,9.6425,9.6425,9.6425,9.6699,9.7135,9.7388,9.7633,9.7689,9.7693,9.7676,9.7701,9.7682,9.7675,9.7675,9.7675,9.7675,9.7675,9.7675,9.7701,9.7687,9.7695,9.7656,9.7539,9.7422,9.7246,10.5647,10.5571,10.5647,10.4998,10.4234,10.4157,10.3393,10.2056,10.1865,10.1368,10.0795,10.0642,10.0604,10.0604,10.0604,10.0604,10.0604,10.0604,10.0604,10.0604,10.0604,10.0604,10.0604,10.0604,10.0604,10.0604,10.0604,10.0604,10.0604,10.0742,10.0869,10.1,10.1165,10.1208,10.1289,10.1289,10.1289,10.1135,10.0553,10.0032,9.9522,9.8899,9.8299,9.7932,9.7909,9.7909,9.7831,9.7753,9.7714,9.7792,9.7714,9.7675,9.7675,9.7675,9.7675,9.7675,9.7675,9.7675,9.7675,9.7675,9.7675,9.7675,9.7675,9.7675,9.7675,9.7675,9.7675,9.7675,9.7675,9.7675,9.7675,9.7675,9.7675,9.7675,9.7675,9.7675,9.7675,9.7675,9.7362,9.6621,9.6347,9.6035,9.541,9.5254,9.5293,9.5449,9.5879,9.6269,9.6035,9.6113,9.6308,9.6308,9.6035,9.5957,9.6503,9.705,9.7401,9.7682,9.7695,9.7682,9.7689,9.7675,9.7675,9.7675,9.7675,9.7675,9.7675,9.7675,9.7675,9.7695,9.7695,9.7695,9.7617,9.7494,9.7362,10.5686,10.5686,10.5686,10.5189,10.4463,10.4386,10.3737,10.2782,10.217,10.175,10.1444,10.0871,10.0604,10.0604,10.0604,10.0604,10.0604,10.0604,10.0604,10.0604,10.0604,10.0604,10.0604,10.0604,10.0604,10.0604,10.0604,10.0604,10.0604,10.065,10.0742,10.0957,10.1043,10.1167,10.1327,10.1289,10.1289,10.1212,10.063,10.0303,10.0298,9.9755,9.9444,9.9493,9.947,9.9509,9.9431,9.8338,9.8026,9.8533,9.8026,9.7675,9.7714,9.7675,9.7675,9.7675,9.7675,9.7675,9.7714,9.7714,9.7753,9.7714,9.7714,9.7675,9.7675,9.7714,9.7714,9.7714,9.7675,9.7675,9.7675,9.7675,9.7675,9.7675,9.7675,9.7675,9.7675,9.7675,9.7284,9.6699,9.6933,9.6855,9.6269,9.5996,9.5957,9.5957,9.6269,9.6308,9.5723,9.5684,9.5488,9.5488,9.5215,9.5371,9.6035,9.6777,9.7284,9.7597,9.7675,9.7675,9.7675,9.7675,9.7675,9.7675,9.7675,9.7675,9.7675,9.7675,9.7675,9.7675,9.7695,9.7695,9.7656,9.7565,9.7418,10.5686,10.5686,10.5686,10.538,10.4921,10.4883,10.4425,10.3622,10.3087,10.2514,10.1865,10.133,10.0909,10.0718,10.0948,10.0909,10.068,10.0909,10.0909,10.0642,10.0604,10.0604,10.0604,10.0604,10.0604,10.0604,10.0604,10.0604,10.0604,10.0604,10.0696,10.0913,10.1,10.1085,10.1248,10.1288,10.1289,10.1251,10.0977,10.0775,10.069,10.0412,10.027,10.0246,10.0235,10.0438,10.0603,9.9392,9.8924,9.9314,9.8924,9.869,9.8651,9.869,9.8651,9.8651,9.869,9.869,9.8651,9.8768,9.8651,9.8651,9.8651,9.8494,9.8299,9.8182,9.8104,9.7753,9.7675,9.7675,9.7675,9.7675,9.7675,9.7675,9.7675,9.7675,9.7675,9.7675,9.7518,9.7167,9.7362,9.7362,9.705,9.6894,9.6699,9.6542,9.6667,9.6589,9.5879,9.5645,9.5488,9.541,9.5371,9.5606,9.584,9.6464,9.7128,9.744,9.7675,9.7675,9.7675,9.7675,9.7675,9.7675,9.7675,9.7675,9.7675,9.7675,9.7675,9.7675,9.7675,9.7701,9.7648,9.7537,9.7416,10.5686,10.5686,10.5686,10.5686,10.5609,10.5609,10.5189,10.4539,10.431,10.3469,10.2361,10.1941,10.1521,10.11,10.1559,10.1483,10.1024,10.1597,10.1635,10.1139,10.0948,10.0986,10.0833,10.068,10.0604,10.0604,10.0604,10.0604,10.0604,10.0604,10.065,10.0787,10.0957,10.1043,10.1167,10.1288,10.1289,10.1289,10.1439,10.1252,10.0856,10.0982,10.0845,10.0424,10.0509,10.0851,10.1344,10.0837,10.0368,10.029,10.0134,10.0056,10.0212,10.029,10.0134,10.0056,10.0212,10.0134,10.0212,10.0017,10.0056,10.0017,9.9978,9.9978,9.9197,9.8924,9.8572,9.7987,9.7792,9.7675,9.7675,9.7675,9.7714,9.7792,9.7909,9.7909,9.787,9.7987,9.7987,9.787,9.7792,9.7792,9.7831,9.7753,9.744,9.7089,9.7369,9.7284,9.6933,9.6582,9.6113,9.5918,9.584,9.5684,9.5918,9.6347,9.7011,9.7479,9.7675,9.7675,9.7675,9.7675,9.7675,9.7675,9.7753,9.7753,9.7675,9.7714,9.7675,9.7675,9.7675,9.7675,9.7628,9.7576,9.7494,10.5686,10.5686,10.5686,10.5686,10.5686,10.5686,10.5571,10.5265,10.4654,10.4157,10.3508,10.2438,10.217,10.2438,10.2056,10.2094,10.2438,10.2705,10.2782,10.2552,10.2514,10.2132,10.1521,10.0909,10.0604,10.0604,10.0604,10.0604,10.0604,10.0604,10.065,10.0787,10.0831,10.1,10.1167,10.1208,10.1248,10.1289,10.1442,10.1543,10.1494,10.1619,10.1812,10.1915,10.1932,10.2109,10.2429,10.2281,10.15,10.0407,10.0329,10.0329,10.0407,10.0407,10.0446,10.0446,10.0407,10.0368,10.0368,10.0407,10.0368,10.0329,10.0485,10.0212,9.9978,9.9392,9.8963,9.8533,9.8143,9.7753,9.7714,9.7753,9.8026,9.8533,9.8729,9.8924,9.9353,9.9627,9.9392,9.8846,9.9197,9.9158,9.8807,9.8651,9.8533,9.8377,9.8416,9.8612,9.8182,9.7753,9.7323,9.6699,9.6464,9.6074,9.5996,9.6386,9.6894,9.7479,9.7675,9.7675,9.7675,9.7675,9.7675,9.7675,9.7909,9.7987,9.7792,9.7714,9.7714,9.7792,9.7675,9.7675,9.7675,9.7628,9.7609,10.5686,10.5686,10.5686,10.5686,10.5686,10.5686,10.5686,10.5609,10.5189,10.473,10.4234,10.3431,10.3049,10.3164,10.3049,10.3011,10.324,10.3546,10.3469,10.3202,10.3126,10.2667,10.1941,10.133,10.0986,10.0604,10.0604,10.0604,10.0604,10.0604,10.065,10.0696,10.0831,10.0957,10.1085,10.1208,10.1248,10.1289,10.1479,10.1736,10.2212,10.2483,10.3033,10.3292,10.3347,10.3112,10.2898,10.314,10.2672,10.1657,10.1383,10.1344,10.1344,10.1344,10.1344,10.1344,10.1344,10.1344,10.1344,10.1344,10.1344,10.1383,10.1344,10.111,10.0837,10.029,10.0017,9.9509,9.9041,9.8846,9.8768,9.8807,9.9197,9.99,10.0056,10.0134,10.0329,10.0251,10.0056,9.9822,9.9939,10.0173,9.9588,9.9548,9.9548,9.9509,9.947,9.9548,9.9431,9.9002,9.8494,9.7831,9.7518,9.7323,9.7011,9.7206,9.7636,9.8143,9.787,9.7831,9.7909,9.787,9.7753,9.7792,9.8065,9.8182,9.8104,9.7987,9.8026,9.8026,9.7831,9.7675,9.7675,9.7675,9.7667,10.5686,10.5686,10.5686,10.5686,10.5686,10.5686,10.5686,10.5686,10.5647,10.5227,10.4654,10.4463,10.4004,10.3508,10.3966,10.4043,10.3584,10.4272,10.4119,10.3813,10.3622,10.324,10.2514,10.217,10.175,10.1215,10.0909,10.1024,10.1177,10.1062,10.0948,10.1193,10.1291,10.1345,10.1622,10.1631,10.1519,10.1635,10.1942,10.2315,10.2869,10.3287,10.3911,10.446,10.4077,10.3719,10.3522,10.3687,10.3687,10.3101,10.2984,10.2789,10.275,10.275,10.2711,10.2633,10.2515,10.2554,10.2711,10.2554,10.2672,10.2593,10.2593,10.2476,10.1774,10.1383,10.0993,10.0446,10.0368,10.0056,10.0095,10.0251,10.0563,10.111,10.1383,10.1266,10.0759,10.0563,10.0563,10.0563,10.0603,10.0563,10.0563,10.0563,10.0603,10.0876,10.0837,10.0837,10.072,10.0329,9.9666,9.8846,9.8729,9.8768,9.8416,9.8104,9.8533,9.8924,9.8377,9.8182,9.8338,9.826,9.7948,9.7948,9.8377,9.8572,9.8572,9.8494,9.8494,9.8221,9.8026,9.7831,9.7675,9.7675,9.7656,10.5686,10.5686,10.5686,10.5686,10.5686,10.5686,10.5686,10.5686,10.5686,10.5571,10.5303,10.473,10.473,10.5074,10.4692,10.4616,10.496,10.5265,10.5303,10.5227,10.5151,10.4654,10.3852,10.3278,10.282,10.2552,10.2591,10.2591,10.2552,10.2438,10.2638,10.2616,10.2554,10.2912,10.3008,10.2896,10.2863,10.2558,10.3021,10.3202,10.3282,10.3956,10.4549,10.5,10.4516,10.445,10.4663,10.435,10.435,10.4545,10.4233,10.3648,10.3062,10.2828,10.2789,10.2789,10.2789,10.2789,10.2789,10.2789,10.2789,10.2789,10.2789,10.2711,10.2554,10.1852,10.15,10.111,10.072,10.0524,10.0524,10.0954,10.1305,10.1657,10.2086,10.2398,10.2281,10.2203,10.2086,10.2125,10.2125,10.2242,10.2203,10.2086,10.2086,10.2203,10.2203,10.2203,10.193,10.1539,10.0837,9.9939,9.9783,9.9822,9.9627,9.9197,9.9119,9.9158,9.8572,9.8494,9.8651,9.8651,9.8338,9.8455,9.8807,9.8963,9.9197,9.9158,9.9158,9.869,9.8299,9.826,9.8182,9.7987,9.8046,10.5686,10.5686,10.5686,10.5686,10.5686,10.5686,10.5686,10.5686,10.5686,10.5686,10.5609,10.5151,10.5303,10.5647,10.5265,10.5303,10.5609,10.5686,10.5686,10.5647,10.5647,10.5418,10.5112,10.4501,10.4081,10.3431,10.3164,10.3202,10.3202,10.324,10.3182,10.3313,10.3397,10.3377,10.3702,10.3783,10.3595,10.3406,10.3752,10.4048,10.435,10.4893,10.5454,10.5686,10.5446,10.5443,10.5287,10.5443,10.5326,10.5365,10.5287,10.4702,10.353,10.3023,10.2828,10.2789,10.2789,10.2789,10.2789,10.2789,10.2789,10.2828,10.2789,10.2789,10.275,10.232,10.2164,10.2047,10.1774,10.15,10.15,10.1774,10.2086,10.2164,10.2476,10.2789,10.2789,10.2789,10.2789,10.2789,10.2672,10.2711,10.2789,10.2789,10.275,10.2476,10.2476,10.2515,10.2515,10.2164,10.1813,10.1227,10.0954,10.0798,10.072,10.0329,9.9705,9.9275,9.8494,9.8612,9.8885,9.8807,9.869,9.9158,9.9705,9.99,10.0095,9.9978,9.9861,9.9588,9.9314,9.9041,9.8924,9.9119,9.9185,10.5686,10.5686,10.5686,10.5686,10.5686,10.5686,10.5686,10.5686,10.5686,10.5686,10.5686,10.5686,10.5609,10.5686,10.5686,10.5686,10.5686,10.5686,10.5686,10.5686,10.5686,10.5647,10.5533,10.538,10.4921,10.366,10.3775,10.3775,10.3737,10.3584,10.3947,10.3856,10.3908,10.4232,10.4244,10.4249,10.4289,10.4175,10.4522,10.4923,10.5517,10.6056,10.6506,10.6701,10.648,10.6341,10.6146,10.6263,10.638,10.5873,10.638,10.5834,10.4741,10.3726,10.3218,10.3257,10.3413,10.3491,10.353,10.3374,10.3335,10.3062,10.3023,10.2906,10.2867,10.275,10.2672,10.2672,10.2554,10.2554,10.275,10.2672,10.2672,10.275,10.275,10.2789,10.2789,10.2789,10.2789,10.2789,10.2789,10.2789,10.2789,10.2789,10.2789,10.2789,10.2789,10.2789,10.2789,10.2711,10.232,10.2164,10.1852,10.1344,10.1188,10.0993,10.0407,9.9588,9.8651,9.8807,9.9158,9.9353,9.9509,10.0212,10.0681,10.0837,10.0954,10.0915,10.0798,10.0563,10.0173,9.9744,9.9861,10.0251,10.0244,10.5686,10.5686,10.5686,10.5686,10.5686,10.5686,10.5686,10.5686,10.5686,10.5686,10.5686,10.5686,10.5686,10.5686,10.5686,10.5686,10.5686,10.5686,10.5686,10.5686,10.5686,10.5686,10.5686,10.5686,10.5456,10.5418,10.5151,10.5074,10.5112,10.5265,10.5056,10.5396,10.5448,10.5536,10.5669,10.5944,10.5443,10.5099,10.5562,10.6034,10.6122,10.6738,10.7316,10.7524,10.7161,10.7044,10.7239,10.7005,10.6927,10.7434,10.7005,10.6614,10.6107,10.5365,10.4975,10.4741,10.4702,10.4623,10.4663,10.4819,10.4545,10.4116,10.3804,10.3452,10.3062,10.2789,10.2789,10.2789,10.2789,10.2789,10.2789,10.2789,10.2789,10.2789,10.2789,10.2789,10.2789,10.2789,10.2789,10.2789,10.2789,10.2789,10.2789,10.2789,10.2789,10.2789,10.2789,10.2789,10.2789,10.2789,10.2672,10.2633,10.2633,10.2086,10.1578,10.1305,10.0915,10.0056,9.9353,9.9158,9.9509,9.9978,10.0446,10.111,10.15,10.1657,10.1735,10.1774,10.1618,10.1344,10.0876,10.0407,10.0681,10.0993,10.0759,10.5686,10.5686,10.5686,10.5686,10.5686,10.5686,10.5686,10.5686,10.5686,10.5686,10.5686,10.5686,10.5686,10.5686,10.5686,10.5686,10.5686,10.5686,10.5686,10.5686,10.5686,10.5686,10.5686,10.5686,10.5686,10.5686,10.5686,10.5686,10.5686,10.5647,10.5783,10.5886,10.5978,10.6074,10.6242,10.6287,10.6174,10.5946,10.6333,10.6686,10.66,10.7402,10.7833,10.7798,10.7669,10.7629,10.7786,10.7708,10.7551,10.7825,10.7629,10.7434,10.7239,10.6927,10.6302,10.5678,10.5482,10.5443,10.5443,10.5404,10.5131,10.4819,10.4428,10.396,10.3491,10.314,10.2828,10.2789,10.2789,10.2789,10.2789,10.2789,10.2789,10.2789,10.2789,10.2789,10.2789,10.2789,10.2789,10.2789,10.2789,10.2789,10.2789,10.2789,10.2789,10.2789,10.2789,10.2789,10.2789,10.2789,10.2789,10.2789,10.2789,10.2437,10.1813,10.1383,10.1071,10.0329,9.9744,9.9588,9.9822,10.0251,10.111,10.2008,10.2242,10.2281,10.2359,10.232,10.2203,10.2125,10.1852,10.1618,10.1657,10.1618,10.1383,10.5686,10.5686,10.5686,10.5686,10.5686,10.5686,10.5686,10.5686,10.5686,10.5636,10.5636,10.5587,10.5587,10.5536,10.5536,10.5536,10.5587,10.5636,10.5636,10.5686,10.5686,10.5686,10.5686,10.5686,10.5686,10.5686,10.5686,10.5686,10.5686,10.5686,10.5783,10.5878,10.5932,10.6068,10.6199,10.6322,10.6364,10.6446,10.6603,10.6918,10.7503,10.7962,10.8254,10.8254,10.8254,10.8176,10.802,10.7942,10.7903,10.7981,10.7942,10.7942,10.7981,10.802,10.7356,10.6224,10.5951,10.5912,10.599,10.6029,10.6068,10.5678,10.4858,10.4389,10.3882,10.3296,10.2789,10.2789,10.2789,10.2789,10.2789,10.2789,10.2789,10.2789,10.2789,10.2789,10.2789,10.2789,10.2789,10.2789,10.2789,10.2789,10.2789,10.2789,10.2789,10.2789,10.2789,10.2789,10.2789,10.2789,10.2789,10.2789,10.275,10.2593,10.2047,10.1305,10.0915,10.0368,9.9861,9.9588,10.0017,10.0485,10.1383,10.2164,10.2593,10.2593,10.275,10.2789,10.2593,10.2515,10.2711,10.2633,10.232,10.2281,10.2203,10.5686,10.5686,10.5686,10.5686,10.5686,10.5686,10.5686,10.5686,10.5686,10.5587,10.5485,10.5344,10.5201,10.504,10.504,10.5148,10.5292,10.5396,10.5536,10.5636,10.5686,10.5686,10.5686,10.5686,10.5686,10.5686,10.5686,10.5686,10.5686,10.5686,10.5734,10.5878,10.5924,10.6016,10.6156,10.6237,10.6322,10.6405,10.6603,10.7362,10.8449,10.8939,10.9095,10.9074,10.8996,10.8684,10.8137,10.802,10.802,10.802,10.802,10.802,10.802,10.802,10.7942,10.7747,10.7708,10.7708,10.7512,10.7395,10.7122,10.6497,10.5678,10.4936,10.4038,10.3296,10.2789,10.2789,10.2789,10.2789,10.2789,10.2789,10.2789,10.2789,10.2789,10.2789,10.2789,10.2789,10.2789,10.2789,10.2789,10.2789,10.2789,10.2789,10.2789,10.2789,10.2789,10.2789,10.2789,10.2789,10.2789,10.2789,10.2789,10.2633,10.2164,10.1422,10.0993,10.0485,9.9939,9.9666,10.029,10.0798,10.1188,10.1891,10.2359,10.275,10.2789,10.2789,10.2789,10.2789,10.2789,10.2789,10.275,10.2789,10.2789,10.5382,10.5686,10.5686,10.5686,10.5686,10.5686,10.5686,10.5686,10.5686,10.5587,10.5254,10.5002,10.4648,10.4297,10.4297,10.4571,10.4816,10.5056,10.5396,10.5636,10.5686,10.5686,10.5686,10.5686,10.5686,10.5686,10.5686,10.5686,10.5686,10.5724,10.5773,10.5821,10.5878,10.5971,10.6112,10.6156,10.6242,10.6563,10.7172,10.8211,10.9227,10.9702,10.97,10.9329,10.93,10.884,10.8254,10.802,10.802,10.802,10.802,10.802,10.802,10.802,10.7981,10.7981,10.7981,10.7942,10.7942,10.802,10.7747,10.7239,10.6185,10.4819,10.3687,10.3062,10.2789,10.2789,10.2789,10.2789,10.2789,10.2789,10.2789,10.2789,10.2789,10.2789,10.2789,10.2789,10.2789,10.2789,10.2789,10.2789,10.2789,10.2789,10.2789,10.2789,10.2789,10.2789,10.2789,10.2789,10.2789,10.2789,10.275,10.2711,10.2125,10.15,10.1266,10.0681,9.9783,9.9783,10.0603,10.1149,10.1383,10.1618,10.2008,10.2359,10.2633,10.2789,10.2789,10.2789,10.2789,10.2789,10.2789,10.2789,10.2796,10.4591,10.5163,10.5396,10.5485,10.5485,10.5485,10.5485,10.5485,10.5485,10.5292,10.4892,10.4475,10.3891,10.3571,10.3636,10.3954,10.4378,10.4648,10.511,10.5447,10.5636,10.5636,10.5686,10.5686,10.5686,10.5686,10.5686,10.5686,10.5762,10.5877,10.5991,10.5724,10.5783,10.5924,10.6023,10.615,10.6276,10.6948,10.7702,10.8792,10.9952,11.0221,11.0135,10.9912,10.9593,10.9191,10.8488,10.8371,10.8371,10.802,10.802,10.802,10.802,10.802,10.802,10.802,10.802,10.802,10.802,10.802,10.802,10.7473,10.638,10.4702,10.3179,10.2789,10.2789,10.2789,10.2789,10.2789,10.2789,10.2789,10.2789,10.2789,10.2789,10.2789,10.2789,10.2789,10.2789,10.2789,10.2789,10.2789,10.2789,10.2789,10.2789,10.2789,10.2789,10.2789,10.2789,10.2789,10.2789,10.2789,10.2789,10.275,10.2359,10.1813,10.15,10.1071,10.0134,10.0056,10.0954,10.1188,10.1188,10.1461,10.1696,10.1891,10.2125,10.2476,10.2789,10.2789,10.2789,10.2789,10.2789,10.2789,10.2789,10.305,10.3828,10.455,10.4856,10.4818,10.4856,10.4818,10.4818,10.478,10.4571,10.4078,10.3683,10.3144,10.2863,10.3037,10.3343,10.3802,10.4275,10.478,10.5148,10.5396,10.5536,10.5636,10.5686,10.5686,10.5686,10.5686,10.5686,10.5877,10.6373,10.6182,10.5838,10.6117,10.5992,10.617,10.6573,10.7049,10.7681,10.8328,10.9298,11.0302,11.0688,11.0645,11.1071,11.0704,11.005,10.9269,10.9113,10.8684,10.8098,10.802,10.802,10.802,10.802,10.802,10.802,10.802,10.802,10.802,10.802,10.7942,10.7473,10.638,10.4663,10.3023,10.2789,10.2789,10.2789,10.2789,10.2789,10.2789,10.2789,10.2789,10.2789,10.2789,10.2789,10.2789,10.2789,10.2789,10.2789,10.2789,10.2789,10.2789,10.2789,10.2789,10.2789,10.2789,10.2789,10.2789,10.2789,10.2789,10.2789,10.2789,10.275,10.2672,10.2203,10.15,10.1422,10.1032,10.1032,10.1461,10.1422,10.0915,10.1071,10.1266,10.1461,10.1735,10.2281,10.2711,10.275,10.2789,10.2789,10.2789,10.2789,10.2789,10.2291,10.3107,10.3418,10.3711,10.3978,10.3526,10.3564,10.3903,10.3526,10.2949,10.2534,10.2459,10.2314,10.2163,10.2239,10.261,10.3,10.3514,10.4115,10.4648,10.5056,10.5306,10.5498,10.5686,10.5686,10.5686,10.5686,10.5686,10.58,10.6603,10.6717,10.6603,10.6946,10.7361,10.7588,10.7615,10.8287,10.899,10.9532,11.0292,11.1243,11.1686,11.1627,11.144,11.1523,11.0549,10.9542,10.9308,10.8762,10.8254,10.8059,10.802,10.802,10.802,10.802,10.802,10.802,10.802,10.802,10.7903,10.7551,10.6419,10.5678,10.4663,10.3023,10.2789,10.2789,10.2789,10.2789,10.2789,10.2789,10.2789,10.2789,10.2789,10.2789,10.2789,10.2789,10.2789,10.2789,10.2789,10.2789,10.2789,10.2789,10.2789,10.2789,10.2789,10.2789,10.2789,10.2789,10.2789,10.2789,10.2789,10.2789,10.2789,10.275,10.2125,10.1383,10.1578,10.1774,10.1696,10.1618,10.0915,10.0563,10.072,10.0876,10.1071,10.15,10.2242,10.2633,10.275,10.2789,10.2789,10.2789,10.2789,10.2789,10.0981,10.1907,10.1685,10.2273,10.3193,10.2707,10.2781,10.3156,10.2781,10.2105,10.1537,10.1865,10.1812,10.1654,10.1734,10.2009,10.2574,10.2967,10.3738,10.4297,10.4798,10.5163,10.5498,10.5686,10.5686,10.5686,10.5686,10.5686,10.5762,10.6755,10.7214,10.7634,10.8284,10.8776,10.8477,10.8854,10.9371,11.0107,11.0458,11.096,11.1864,11.1948,11.2188,11.1741,11.1812,11.1329,11.0362,10.9972,10.9308,10.8644,10.8215,10.802,10.802,10.802,10.802,10.802,10.802,10.802,10.802,10.7864,10.72,10.5912,10.5521,10.4467,10.3335,10.2789,10.2789,10.2789,10.2789,10.2789,10.2789,10.2789,10.2789,10.2789,10.2789,10.2789,10.2789,10.2789,10.2789,10.2789,10.2789,10.2789,10.2789,10.2789,10.2789,10.2789,10.2789,10.2789,10.2789,10.2789,10.2789,10.2789,10.2789,10.2789,10.275,10.2047,10.15,10.1969,10.2047,10.1696,10.1422,10.0759,10.0368,10.0524,10.0681,10.0798,10.1383,10.2203,10.2554,10.2789,10.2789,10.2789,10.2789,10.2789,10.2789,9.9003,10.0136,9.9627,10.0681,10.261,10.2647,10.261,10.2647,10.2573,10.2278,10.1828,10.1817,10.1734,10.1574,10.1654,10.1854,10.2163,10.2684,10.3418,10.4054,10.4475,10.5056,10.5498,10.5686,10.5686,10.5686,10.5686,10.5686,10.5724,10.7214,10.7863,10.8475,10.9328,10.9886,10.8784,10.8854,10.9406,11.0098,11.0333,11.0957,11.1534,11.1584,11.1856,11.2172,11.2137,11.1749,11.1251,11.0518,10.9855,10.9113,10.8293,10.8059,10.802,10.802,10.802,10.802,10.802,10.802,10.802,10.802,10.7083,10.5756,10.5404,10.4584,10.3257,10.2789,10.2789,10.2789,10.2789,10.2789,10.2789,10.2789,10.2789,10.2789,10.2789,10.2789,10.2789,10.2789,10.2789,10.2789,10.2789,10.2789,10.2789,10.2789,10.2789,10.2789,10.2789,10.2789,10.2789,10.2789,10.2789,10.2789,10.2789,10.2789,10.2633,10.1969,10.1696,10.2203,10.2281,10.1891,10.1422,10.0876,10.0603,10.0524,10.0485,10.0642,10.1383,10.2203,10.2515,10.2789,10.2789,10.2789,10.2789,10.2789,10.2789,9.8814,10.0283,10.0026,10.0661,10.167,10.0712,10.0859,10.1743,10.1854,10.1518,10.1145,10.136,10.1574,10.1574,10.1574,10.1617,10.1776,10.2163,10.2897,10.3764,10.4176,10.4947,10.5447,10.5636,10.5686,10.5686,10.5686,10.5686,10.5724,10.7367,10.8054,10.8628,10.9951,11.0596,11.0479,11.0468,11.0868,11.1021,11.1098,11.134,11.1732,11.177,11.1986,11.255,11.2509,11.2382,11.1857,11.1047,11.0167,10.9386,10.8566,10.8059,10.802,10.802,10.802,10.802,10.802,10.802,10.802,10.7864,10.7161,10.6068,10.5365,10.4702,10.314,10.2828,10.2789,10.2789,10.2828,10.2828,10.2789,10.2789,10.2789,10.2789,10.2789,10.2789,10.2789,10.2789,10.2789,10.2789,10.2789,10.2789,10.2789,10.2789,10.2789,10.2789,10.2789,10.2789,10.2789,10.2789,10.2789,10.2789,10.2789,10.2789,10.2593,10.2086,10.2008,10.2437,10.2359,10.1969,10.1461,10.111,10.1071,10.1071,10.0759,10.0563,10.1461,10.2281,10.2593,10.2789,10.2789,10.2789,10.2789,10.2789,10.2789,9.8264,9.9402,9.9438,9.9916,10.0503,9.9842,10.0172,10.1053,10.1347,10.1164,10.0907,10.131,10.1494,10.1494,10.1494,10.1494,10.1574,10.1932,10.25,10.3439,10.3929,10.4628,10.5292,10.5587,10.5636,10.5636,10.5686,10.5724,10.58,10.7405,10.8513,10.9404,11.0356,11.0874,11.1016,11.1198,11.1406,11.1406,11.1406,11.1491,11.1848,11.2062,11.2359,11.2608,11.2815,11.3021,11.2124,11.1193,11.0284,10.9581,10.8801,10.8098,10.8059,10.802,10.802,10.802,10.802,10.802,10.802,10.802,10.7278,10.6146,10.5873,10.5131,10.3921,10.3569,10.3374,10.3257,10.3023,10.2828,10.2789,10.2789,10.2789,10.2789,10.2867,10.2867,10.3179,10.3218,10.3101,10.3062,10.2828,10.2828,10.2789,10.2789,10.2789,10.2789,10.2789,10.2789,10.2789,10.2789,10.2789,10.2789,10.2789,10.2789,10.2711,10.2437,10.2476,10.275,10.2515,10.2164,10.2008,10.1696,10.1696,10.1618,10.1305,10.1266,10.1813,10.2398,10.2672,10.2789,10.2789,10.2789,10.2789,10.2789,10.2789,9.7199,9.7823,9.7897,9.8447,9.9181,9.9916,10.0283,10.0356,10.1164,10.1457,10.1457,10.142,10.1494,10.1494,10.1494,10.1494,10.1574,10.1891,10.2463,10.307,10.3608,10.4395,10.4947,10.5344,10.5536,10.5636,10.5686,10.5724,10.5877,10.7137,10.8704,11.0054,11.0547,11.0874,11.1093,11.1352,11.1478,11.1522,11.1522,11.1568,11.1731,11.25,11.255,11.2708,11.3062,11.3278,11.2539,11.1523,11.0861,11.005,10.9152,10.8488,10.8137,10.8098,10.8098,10.8059,10.8137,10.802,10.802,10.802,10.7708,10.6888,10.6771,10.6185,10.5365,10.4428,10.4116,10.3765,10.3452,10.3062,10.2828,10.2789,10.2789,10.2867,10.2945,10.3257,10.3726,10.3765,10.3648,10.3452,10.3023,10.2906,10.2828,10.2789,10.2945,10.2789,10.2789,10.2789,10.2789,10.2789,10.2789,10.2789,10.2789,10.2789,10.2672,10.2593,10.2633,10.2789,10.2789,10.2554,10.2398,10.2203,10.2008,10.1852,10.1774,10.193,10.232,10.2554,10.2711,10.2789,10.2789,10.2789,10.2789,10.2789,10.2789,9.7163,9.786,9.7897,9.8337,9.9181,9.9952,9.9989,9.9659,10.0833,10.1494,10.1494,10.1494,10.1494,10.1494,10.1494,10.1494,10.1574,10.1812,10.2202,10.2754,10.3313,10.3991,10.4533,10.5002,10.5306,10.5587,10.5686,10.5724,10.5915,10.6946,10.8207,10.9468,11.0165,11.053,11.0978,11.1352,11.1478,11.1522,11.1522,11.1526,11.184,11.2581,11.2534,11.2608,11.3333,11.3418,11.2727,11.1913,11.1368,11.1065,11.0323,10.9777,10.9777,10.9777,10.9659,10.8879,10.8449,10.802,10.802,10.802,10.7864,10.7629,10.7551,10.6693,10.5873,10.5209,10.478,10.435,10.3843,10.3452,10.2945,10.2789,10.2789,10.2828,10.3101,10.3726,10.4194,10.4467,10.4311,10.3999,10.3569,10.3335,10.3218,10.314,10.3257,10.2945,10.2867,10.2984,10.2867,10.2906,10.2789,10.2789,10.2789,10.2789,10.2789,10.2711,10.275,10.2789,10.2789,10.275,10.2593,10.2398,10.2242,10.2203,10.2203,10.2398,10.2672,10.2789,10.2789,10.2789,10.2789,10.2789,10.2789,10.2789,10.2789,9.6979,9.7383,9.7419,9.7713,9.8227,9.8998,9.9035,9.8998,10.065,10.1494,10.1494,10.1494,10.1494,10.1494,10.1494,10.1494,10.1494,10.1734,10.2086,10.2427,10.2863,10.3673,10.4237,10.4704,10.5201,10.5498,10.5686,10.5686,10.5915,10.6603,10.7787,10.9315,10.9667,11.0261,11.0901,11.1352,11.1478,11.1522,11.1522,11.1526,11.1953,11.2652,11.2697,11.2445,11.3318,11.3467,11.2814,11.2112,11.1876,11.1689,11.0948,11.0518,11.0479,11.044,11.0089,10.9347,10.8918,10.8371,10.8137,10.802,10.802,10.802,10.7981,10.7239,10.6575,10.5912,10.5404,10.4897,10.4311,10.3804,10.3257,10.2789,10.2789,10.2789,10.3491,10.4194,10.4623,10.5053,10.4936,10.4623,10.435,10.4077,10.3921,10.3804,10.3843,10.4038,10.4155,10.4194,10.3765,10.3218,10.2984,10.2789,10.2789,10.2789,10.2828,10.2867,10.2789,10.2789,10.2789,10.275,10.2672,10.2633,10.2515,10.2593,10.2711,10.2789,10.2789,10.2789,10.2789,10.2789,10.2789,10.2789,10.2789,10.2789,10.2789,9.6722,9.6722,9.6722,9.6795,9.6832,9.764,9.797,9.8154,10.0246,10.1274,10.12,10.131,10.131,10.1237,10.1384,10.1494,10.1574,10.1654,10.1812,10.2086,10.2538,10.3313,10.3991,10.4513,10.5002,10.5447,10.5686,10.5686,10.5915,10.6412,10.7367,10.9124,10.9294,10.9704,11.0364,11.0699,11.0906,11.1137,11.1214,11.1291,11.1868,11.268,11.3342,11.2426,11.3189,11.3994,11.2853,11.2212,11.1885,11.165,11.1338,11.0909,11.0948,11.0518,11.0089,10.9503,10.9113,10.8566,10.8137,10.802,10.802,10.802,10.7981,10.7434,10.6849,10.6458,10.5951,10.4936,10.4233,10.3687,10.3101,10.2867,10.2789,10.314,10.3765,10.4467,10.5014,10.5443,10.5678,10.5365,10.5053,10.4819,10.4741,10.4623,10.4545,10.5053,10.5131,10.5092,10.4819,10.396,10.3687,10.3335,10.3179,10.3218,10.3101,10.3062,10.2828,10.2789,10.2789,10.2789,10.275,10.275,10.2789,10.2789,10.2789,10.2789,10.2789,10.2789,10.2789,10.2789,10.2789,10.2789,10.2789,10.2789,10.2789,9.6722,9.6722,9.6722,9.6722,9.6795,9.753,9.7897,9.8007,9.9108,9.9695,9.9805,10.0283,10.0613,10.0723,10.131,10.1494,10.1574,10.1574,10.1574,10.1776,10.2163,10.2967,10.37,10.4237,10.4892,10.5447,10.5686,10.5724,10.5915,10.6182,10.6488,10.7531,10.8031,10.8746,10.9628,10.9892,11.0094,11.0748,11.0829,11.1098,11.1675,11.2218,11.2611,11.2387,11.3009,11.3368,11.2705,11.2671,11.2682,11.2696,11.2626,11.2509,11.247,11.1221,11.0518,11.005,10.9113,10.8488,10.8137,10.802,10.802,10.802,10.7903,10.7434,10.7044,10.681,10.6146,10.4975,10.4116,10.3569,10.3101,10.2906,10.2867,10.3413,10.4116,10.478,10.5443,10.5912,10.6341,10.6146,10.5795,10.5678,10.5599,10.5521,10.5404,10.5404,10.5365,10.5365,10.5482,10.5092,10.517,10.478,10.3999,10.3843,10.3608,10.3179,10.2906,10.2789,10.2789,10.2789,10.2789,10.2789,10.2789,10.2789,10.2789,10.2789,10.2789,10.2789,10.2789,10.2789,10.2789,10.2789,10.2789,10.2789,10.2789,9.6722,9.6722,9.6722,9.6722,9.6795,9.7199,9.7346,9.7456,9.786,9.8043,9.8337,9.9512,10.0283,10.0429,10.1127,10.1494,10.1494,10.1494,10.1574,10.1654,10.2009,10.2717,10.3373,10.4054,10.4836,10.5447,10.5674,10.58,10.6106,10.6373,10.6755,10.7646,10.7983,10.8278,10.9236,10.9489,10.9661,11.0666,11.0551,11.094,11.1517,11.2099,11.2299,11.2234,11.2492,11.2763,11.2699,11.2679,11.289,11.3006,11.2959,11.2626,11.2314,11.1572,11.0948,11.0284,10.9386,10.841,10.8137,10.802,10.802,10.802,10.802,10.759,10.6263,10.5951,10.556,10.4545,10.4233,10.3726,10.3101,10.2789,10.2789,10.314,10.4389,10.5443,10.6302,10.7044,10.7278,10.72,10.6966,10.6927,10.6888,10.6927,10.681,10.681,10.6614,10.6458,10.6458,10.6185,10.6302,10.6068,10.517,10.435,10.3921,10.3374,10.2828,10.2789,10.2867,10.2789,10.2789,10.2789,10.2789,10.2789,10.2789,10.2789,10.2789,10.2789,10.2789,10.2789,10.2789,10.2789,10.2789,10.2789,10.2789,9.6722,9.6722,9.6722,9.6722,9.6722,9.6722,9.6722,9.6759,9.6759,9.6759,9.7089,9.9035,9.9916,10.0393,10.109,10.1347,10.1494,10.1494,10.1494,10.1654,10.1969,10.2717,10.3439,10.4054,10.4836,10.5396,10.5674,10.622,10.6717,10.687,10.7367,10.8792,10.8995,10.894,10.9945,11.0002,10.9681,11.0456,11.077,11.1083,11.1671,11.2137,11.1991,11.2116,11.2347,11.26,11.2389,11.2425,11.2697,11.2875,11.2982,11.2744,11.2218,11.1632,11.1065,11.0362,10.9386,10.8566,10.8176,10.802,10.802,10.802,10.802,10.7317,10.599,10.5287,10.4897,10.4311,10.3999,10.3687,10.3062,10.2789,10.2789,10.3101,10.4584,10.6068,10.7044,10.7864,10.7903,10.7942,10.7903,10.7864,10.7864,10.7903,10.7942,10.7981,10.802,10.802,10.7825,10.7395,10.7239,10.6771,10.6029,10.5248,10.4623,10.3726,10.314,10.3062,10.3101,10.2945,10.2789,10.2789,10.2789,10.2789,10.2789,10.2789,10.2789,10.2789,10.2789,10.2789,10.2789,10.2789,10.2789,10.2789,10.2789,9.6722,9.6722,9.6722,9.6722,9.6722,9.6722,9.6722,9.6722,9.6722,9.6722,9.7016,9.7713,9.8668,9.9402,10.0907,10.1457,10.1494,10.1494,10.1494,10.1574,10.1969,10.2717,10.3505,10.4176,10.4836,10.5344,10.5762,10.622,10.7023,10.7099,10.7443,10.8551,10.7809,10.7945,10.8595,10.8691,10.8822,10.9904,11.0609,11.0731,11.1275,11.1632,11.168,11.1727,11.1809,11.2039,11.2101,11.2359,11.2541,11.2697,11.2788,11.2709,11.2175,11.1406,11.0764,11.0128,10.9152,10.8488,10.8059,10.802,10.802,10.802,10.7825,10.7239,10.6146,10.5404,10.4702,10.3452,10.3179,10.3179,10.2789,10.2789,10.2828,10.3452,10.4545,10.6146,10.7434,10.7825,10.7981,10.7981,10.7981,10.7942,10.7942,10.7981,10.7981,10.802,10.802,10.802,10.802,10.802,10.802,10.7434,10.6771,10.6614,10.6146,10.4467,10.3687,10.3569,10.3296,10.2984,10.2789,10.2789,10.2789,10.2789,10.2789,10.2789,10.2789,10.2789,10.2789,10.2789,10.2789,10.2789,10.2789,10.2789,10.2789]},{"header":{"parameterUnit":"m.s-1","parameterCategory":1,"la1":31.0,"la2":29.5877,"lo1":-88.7671,"lo2":-86.6584,"dy":0.0162,"dx":0.0185,"nx":115,"ny":88,"refTime":"2026-04-14T12:00:00:Z","depth":0,"parameterNumber":3,"parameterNumberName":"V-component_of_WINDS"},"data":[0.0,0.0,0.0,0.0,0.0,0.0,0.0,0.0,0.0,0.0,0.0,0.0,0.0,0.0,0.0,0.0,0.0,0.0,0.0,0.0,0.0,0.0,0.0,0.0,0.0,0.0,0.0,0.0,0.0,0.0,0.0,0.0,0.0,0.0,0.0,0.0,0.0,0.0,0.0,0.0,0.0,0.0,0.0,0.0,0.0,0.0,0.0,0.0,0.0,0.0,0.0,0.0,0.0,0.0,0.0,0.0,0.0,0.0,0.0,0.0,0.0,0.0,0.0,0.0,0.0,0.0,0.0,0.0,0.0,0.0,0.0,0.0,0.0,0.0,0.0,0.0,0.0,0.0,0.0,0.0,0.0,0.0,0.0,0.0,0.0,0.0,0.0,0.0,0.0,0.0,0.0,0.0,0.0,0.0,0.0,0.0,0.0,0.0,0.0,0.0,0.0,0.0,0.0,0.0,0.0,0.0,0.0,0.0,0.0,0.0,0.0,0.0,0.0,0.0,0.0,0.0,0.0,0.0,0.0,0.0,0.0,0.0,0.0,0.0,0.0,0.0,0.0,0.0,0.0,0.0,0.0,0.0,0.0,0.0,0.0,0.0,0.0,0.0,0.0,0.0,0.0,0.0,0.0,0.0,0.0,0.0,0.0,0.0,0.0,0.0,0.0,0.0,0.0,0.0,0.0,0.0,0.0,0.0,0.0,0.0,0.0,0.0,0.0,0.0,0.0,0.0,0.0,0.0,0.0,0.0,0.0,0.0,0.0,0.0,0.0,0.0,0.0,0.0,0.0,0.0,0.0,0.0,0.0,0.0,0.0,0.0,0.0,0.0,0.0,0.0,0.0,0.0,0.0,0.0,0.0,0.0,0.0,0.0,0.0,0.0,0.0,0.0,0.0,0.0,0.0,0.0,0.0,0.0,0.0,0.0,0.0,0.0,0.0,0.0,0.0,0.0,0.0,0.0,0.0,0.0,0.0,0.0,0.0,0.0,0.0,0.0,0.0,0.0,0.0,0.0,0.0,0.0,0.0,0.0,0.0,0.0,0.0,0.0,0.0,0.0,0.0,0.0,0.0,0.0,0.0,0.0,0.0,0.0,0.0,0.0,0.0,0.0,0.0,0.0,0.0,0.0,0.0,0.0,0.0,0.0,0.0,0.0,0.0,0.0,0.0,0.0,0.0,0.0,0.0,0.0,0.0,0.0,0.0,0.0,0.0,0.0,0.0,0.0,0.0,0.0,0.0,0.0,0.0,0.0,0.0,0.0,0.0,0.0,0.0,0.0,0.0,0.0,0.0,0.0,0.0,0.0,0.0,0.0,0.0,0.0,0.0,0.0,0.0,0.0,0.0,0.0,0.0,0.0,0.0,0.0,0.0,0.0,0.0,0.0,0.0,0.0,0.0,0.0,0.0,0.0,0.0,0.0,0.0,0.0,0.0,0.0,0.0,0.0,0.0,0.0,0.0,0.0,0.0,0.0,0.0,0.0,0.0,0.0,0.0,0.0,0.0,0.0,0.0,0.0,0.0,0.0,0.0,0.0,0.0,0.0,0.0,0.0,0.0,0.0,0.0,0.0,0.0,0.0,0.0,0.0,0.0,0.0,0.0,0.0,0.0,0.0,0.0,0.0,0.0,0.0,0.0,0.0,0.0,0.0,0.0,0.0,0.0,0.0,0.0,0.0,0.0,0.0,0.0,0.0,0.0,0.0,0.0,0.0,0.0,0.0,0.0,0.0,0.0,0.0,0.0,0.0,0.0,0.0,0.0,0.0,0.0,0.0,0.0,0.0,0.0,0.0,0.0,0.0,0.0,0.0,0.0,0.0,0.0,0.0,0.0,0.0,0.0,0.0,0.0,0.0,0.0,0.0,0.0,0.0,0.0,0.0,0.0,0.0,0.0,0.0,0.0,0.0,0.0,0.0,0.0,0.0,0.0,0.0,0.0,0.0,0.0,0.0,0.0,0.0,0.0,0.0,0.0,0.0,0.0,0.0,0.0,0.0,0.0,0.0,0.0,0.0,0.0,0.0,0.0,0.0,0.0,0.0,0.0,0.0,0.0,0.0,0.0,0.0,0.0,0.0,0.0,0.0,0.0,0.0,0.0,0.0,0.0,0.0,0.0,0.0,0.0,0.0,0.0,0.0,0.0,0.0,0.0,0.0,0.0,0.0,0.0,0.0,0.0,0.0,0.0,0.0,0.0,0.0,0.0,0.0,0.0,0.0,0.0,0.0,0.0,0.0,0.0,0.0,0.0,0.0,0.0,0.0,0.0,0.0,0.0,0.0,0.0,0.0,0.0,0.0,0.0,0.0,0.0,0.0,0.0,0.0,0.0,0.0,0.0,0.0,0.0,0.0,0.0,0.0,0.0,0.0,0.0,0.0,0.0,0.0,0.0,0.0,0.0,0.0,0.0,0.0,0.0,0.0,0.0,0.0,0.0,0.0,0.0,0.0,0.0,0.0,0.0,0.0,0.0,0.0,0.0,0.0,0.0,0.0,0.0,0.0,0.0,0.0,0.0,0.0,0.0,0.0,0.0,0.0,0.0,0.0,0.0,0.0,0.0,0.0,0.0,0.0,0.0,0.0,0.0,0.0,0.0,0.0,0.0,0.0,0.0,0.0,0.0,0.0,0.0,0.0,0.0,0.0,0.0,0.0,0.0,0.0,0.0,0.0,0.0,0.0,0.0,0.0,0.0,0.0,0.0,0.0,0.0,0.0,0.0,0.0,0.0,0.0,0.0,0.0,0.0,0.0,0.0,0.0,0.0,0.0,0.0,0.0,0.0,0.0,0.0,0.0,0.0,0.0,0.0,0.0,0.0,0.0,0.0,0.0,0.0,0.0,0.0,0.0,0.0,0.0,0.0,0.0,0.0,0.0,0.0,0.0,0.0,0.0,0.0,0.0,0.0,0.0,0.0,0.0,0.0,0.0,0.0,0.0,0.0,0.0,0.0,0.0,0.0,0.0,0.0,0.0,0.0,0.0,0.0,0.0,0.0,0.0,0.0,0.0,0.0,0.0,0.0,0.0,0.0,0.0,0.0,0.0,0.0,0.0,0.0,0.0,0.0,0.0,0.0,0.0,0.0,0.0,0.0,0.0,0.0,0.0,0.0,0.0,0.0,0.0,0.0,0.0,0.0,0.0,0.0,0.0,0.0,0.0,0.0,0.0,0.0,0.0,0.0,0.0,0.0,0.0,0.0,0.0,0.0,0.0,0.0,0.0,0.0,0.0,0.0,0.0,0.0,0.0,0.0,0.0,0.0,0.0,0.0,0.0,0.0,0.0,0.0,0.0,0.0,0.0,0.0,0.0,0.0,0.0,0.0,0.0,0.0,0.0,0.0,0.0,0.0,0.0,0.0,0.0,0.0,0.0,0.0,0.0,0.0,0.0,0.0,0.0,0.0,0.0,0.0,0.0,0.0,0.0,0.0,0.0,0.0,0.0,0.0,0.0,0.0,0.0,0.0,0.0,0.0,0.0,0.0,0.0,0.0,0.0,0.0,0.0,0.0,0.0,0.0,0.0,0.0,0.0,0.0,0.0,0.0,0.0,0.0,0.0,0.0,0.0,0.0,0.0,0.0,0.0,0.0,0.0,0.0,0.0,0.0,0.0,0.0,0.0,0.0,0.0,0.0,0.0,0.0,0.0,0.0,0.0,0.0,0.0,0.0,0.0,0.0,0.0,0.0,0.0,0.0,0.0,0.0,0.0,0.0,0.0,0.0,0.0,0.0,0.0,0.0,0.0,0.0,0.0,0.0,0.0,0.0,0.0,0.0,0.0,0.0,0.0,0.0,0.0,0.0,0.0,0.0,0.0,0.0,0.0,0.0,0.0,0.0,0.0,0.0,0.0,0.0,0.0,0.0,0.0,0.0,0.0,0.0,0.0,0.0,0.0,0.0,0.0,0.0,0.0,0.0,0.0,0.0,0.0,0.0,0.0,0.0,0.0,0.0,0.0,0.0,0.0,0.0,0.0,0.0,0.0,0.0,0.0,0.0,0.0,0.0,0.0,0.0,0.0,0.0,0.0,0.0,0.0,0.0,0.0,0.0,0.0,0.0,0.0,0.0,0.0,0.0,0.0,0.0,0.0,0.0,0.0,0.0,0.0,0.0,0.0,0.0,0.0,0.0,0.0,0.0,0.0,0.0,0.0,0.0,0.0,0.0,0.0,0.0,0.0,0.0,0.0,0.0,0.0,0.0,0.0,0.0,0.0,0.0,0.0,0.0,0.0,0.0,0.0,0.0,0.0,0.0,0.0,0.0,0.0,0.0,0.0,0.0,0.0,0.0,0.0,0.0,0.0,0.0,0.0,0.0,0.0,0.0,0.0,0.0,0.0,0.0,0.0,0.0,0.0,0.0,0.0,0.0,0.0,0.0,0.0,0.0,0.0,0.0,0.0,0.0,0.0,0.0,0.0,0.0,0.0,0.0,0.0,0.0,0.0,0.0,0.0,0.0,0.0,0.0,0.0,0.0,0.0,0.0,0.0,0.0,0.0,0.0,0.0,0.0,0.0,0.0,0.0,0.0,0.0,0.0,0.0,0.0,0.0,0.0,0.0,0.0,0.0,0.0,0.0,0.0,0.0,0.0,0.0,0.0,0.0,0.0,0.0,0.0,0.0,0.0,0.0,0.0,0.0,0.0,0.0,0.0,0.0,0.0,0.0,0.0,0.0,0.0,0.0,0.0,0.0,0.0,0.0,0.0,0.0,0.0,0.0,0.0,0.0,0.0,0.0,0.0,0.0,0.0,0.0,0.0,0.0,0.0,0.0,0.0,0.0,0.0,0.0,0.0,0.0,0.0,0.0,0.0,0.0,0.0,0.0,0.0,0.0,0.0,0.0,0.0,0.0,0.0,0.0,0.0,0.0,0.0,0.0,0.0,0.0,0.0,0.0,0.0,0.0,0.0,0.0,0.0,0.0,0.0,0.0,0.0,0.0,0.0,0.0,0.0,0.0,0.0,0.0,0.0,0.0,0.0,0.0,0.0,0.0,0.0,0.0,0.0,0.0,0.0,0.0,0.0,0.0,0.0,0.0,0.0,0.0,0.0,0.0,0.0,0.0,0.0,0.0,0.0,0.0,0.0,0.0,0.0,0.0,0.0,0.0,0.0,0.0,0.0,0.0,0.0,0.0,0.0,0.0,0.0,0.0,0.0,0.0,0.0,0.0,0.0,0.0,0.0,0.0,0.0,0.0,0.0,0.0,0.0,0.0,0.0,0.0,0.0,0.0,0.0,0.0,0.0,0.0,0.0,0.0,0.0,0.0,0.0,0.0,0.0,0.0,0.0219,0.011,0.0,0.0,0.0,0.0,0.0,0.0,0.0,0.0,0.0,0.0,0.0,0.0,0.0,0.0,0.0,0.0,0.0,0.0,0.0,0.0,0.0,0.0,0.0,0.0,0.0,0.0,0.0,0.0,0.0,0.0,0.0,0.0,0.0,0.0,0.0,0.0,0.0,0.0,0.0,0.0,0.0,0.0,0.0,0.0,0.0,0.0,0.0,0.0,0.0,0.0,0.0,0.0,0.0,0.0,0.0,0.0,0.0,0.0,0.0,0.0,0.0,0.0,0.0,0.0,0.0,0.0,0.0,0.0,0.0,0.0,0.0,0.0,0.0,0.0,0.0,0.0,0.0,0.0,0.0,0.0,0.0,0.0,0.0,0.0,0.0,0.0,0.0,0.0,0.0,0.0,0.0,0.0,0.0,0.0,0.0,0.0,0.0,0.0,0.0,0.0,0.0,0.0,0.0,0.0,0.0,0.0,0.0,0.0,0.0,0.0,0.0,0.1059,0.0952,0.0929,0.0,0.0,0.0,0.0,0.0,0.0,0.0,0.0,0.0,0.0,0.0,0.0,0.0,0.0,0.0,0.0,0.0,0.0,0.0,0.0,0.0,0.0,0.0,0.0,0.0,0.0,0.0,0.0,0.0,0.0,0.0,0.0,0.0,0.0,0.0,0.0,0.0,0.0,0.0,0.0,0.0,0.0,0.0,0.0,0.0,0.0,0.0,0.0,0.0,0.0,0.0,0.0,0.0,0.0,0.0,0.0,0.0,0.0,0.0,0.0,0.0,0.0,0.0,0.0,0.0,0.0,0.0,0.0,0.0,0.0,0.0,0.0,0.0,0.0,0.0,0.0,0.0,0.0,0.0,0.0,0.0,0.0,0.0,0.0,0.0,0.0,0.0,0.0,0.0,0.0,0.0,0.0,0.0,0.0,0.0,0.0,0.0,0.0,0.0,0.0,0.0,0.0,0.0,0.0,0.0,0.0,0.0,0.0,0.0,0.0,0.0,0.0,0.0,0.1713,0.1543,0.1254,0.0,0.0,0.0,0.0,0.0,0.0,0.0,0.0,0.0,0.0,0.0,0.0,0.0,0.0,0.0,0.0,0.0,0.0,0.0,0.0,0.0,0.0,0.0,0.0,0.0,0.0,0.0,0.0,0.0,0.0,0.0,0.0,0.0,0.0,0.0,0.0,0.0,0.0,0.0,0.0,0.0,0.0,0.0,0.0,0.0,0.0,0.0,0.0,0.0,0.0,0.0,0.0,0.0,0.0,0.0,0.0,0.0,0.0,0.0,0.0,0.0,0.0,0.0,0.0,0.0,0.0,0.0,0.0,0.0,0.0,0.0,0.0,0.0,0.0,0.0,0.0,0.0,0.0,0.0,0.0,0.0,0.0,0.0,0.0,0.0,0.0,0.0,0.0,0.0,0.0,0.0,0.0,0.0,0.0,0.0,0.0,0.0,0.0,0.0,0.0,0.0,0.0,0.0,0.0,0.0,0.0,0.0,0.0,0.0,0.0,0.2077,0.0,0.2099,0.1918,0.1724,0.1631,0.0,0.0,0.0,0.0,0.0,0.0,0.0,0.0,0.0,0.0,0.0,0.0,0.0,0.0,0.0,0.0,0.0,0.0,0.0,0.0,0.0,0.0,0.0,0.0,0.0,0.0,0.0,0.0,0.0,0.0,0.0,0.0,0.0,0.0,0.0,0.0,0.0,0.0,0.0,0.0,0.0,0.0,0.0,0.0,0.0,0.0,0.0,0.0,0.0,0.0,0.0,0.0,0.0,0.0,0.0,0.0,0.0,0.0,0.0,0.0,0.0,0.0,0.0,0.0,0.0,0.0,0.0,0.0,0.0,0.0,0.0,0.0,0.0,0.0,0.0,0.0,0.0,0.0,0.0,0.0,0.0,0.0,0.0,0.0,0.0,0.0,0.0,0.0,0.0,0.0,0.0,0.0,0.0,0.0,0.0,0.0,0.0,0.0,0.0,0.0,0.0,0.0,0.0,0.0,0.0,0.0,0.0,0.0,0.0,0.2012,0.2033,0.1978,0.1917,0.1829,0.0,0.0,0.0,0.0,0.0,0.0,0.0,0.0,0.0,0.0,0.0,0.0,0.0,0.0,0.0,0.0,0.0,0.0,0.0,0.0,0.0,0.0,0.0,0.0,0.0,0.0,0.0,0.0,0.0,0.0,0.0,0.0,0.0,0.0,0.0,0.0,0.0,0.0,0.0,0.0,0.0,0.0,0.0,0.0,0.0,0.0,0.0,0.0,0.0,0.0,0.0,0.0,0.0,0.0,0.0,0.0,0.0,0.0,0.0,0.0,0.0,0.0,0.0,0.0,0.0,0.0,0.0,0.0,0.0,0.0,0.0,0.0,0.0,0.0,0.0,0.0,0.0,0.0,0.0,0.0,0.0,0.0,0.0,0.0,0.0,0.0,0.0,0.0,0.0,0.0,0.0,0.0,0.0,0.0,0.0,0.0,0.0,0.0,0.0,0.0,0.0,0.0,0.0,0.0,0.0,0.0,0.0,0.0,0.0,0.1904,0.2115,0.2144,0.21,0.2018,0.1931,0.0,0.0,0.0,0.0,0.0,0.0,0.0,0.0,0.0,0.0,0.0,0.0,0.0,0.0,0.0,0.0,0.0,0.0,0.0,0.0,0.0,0.0,0.0,0.0,0.0,0.0,0.0,0.0,0.0,0.0,0.0,0.0,0.0,0.0,0.0,0.0,0.0,0.0,0.0,0.0,0.0,0.0,0.0,0.0,0.0,0.0,0.0,0.0,0.0,0.0,0.0,0.0,0.0,0.0,0.0,0.0,0.0,0.0,0.0,0.0,0.0,0.0,0.0,0.0,0.0,0.0,0.0,0.0,0.0,0.0,0.0,0.0,0.0,0.0,0.0,0.0,0.0,0.0,0.0,0.0,0.0,0.0,0.0,0.0,0.0,0.0,0.0,0.0,0.0,0.0,0.0,0.0,0.0,0.0,0.0,0.0,0.0,0.0,0.0,0.0,0.0,0.0,0.0,0.0,0.0,0.0,0.0,0.0,0.0,0.1944,0.0,0.217,0.0,0.2032,0.1947,0.0,0.0,0.0,0.0,0.0,0.0,0.0,0.0,0.0,0.0,0.0,0.0,0.0,0.0,0.0,0.0,0.0,0.0,0.0,0.0,0.0,0.0,0.0,0.0,0.0,0.0,0.0,0.0,0.0,0.0,0.0,0.0,0.0,0.0,0.0,0.0,0.0,0.0,0.0,0.0,0.0,0.0,0.0,0.0,0.0,0.0,0.0,0.0,0.0,0.0,0.0,0.0,0.0,0.0,0.0,0.0,0.0,0.0,0.0,0.0,0.0,0.0,0.0,0.0,0.0,0.0,0.0,0.0,0.0,0.0,0.0,0.0,0.0,0.0,0.0,0.0,0.0,0.0,0.0,0.0,0.0,0.0,0.0,0.0,0.0,0.0,0.0,0.0,0.0,0.0,0.0,0.0,0.0,0.0,0.0,0.0,0.0,0.0,0.0,0.0,0.0,0.0,0.0,0.0,0.0,0.0,0.0,0.0,0.1945,0.2057,0.2121,0.211,0.2022,0.1963,0.1874,0.0,0.0,0.0,0.0,0.0,0.0,0.0,0.0,0.0,0.0,0.0,0.0,0.0,0.0,0.0,0.0,0.0,0.0,0.0,0.0,0.0,0.0,0.0,0.0,0.0,0.0,0.0,0.0,0.0,0.0,0.0,0.0,0.0,0.0,0.0,0.0,0.0,0.0,0.0,0.0,0.0,0.0,0.0,0.0,0.0,0.0,0.0,0.0,0.0,0.0,0.0,0.0,0.0,0.0,0.0,0.0,0.0,0.0,0.0,0.0,0.0,0.0,0.0,0.0,0.0,0.0,0.0,0.0,0.0,0.0,0.0,0.0,0.0,0.0,0.0,0.0,0.0,0.0,0.0,0.0,0.0,0.0,0.0,0.0,0.0,0.0,0.0,0.0,0.0,0.0,0.0,0.0,0.0,0.0,0.0,0.0,0.0,0.0,0.0,0.0,0.0,0.0,0.0,0.0,0.0,0.0,0.0,0.0,0.0,0.2161,0.2267,0.2287,0.2213,0.2024,0.1937,0.0,0.0,0.0,0.0,0.0,0.0,0.0,0.0,0.0,0.0,0.0,0.0,0.0,0.0,0.0,0.0,0.0,0.0,0.0,0.0,0.0,0.0,0.0,0.0,0.0,0.0,0.0,0.0,0.0,0.0,0.0,0.0,0.0,0.0,0.0,0.0,0.0,0.0,0.0,0.0,0.0,0.0,0.0,0.0,0.0,0.0,0.0,0.0,0.0,0.0,0.0,0.0,0.0,0.0,0.0,0.0,0.0,0.0,0.0,0.0,0.0,0.0,0.0,0.0,0.0,0.0,0.0,0.0,0.0,0.0,0.0,0.0,0.0,0.0,0.0,0.0,0.0,0.0,0.0,0.0,0.0,0.0,0.0,0.0,0.0,0.0,0.0,0.0,0.0,0.0,0.0,0.0,0.0,0.0,0.0,0.0,0.0,0.0,0.0,0.0,0.0,0.0,0.0,0.0,0.0,0.0,0.0,0.0,0.0,0.2361,0.2438,0.2438,0.2349,0.2142,0.2038,0.1895,0.0,0.0,0.0,0.0,0.0,0.0,0.0,0.0,0.0,0.0,0.0,0.0,0.0,0.0,0.0,0.0,0.0,0.0,0.0,0.0,0.0,0.0,0.0,0.0,0.0,0.0,0.0,0.0,0.0,0.0,0.0,0.0,0.0,0.0,0.0,0.0,0.0,0.0,0.0,0.0,0.0,0.0,0.0,0.0,0.0,0.0,0.0,0.0,0.0,0.0,0.0,0.0,0.0,0.0,0.0,0.0,0.0,0.0,0.0,0.0,0.0,0.0,0.0,0.0,0.0,0.0,0.0,0.0,0.0,0.0,0.0,0.0,0.0,0.0,0.0,0.0,0.0,0.0,0.0,0.0,0.0,0.0,0.0,0.0,0.0,0.0,0.0,0.0,0.0,0.0,0.0,0.0,0.0,0.0,0.0,0.0,0.0,0.0,0.0,0.0,0.0,0.0,0.0,0.0,0.0,0.0,0.0,0.0,0.2567,0.2586,0.2534,0.2405,0.2315,0.2178,0.0,0.0,0.0,0.0,0.0,0.0,0.0,0.0,0.0,0.0,0.0,0.0,0.0,0.0,0.0,0.0,0.0,0.0,0.0,0.0,0.0,0.0,0.0,0.0,0.0,0.0,0.0,0.0,0.0,0.0,0.0,0.0,0.0,0.0,0.0,0.0,0.0,0.0,0.0,0.0,0.0,0.0,0.0,0.0,0.0,0.0,0.0,0.0,0.0,0.0,0.0,0.0,0.0,0.0,0.0,0.0,0.0,0.0,0.0,0.0,0.0,0.0,0.0,0.0,0.0,0.0,0.0,0.0,0.0,0.0,0.0,0.0,0.0,0.0,0.0,0.0,0.0,0.0,0.0,0.0,0.0,0.0,0.0,0.0,0.0,0.0,0.0,0.0,0.0,0.0,0.0,0.0,0.0,0.0,0.0,0.0,0.0,0.0,0.0,0.0,0.0,0.0,0.0,0.0,0.0,0.0,0.0,0.0,0.0,0.2688,0.2909,0.2913,0.2686,0.2567,0.2393,0.0,0.0,0.0,0.0,0.0,0.0,0.0,0.0,0.0,0.0,0.0,0.0,0.0,0.0,0.0,0.0,0.0,0.0,0.0,0.0,0.0,0.0,0.0,0.0,0.0,0.0,0.0,0.0,0.0,0.0,0.0,0.0,0.0,0.0,0.0,0.0,0.0,0.0,0.0,0.0,0.0,0.0,0.0,0.0,0.0,0.0,0.0,0.0,0.0,0.0,0.0,0.0,0.0,0.0,0.0,0.0,0.0,0.0,0.0,0.0,0.0,0.0,0.0,0.0,0.0,0.0,0.0,0.0,0.0,0.0,0.0,0.0,0.0,0.0,0.0,0.0,0.0,0.0,0.0,0.0,0.0,0.0,0.0,0.0,0.0,0.0,0.0,0.0,0.0,0.0,0.0,0.0,0.0,0.0,0.0,0.0,0.0,0.0,0.0,0.0,0.0,0.0,0.0,0.0,0.0,0.0,0.0,0.0,0.2607,0.2829,0.3126,0.3189,0.2995,0.2788,0.2551,0.0,0.0,0.0,0.0,0.0,0.0,0.0,0.0,0.0,0.0,0.0,0.0,0.0,0.0,0.0,0.0,0.0,0.0,0.0,0.0,0.0,0.0,0.0,0.0,0.0,0.0,0.0,0.0,0.0,0.0,0.0,0.0,0.0,0.0,0.0,0.0,0.0,0.0,0.0,0.0,0.0,0.0,0.0,0.0,0.0,0.0,0.0,0.0,0.0,0.0,0.0,0.0,0.0,0.0,0.0,0.0,0.0,0.0,0.0,0.0,0.0,0.0,0.0,0.0,0.0,0.0,0.0,0.0,0.0,0.0,0.0,0.0,0.0,0.0,0.0,0.0,0.0,0.0,0.0,0.0,0.0,0.0,0.0,0.0,0.0,0.0,0.0,0.0,0.0,0.0,0.0,0.0,0.0,0.0,0.0,0.0,0.0,0.0,0.0,0.0,0.0,0.0,0.0,0.0,0.0,0.0,0.0,0.0,0.2736,0.2972,0.327,0.3378,0.3276,0.2976,0.2683,0.0,0.0,0.0,0.0,0.0,0.0,0.0,0.0,0.0,0.0,0.0,0.0,0.0,0.0,0.0,0.0,0.0,0.0,0.0,0.0,0.0,0.0,0.0,0.0,0.0,0.0,0.0,0.0,0.0,0.0,0.0,0.0,0.0,0.0,0.0,0.0,0.0,0.0,0.0,0.0,0.0,0.0,0.0,0.0,0.0,0.0,0.0,0.0,0.0,0.0,0.0,0.0,0.0,0.0,0.0,0.0,0.0,0.0,0.0,0.0,0.0,0.0,0.0,0.0,0.0,0.0,0.0,0.0,0.0,0.0,0.0,0.0,0.0,0.0,0.0,0.0,0.0,0.0,0.0,0.0,0.0,0.0,0.0,0.0,0.0,0.0,0.0,0.0,0.0,0.0,0.0,0.0,0.0,0.0,0.0,0.0,0.0,0.0,0.0,0.0,0.0,0.0,0.0,0.0,0.0,0.0,0.0,0.0,0.2851,0.3067,0.3362,0.345,0.3314,0.3106,0.2856,0.0,0.0,0.0,0.0,0.0,0.0,0.0,0.0,0.0,0.0,0.0,0.0,0.0,0.0,0.0,0.0,0.0,0.0,0.0,0.0,0.0,0.0,0.0,0.0,0.0,0.0,0.0,0.0,0.0,0.0,0.0,0.0,0.0,0.0,0.0,0.0,0.0,0.0,0.0,0.0,0.0,0.0,0.0,0.0,0.0,0.0,0.0,0.0,0.1282,0.0,0.0,0.0,0.0,0.0,0.0,0.0,0.0,0.0,0.0,0.0,0.0,0.0,0.0,0.0,0.0,0.0,0.0,0.0,0.0,0.0,0.0,0.0,0.0,0.0,0.0,0.0,0.0,0.0,0.0,0.0,0.0,0.0,0.0,0.0,0.0,0.0,0.0,0.0,0.0,0.0,0.0,0.0,0.0,0.0,0.0,0.0,0.0,0.0,0.0,0.0,0.0,0.0,0.0,0.0,0.0,0.0,0.0,0.0,0.2976,0.3159,0.3399,0.3474,0.3365,0.3216,0.2981,0.0,0.0,0.0,0.0,0.0,0.0,0.0,0.0,0.0,0.0,0.0,0.0,0.0,0.0,0.0,0.0,0.0,0.0,0.0,0.0,0.0,0.0,0.0,0.0,0.0,0.0,0.0,0.0,0.0,0.0,0.0,0.0,0.0,0.0,0.0,0.0,0.0,0.0,0.0,0.0,0.0,0.0,0.0,0.0,0.0,0.0,0.0,0.0,0.0,0.0,0.0,0.0,0.0,0.0,0.0,0.0,0.0,0.0,0.0,0.0,0.0,0.0,0.0,0.0,0.0,0.0,0.0,0.0,0.0,0.0,0.0,0.0,0.0,0.0,0.0,0.0,0.0,0.0,0.0,0.0,0.0,0.0,0.0,0.0,0.0,0.0,0.0,0.0,0.0,0.0,0.0,0.0,0.0,0.0,0.0,0.0,0.0,0.0,0.0,0.0,0.0,0.0,0.0,0.0,0.0,0.0,0.0,0.2829,0.3097,0.3243,0.3422,0.3479,0.34,0.3284,0.3052,0.2691,0.0,0.0,0.0,0.0,0.0,0.0,0.0,0.0,0.0,0.0,0.0,0.0,0.0,0.0,0.0,0.0,0.0,0.0,0.0,0.0,0.0,0.0,0.0,0.0,0.0,0.0,0.0,0.0,0.0,0.0,0.0,0.0,0.0,0.0,0.0,0.0,0.0,0.0,-0.5461,-0.1318,0.0,0.0,0.0,0.0,0.0,0.0,0.0,0.0,0.1809,0.0,0.0,0.0,0.0,0.0,0.0,0.0,0.0,0.0,0.0,0.0,0.0,0.0,0.0,0.0,0.0,0.0,0.0,0.0,0.0,0.0,0.0,0.0,0.0,0.0,0.0,0.0,0.0,0.0,0.0,0.0,0.0,0.0,0.0,0.0,0.0,0.0,0.0,0.0,0.0,0.0,0.0,0.0,0.0,0.0,0.0,0.0,0.0,0.0,0.0,0.0,0.0,0.0,0.0,0.0,0.0,0.2536,0.2923,0.318,0.3305,0.3483,0.3498,0.3341,0.3245,0.3013,0.2638,0.0,0.0,0.0,0.0,0.0,0.0,0.0,0.0,0.0,0.0,0.0,0.0,0.0,0.0,0.0,0.0,0.0,0.0,0.0,0.0,0.0,0.0,0.0,0.0,0.0,0.0,0.0,0.0,0.0,0.0,0.0,0.0,0.0,0.0,0.0,0.0,0.0,0.0,0.0,0.0347,0.1896,0.0,0.0,0.0,0.0,0.0,0.0,0.0,0.0,0.1725,0.0,0.0,0.0,0.0,0.0,0.0,0.0,0.0,0.0,0.0,0.0,0.0,0.0,0.0,0.0,0.0,0.0,0.0,0.0,0.0,0.0,0.0,0.0,0.0,0.0,0.0,0.0,0.0,0.0,0.0,0.0,0.0,0.0,0.0,0.0,0.0,0.0,0.0,0.0,0.0,0.0,0.0,0.0,0.0,0.0,0.0,0.0,0.0,0.0,0.0,0.0,0.0,0.0,0.0,0.0,0.2634,0.3029,0.3279,0.3369,0.3498,0.3472,0.3279,0.3142,0.2901,0.0,0.0,0.0,0.0,0.0,0.0,0.0,0.0,0.0,0.0,0.0,0.0,0.0,0.0,0.0,0.0,0.0,0.0,0.0,0.0,0.0,0.0,0.0,0.0,0.0,0.0,0.0,0.0,0.0,0.0,0.0,0.0,0.0,0.0,0.0,0.0,0.0,0.0,0.0,0.0,-0.0,0.1129,0.2084,0.0,0.0,0.0,0.0,0.0,0.0,0.2067,0.2034,0.0,0.0,0.0,0.0,0.0,0.0,0.0,0.0,0.0,0.0,0.0,0.0,0.0,0.0,0.0,0.0,0.0,0.0,0.0,0.0,0.0,0.0,0.0,0.0,0.0,0.0,0.0,0.0,0.0,0.0,0.0,0.0,0.0,0.0,0.0,0.0,0.0,0.0,0.0,0.0,0.0,0.0,0.0,0.0,0.0,0.0,0.0,0.0,0.0,0.0,0.0,0.0,0.0,0.0,0.0,0.2705,0.3111,0.3351,0.3412,0.3505,0.345,0.3236,0.3062,0.281,0.0,0.0,0.0,0.0,0.0,0.0,0.0,0.0,0.0,0.0,0.0,0.0,0.0,0.0,0.0,0.0,0.0,0.0,0.0,0.0,0.0,0.0,0.0,0.0,0.0,0.0,0.0,0.0,0.0,0.0,0.0,0.0,0.0,0.0,0.0,0.0,0.0,0.0,0.0,0.0,0.0,0.0264,0.22,0.1657,0.0,0.0,0.0,0.0,0.2022,0.205,0.0,0.0,0.0,0.0,0.0,0.0,0.0,0.0,0.0,0.0,0.0,0.0,0.0,0.0,0.0,0.0,0.0,0.0,0.0,0.0,0.0,0.0,0.0,0.0,0.0,0.0,0.0,0.0,0.0,0.0,0.0,0.0,0.0,0.0,0.0,0.0,0.0,0.0,0.0,0.0,0.0,0.0,0.0,0.0,0.0,0.0,0.0,0.0,0.0,0.0,0.0,0.0,0.0,0.0,0.0,0.0,0.2735,0.312,0.3351,0.3414,0.3524,0.3472,0.3236,0.3081,0.2822,0.0,0.0,0.0,0.0,0.0,0.0,0.0,0.0,0.0,0.0,0.0,0.0,0.0,0.0,0.0,0.0,0.0,0.0,0.0,0.0,0.0,0.0,0.0,0.0,0.0,0.0,0.0,0.0,0.0,0.0,0.0,0.0,0.0,0.0,0.0,0.0,0.0,0.0,0.0,0.0,0.0,-0.0823,0.2494,0.0548,-0.0815,0.0,0.0,0.1494,0.2174,0.1806,0.0,0.0,0.0,0.0,0.0,0.0,0.0,0.0,0.0,0.0,0.0,0.0,0.0,0.0,0.0,0.0,0.0,0.0,0.0,0.0,0.0,0.0,0.0,0.0,0.0,0.0,0.0,0.0,0.0,0.0,0.0,0.0,0.0,0.0,0.0,0.0,0.0,0.0,0.0,0.0,0.0,0.0,0.0,0.0,0.0,0.0,0.0,0.0,0.0,0.0,0.0,0.0,0.0,0.0,0.0,0.2484,0.274,0.3122,0.3341,0.3386,0.3487,0.3433,0.3212,0.3061,0.2806,0.0,0.0,0.0,0.0,0.0,0.0,0.0,0.0,0.0,0.0,0.0,0.0,0.0,0.0,0.0,0.0,0.0,0.0,0.0,0.0,0.0,0.0,0.0,0.0,0.0,0.0,0.0,0.0,0.0,0.0,0.0,0.0,0.0,0.0,0.0,0.0,0.0,0.0,0.0,0.0,0.0,0.0,0.2609,-0.0438,0.0,0.0,0.0,0.1012,0.132,0.0,0.0,0.0,0.0,0.0,0.0,0.0,0.0,0.0,0.0,0.0,0.0,0.0,0.0,0.0,0.0,0.0,0.0,0.0,0.0,0.0,0.0,0.0,0.0,0.0,0.0,0.0,0.0,0.0,0.0,0.0,0.0,0.0,0.0,0.0,0.0,0.0,0.0,0.0,0.0,0.0,0.0,0.0,0.0,0.0,0.0,0.0,0.0,0.0,0.0,0.0,0.0,0.0,0.0,0.0,0.0,0.0,0.2761,0.3138,0.3351,0.3389,0.3478,0.3431,0.3238,0.3086,0.0,0.0,0.0,0.0,0.0,0.0,0.0,0.0,0.0,0.0,0.0,0.0,0.0,0.0,0.0,0.0,0.0,0.0,0.0,0.0,0.0,0.0,0.0,0.0,0.0,0.0,0.0,0.1123,0.0,0.0,0.0,0.0,0.0,0.0,0.0,0.0,0.0,0.0,0.0,0.0,0.0,0.0,-0.1047,0.2571,-0.0618,-0.2662,0.0,0.0,0.0768,0.1092,0.0159,-0.0942,0.0,0.0,0.0,0.0,0.0,0.0,0.0,0.0,0.0,0.0,0.0,0.0,0.0,0.0,0.0,0.0,0.0,0.0,0.0,0.0,0.0,0.0,0.0,0.0,0.0,0.0,0.0,0.0,0.0,0.0,0.0,0.0,0.0,0.0,0.0,0.0,0.0,0.0,0.0,0.0,0.0,0.0,0.0,0.0,0.0,0.0,0.0,0.0,0.0,0.0,0.0,0.0,0.0,0.0,0.0,0.2823,0.3179,0.339,0.345,0.3538,0.351,0.3358,0.3209,0.2975,0.0,0.0,0.0,0.0,0.0,0.0,0.0,0.0,0.0,0.0,0.0,0.0,0.0,0.0,0.0,0.0,0.0,0.0,0.0,0.0,0.0,0.0,0.0,0.0,0.0,0.0,0.0,0.0,0.0,0.0,0.0,0.0,0.0,0.0,0.0,0.0,0.0,0.0,0.0,0.0,0.0,-0.1071,0.2377,0.0325,-0.1317,0.0,0.0,0.1147,0.2762,0.1157,-0.0972,-0.3348,0.0,0.0,0.0,0.0,0.0,0.0,0.0,0.0,0.0,0.0,0.0,0.0,0.0,0.0,0.0,0.0,0.0,0.0,0.0,0.0,0.0,0.0,0.0,0.0,0.0,0.0,0.0,0.0,0.0,0.0,0.0,0.0,0.0,0.0,0.0,0.0,0.0,0.0,0.0,0.0,0.0,0.0,0.0,0.0,0.0,0.0,0.0,0.0,0.0,0.0,0.0,0.0,0.0,0.2518,0.2799,0.3174,0.3386,0.343,0.3516,0.3509,0.3397,0.3337,0.3135,0.0,0.0,0.0,0.0,0.0,0.0,0.0,0.0,0.0,0.0,0.0,0.0,0.0,0.0,0.0,0.0,0.0,0.0,0.0,0.0,0.0,0.0,0.0,0.0,0.0,0.0,0.0,0.0,0.1485,0.1489,0.1482,0.0,0.0,0.0,0.0,0.0,0.0,0.0,0.0,0.0,0.0,0.0159,0.2654,0.2051,0.0,0.0,0.0866,0.103,0.1359,0.0339,-0.1316,-0.3578,-0.4083,0.0,0.0,0.0,0.0,0.0,0.0,0.0,0.0,0.0,0.0,0.0,0.0,0.0,0.0,0.0,0.0,0.0,0.0,0.0,0.0,0.0,0.0,0.0,0.0,0.0,0.0,0.0,0.0,0.0,0.0,0.0,0.0,0.0,0.0,0.0,0.0,0.0,0.0,0.0,0.0,0.0,0.0,0.0,0.0,0.0,0.0,0.0,0.0,0.0,0.0,0.0,0.0,0.253,0.2808,0.3186,0.3399,0.3438,0.3516,0.352,0.3442,0.3412,0.3231,0.0,0.0,0.0,0.0,0.0,0.0,0.0,0.0,0.0,0.0,0.0,0.0,0.0,0.0,0.0,0.0,0.0,0.0,0.0,0.0,0.0,0.0,0.0,0.0,0.0,0.0,0.0,0.0,0.1531,0.1515,0.1483,0.0,0.0,0.0,0.0,0.0,0.0,0.0,0.0,0.0,0.0,0.1462,0.2891,0.3184,0.2717,0.1812,0.1617,0.1419,0.1046,0.0,-0.1639,-0.3771,0.0,0.0,0.0,0.0,0.0,0.0,0.0,0.0,0.0,0.0,0.0,0.0,0.0,0.0,0.0,0.0,0.0,0.0,0.0,0.0,0.0,0.0,0.0,0.0,0.0,0.0,0.0,0.0,0.0,0.0,0.0,0.0,0.0,0.0,0.0,0.0,0.0,0.0,0.0,0.0,0.0,0.0,0.0,0.0,0.0,0.0,0.0,0.0,0.0,0.0,0.0,0.0,0.0,0.0,0.287,0.3225,0.344,0.3498,0.3558,0.3561,0.3499,0.3415,0.3239,0.2961,0.0,0.0,0.0,0.0,0.0,0.0,0.0,0.0,0.0,0.0,0.0,0.0,0.0,0.0,0.0,0.0,0.0,0.0,0.0,0.0,0.0,0.0,0.0,0.0,0.0,0.0,0.1566,0.1543,0.1515,0.0,0.0,0.0,0.0,0.0,0.0,0.0,0.0,0.0,0.0,0.1491,0.2926,0.3064,0.3224,0.3142,0.2958,0.2199,0.1982,0.2795,0.0838,-0.1595,0.0,0.0,0.0,0.0,0.0,0.0,0.0,0.0,0.0,0.0,0.0,0.0,0.0,0.0,0.0,0.0,0.0,0.0,0.0,0.0,0.0,0.0,0.0,0.0,0.0,0.0,0.0,0.3176,0.3132,0.0,0.0,0.0,0.0,0.0,0.0,0.0,0.0,0.0,0.0,0.0,1.1898,1.185,0.0,0.0,0.0,0.0,0.0,0.0,0.0,0.0,0.0,0.0,0.0,0.0,0.2542,0.2845,0.3219,0.3441,0.3502,0.358,0.3583,0.3505,0.3491,0.3283,0.2856,0.0,0.0,0.0,0.0,0.0,0.0,0.0,0.0,0.0,0.0,0.0,0.0,0.0,0.0,0.0,0.0,0.0,0.0,0.0,0.0,0.0,0.0,0.0,0.0,0.0,0.156,0.0,0.0,0.0,0.0,0.0,0.0,0.0,0.0,0.0,0.0,0.0,-0.086,-0.0,0.1508,0.278,0.2949,0.3072,0.3153,0.0,0.0,0.0,0.0,0.0,0.0,0.0,0.0,0.0,0.0,0.0,0.0,0.0,0.0,-0.8353,-0.776,-0.7679,-0.7863,-0.8221,0.0,0.0,0.0,0.0,0.0,0.0,0.0,0.0,0.0,0.0,0.0,0.0,0.0,0.0,0.0,0.0,0.4435,0.0,0.0,0.0,0.0,0.0,0.0,0.0,0.0,1.1534,1.2773,1.3193,1.3254,1.341,0.0,1.3403,1.2521,0.0,0.0,0.0,0.0,0.0,0.0,0.0,0.0,0.2877,0.3039,0.3213,0.343,0.3501,0.3569,0.3572,0.3505,0.3449,0.3239,0.2857,0.2547,0.2277,0.0,0.0,0.0,0.0,0.0,0.0,0.0,0.0,0.0,0.0,0.0,0.0,0.0,0.0,0.0,0.0,0.0,0.0,0.0,0.0,0.0,0.0,0.0,0.1605,0.0,0.0,0.0,0.0,0.0,0.0,0.0,0.0,0.0,0.1105,0.0358,0.013,0.085,0.1848,0.2483,0.2807,0.0,0.0,0.0,0.0,0.0,0.0,0.0,-0.1925,-0.4788,-0.4762,-0.4913,-0.6042,-0.904,-1.1003,-0.9677,0.0,0.0,-0.9026,-0.8905,-0.9126,-0.943,-0.8918,-0.8283,-0.8324,-0.9945,-1.107,0.0,0.0,0.0,0.0,0.0,0.0,0.0,0.0,0.7455,0.736,0.0,0.6443,0.0,0.0,0.0,0.0,0.0,0.0,0.0,0.0,1.2707,1.4102,1.4516,1.4665,1.4828,0.0,1.4808,1.4563,1.4163,1.1782,0.0,0.0,0.0,0.0,0.0,0.0,0.3435,0.3461,0.3415,0.3411,0.3498,0.3528,0.3529,0.3497,0.3305,0.3127,0.2971,0.2714,0.2476,0.2268,0.2086,0.0,0.0,0.0,0.0,0.0,0.0,0.0,0.0,0.0,0.0,0.0,0.0,0.0,0.0,0.0,0.0,0.0,0.0,0.0,0.0,0.1497,0.0,0.0,0.0,0.0,0.0,0.0,0.0,0.0,0.0,0.0,0.1915,0.1027,0.0692,0.2066,0.0,0.0,0.0,0.0,0.2827,0.2857,0.3028,0.1867,-0.0915,-0.1398,-0.221,-0.5214,0.0,0.0,-0.9147,-1.0471,-1.105,-1.0402,-0.9959,-0.9917,-1.0328,-1.057,-1.0651,-1.0768,-1.0187,-0.9685,-0.9593,-1.078,-1.2186,1.3241,0.0,0.0,0.0,0.0,1.0322,1.0173,0.997,0.9769,0.9666,0.9601,0.8449,0.0,0.0,0.0,0.0,0.0,0.0,0.9612,1.1447,1.3572,1.4719,1.5147,1.5201,1.5296,1.5438,1.5296,1.5011,1.459,1.3626,1.22,1.0283,0.0,0.0,0.0,0.0,0.4332,0.4418,0.3828,0.34,0.3469,0.3499,0.3501,0.3471,0.3348,0.3242,0.3155,0.2935,0.2737,0.257,0.2331,0.0,0.0,0.0,0.0,0.0,0.0,0.0,0.0,0.0,0.0,0.0,0.0,0.0,0.0,0.0,0.0,0.0,0.0,0.0,0.1679,0.1743,0.1854,0.0,0.0,0.0,0.0,0.0,0.0,0.0,0.0,0.0,0.2262,0.1863,0.1759,0.0,0.0,0.2683,0.2609,0.0905,-0.0374,-0.0,0.0,0.0,0.0,-0.2387,-0.3992,-0.5932,-0.6074,-0.6412,-0.8342,-0.9567,-1.0568,-1.0979,-1.141,-1.1773,-1.2184,-1.1558,-1.1159,-1.1218,-1.1078,-1.0758,-1.0419,-1.1654,-1.2624,1.4889,1.3492,1.295,1.2396,1.2159,1.2332,1.2483,1.2405,1.2365,1.2099,1.2069,1.0736,0.9066,0.6945,0.5757,0.0,0.0,0.0,1.1015,1.2612,1.414,1.5208,1.5581,1.571,1.5811,1.59,1.575,1.5533,1.5262,1.4916,1.4008,1.2734,0.0,0.0,0.8721,0.656,0.5354,0.5268,0.4057,0.3396,0.3456,0.3475,0.3476,0.3456,0.3369,0.3292,0.323,0.3051,0.2882,0.2733,0.2506,0.2286,0.0,0.0,0.0,0.0,0.0,0.0,0.0,0.0,0.0,0.0,0.0,0.1448,0.1479,0.0,0.0,0.0,0.1695,0.1808,0.1903,0.1982,0.0,0.0,0.0,0.0,0.0,0.0,0.0,0.2232,0.2364,0.2484,0.2571,0.2436,0.2276,0.2418,0.2669,0.2769,0.2859,0.0,-0.3208,-0.1732,-0.2918,-0.371,-0.3492,-0.4416,-0.5564,-0.6262,-0.6414,-0.6542,-0.7444,-0.8497,-0.9736,-1.0974,-1.1592,-1.2395,-1.2947,-1.2572,-1.1989,-1.2025,-1.1839,-1.1678,-1.1398,-1.2123,-1.2881,1.6029,1.5459,1.4767,1.4278,1.4014,1.4421,1.4692,1.4835,1.4679,1.4611,1.4557,1.3133,1.1031,0.8436,0.6652,0.0,0.0,1.077,1.2463,1.3538,1.4825,1.5622,1.5913,1.6191,1.632,1.63,1.6151,1.6069,1.6015,1.5622,1.5276,1.4943,1.2703,1.0999,0.9988,0.7681,0.6326,0.6199,0.4299,0.3395,0.3452,0.3454,0.3453,0.3453,0.337,0.3296,0.3234,0.3097,0.2953,0.2806,0.2628,0.2425,0.2193,0.0,0.0,0.0,0.0,0.0,0.0,0.0,0.0,0.0,0.0,0.0,0.0,0.0,0.0,0.0,0.1844,0.0,0.2038,0.2101,0.0,0.0,0.0,0.2053,0.2163,0.2258,0.2368,0.2511,0.0,0.0,0.0,0.0,0.2736,0.2784,0.284,0.2921,0.3002,-0.2278,-0.5202,-0.2551,-0.4765,-0.66,-0.6204,-0.6403,-0.6442,-0.6542,-0.6616,-0.6651,-0.6864,-0.7695,-0.8928,-1.0385,-1.1207,-1.2033,-1.3059,-1.3232,-1.3145,-1.2786,-1.2443,-1.2401,-1.2433,-1.2683,-1.2974,1.6673,1.6408,1.6117,1.5622,1.5059,1.5276,1.552,1.5744,1.5601,1.5472,1.5343,1.387,1.1995,0.9637,0.8298,0.8809,1.0468,1.2171,1.3694,1.4616,1.5555,1.6076,1.6361,1.6435,1.6415,1.6307,1.6151,1.5967,1.575,1.5635,1.5432,1.512,1.4484,1.3629,1.2232,0.9191,0.748,0.7304,0.4737,0.3384,0.3422,0.3422,0.3422,0.3422,0.338,0.3328,0.3266,0.3189,0.3086,0.2957,0.2781,0.2596,0.2402,0.2165,0.0,0.0,0.0,0.0,0.0,0.0,0.0,0.0,0.0,0.164,0.1715,0.0,0.1835,0.0,0.2009,0.2144,0.2248,0.2334,0.0,0.0,0.2292,0.2303,0.2354,0.244,0.2536,0.2638,0.2757,0.2856,0.2921,0.2988,0.2837,0.3013,0.3029,0.3052,0.2882,-0.0969,-0.432,-0.52,-0.5893,-0.6591,-0.663,-0.6681,-0.6714,-0.6749,-0.6766,-0.6774,-0.6774,-0.7833,-0.8886,-1.0143,-1.1199,-1.2255,-1.33,-1.3444,-1.3325,-1.3151,-1.2818,-1.2684,-1.2545,-1.2846,-1.3206,1.7426,1.7155,1.6653,1.6381,1.6008,1.6029,1.6123,1.6266,1.6185,1.6069,1.5716,1.4055,1.26,1.1547,1.0618,1.1003,1.2494,1.3815,1.4878,1.5446,1.5877,1.6307,1.6517,1.6592,1.651,1.6307,1.6083,1.5893,1.5737,1.5669,1.5622,1.5581,1.5649,1.5208,1.4081,1.0906,0.8931,0.8048,0.52,0.3607,0.3411,0.3411,0.3405,0.339,0.3348,0.3292,0.3219,0.3159,0.3077,0.2969,0.2833,0.2676,0.2496,0.227,0.2044,0.0,0.0,0.0,0.0,0.0,0.0,0.0,0.0,0.0,0.0,0.0,0.2049,0.0,0.2198,0.0,0.244,0.2522,0.2566,0.2559,0.2559,0.2566,0.2582,0.2641,0.2707,0.2784,0.2887,0.2976,0.3035,0.3095,0.3137,0.3155,0.3145,0.3138,0.2745,-0.0,-0.2964,-0.443,-0.5313,-0.6016,-0.6328,-0.6584,-0.6818,-0.6818,-0.6815,-0.7027,-0.7456,-0.8093,-0.8939,-1.0424,-1.1271,-1.2334,-1.3391,-1.3553,-1.3466,-1.3352,-1.3064,-1.2936,-1.2716,-1.2977,-1.3305,1.7996,1.7604,1.6982,1.6781,1.6768,1.6639,1.6578,1.6578,1.6558,1.6266,1.591,1.4024,1.3257,1.3544,1.3114,1.3291,1.4279,1.536,1.59,1.6083,1.6239,1.6395,1.6558,1.6707,1.6625,1.6334,1.6029,1.5872,1.5852,1.5723,1.5805,1.6083,1.6252,1.6199,1.5488,1.2732,1.0485,0.8628,0.5893,0.405,0.3411,0.3408,0.3392,0.336,0.3298,0.3223,0.3134,0.3073,0.3001,0.2913,0.2825,0.2702,0.2538,0.2364,0.2178,0.0,0.1891,0.0,0.0,0.0,0.0,0.0,0.0,0.0,0.0,0.2203,0.2279,0.2371,0.2402,0.2476,0.2617,0.2686,0.2742,0.2788,0.2797,0.28,0.28,0.2823,0.2863,0.2921,0.3005,0.308,0.3131,0.3194,0.323,0.3223,0.32,0.3185,0.2989,0.0986,-0.0985,-0.1808,-0.3459,-0.4972,-0.5717,-0.6392,-0.6818,-0.6818,-0.6812,-0.7237,-0.8734,-0.8943,-0.9364,-1.0852,-1.1699,-1.2334,-1.3391,-1.3602,-1.3558,-1.3439,-1.3401,-1.3123,-1.2941,-1.3113,-1.3432,1.8383,1.7768,1.7559,1.7349,1.6937,1.6904,1.6897,1.6883,1.6761,1.642,1.566,1.488,1.4331,1.4186,1.3982,1.4079,1.4854,1.5341,1.5703,1.6083,1.6239,1.6449,1.6707,1.6863,1.6781,1.6476,1.6185,1.5974,1.5852,1.5825,1.59,1.6083,1.6347,1.6292,0.0,0.0,0.0,0.0,0.6157,0.49,0.3411,0.3388,0.336,0.3329,0.3249,0.0,0.3073,0.301,0.2949,0.2883,0.2795,0.0,0.0,0.0,0.0,0.0,0.0,0.0,0.0,0.0,0.0,0.0,0.2457,0.2454,0.2341,0.2405,0.2503,0.2612,0.263,0.2675,0.2776,0.2838,0.287,0.2859,0.2878,0.2891,0.2891,0.2897,0.2923,0.2983,0.3048,0.3101,0.314,0.3194,0.323,0.3228,0.3206,0.32,0.3217,0.2562,0.1564,-0.0199,-0.224,-0.3748,-0.4462,-0.5756,-0.682,-0.6818,-0.6812,-0.7878,-1.0445,-1.1082,-1.1285,-1.1704,-1.2122,-1.2757,-1.3391,-1.3607,-1.3569,-1.3444,-1.3423,-1.3379,-1.3032,-1.3287,-1.3614,1.9129,0.0,1.8469,1.802,0.0,0.0,1.7398,1.7391,1.7106,1.6574,1.622,1.5864,1.548,1.5267,1.4983,1.4976,1.5017,1.4993,1.5323,1.5757,1.5981,1.632,1.6754,1.6978,1.6924,1.6625,1.6334,1.6117,1.5974,1.5967,1.6076,1.6307,1.6598,1.654,1.634,1.5566,1.268,0.7653,0.6809,0.5326,0.3411,0.3382,0.3352,0.332,0.0,0.0,0.0,0.0,0.0,0.0,0.0,0.0,0.0,0.0,0.0,0.2364,0.2356,0.2335,0.2296,0.2413,0.2521,0.2597,0.2699,0.2707,0.2587,0.2634,0.2701,0.2774,0.2808,0.2856,0.2931,0.298,0.3006,0.3006,0.3006,0.3001,0.2986,0.2983,0.299,0.3007,0.3061,0.3108,0.3138,0.318,0.3213,0.3225,0.3206,0.3194,0.3201,0.3157,0.2358,0.0201,-0.1638,-0.3131,-0.3819,-0.5543,-0.6823,-0.682,-0.6815,-0.7881,-1.0661,-1.151,-1.193,-1.1916,-1.2122,-1.2545,-1.3391,-1.3607,-1.3586,-1.3531,-1.3515,-1.3499,-1.322,-1.3423,-1.3714,2.0135,1.9726,1.9166,1.8671,1.8641,1.8222,1.7811,1.7811,0.0,0.0,0.0,1.668,1.6463,1.6144,1.5845,1.5739,1.5437,1.5142,1.5231,1.565,1.598,1.6225,1.6754,1.708,1.708,1.6781,1.6517,1.6307,1.6164,1.6157,1.6293,1.6564,1.6842,1.6978,1.6978,1.592,1.3375,0.9352,0.7871,0.5962,0.3411,0.3382,0.335,0.3314,0.3232,0.3145,0.3055,0.2999,0.2956,0.2924,0.2878,0.2841,0.2814,0.2743,0.2671,0.2601,0.2598,0.2601,0.2602,0.2679,0.275,0.2806,0.2879,0.2891,0.2821,0.2837,0.287,0.2909,0.2957,0.3007,0.3063,0.3089,0.3115,0.314,0.312,0.3095,0.3071,0.3069,0.3058,0.3041,0.3084,0.3123,0.3149,0.3179,0.3204,0.3221,0.3206,0.3189,0.3186,0.3174,0.2589,0.1017,-0.0206,-0.1465,-0.3181,-0.5328,-0.661,-0.6818,-0.6815,-0.7665,-0.9375,-1.0869,-1.1501,-1.1911,-1.1911,-1.2545,-1.3391,-1.3607,-1.3607,-1.3607,-1.3607,-1.3607,-1.3597,-1.3526,-1.3769,2.0468,1.9734,1.9711,1.9189,1.8634,1.8432,1.823,1.7825,1.7319,1.708,1.6958,1.7053,1.6863,1.6442,1.6543,1.6433,1.6323,1.6386,1.6423,0.0,1.6637,1.6828,1.6761,1.7188,1.7236,1.6951,1.6768,1.6605,1.6476,1.6463,1.6551,1.672,1.6897,1.6978,1.6978,1.6137,1.4229,1.1474,0.9352,0.6597,0.3411,0.3382,0.3339,0.3283,0.3223,0.3145,0.3056,0.302,0.2986,0.2957,0.2947,0.2941,0.2936,0.2923,0.2911,0.2901,0.2923,0.2938,0.2936,0.2998,0.3048,0.3082,0.3097,0.3058,0.2949,0.2941,0.2977,0.3055,0.3071,0.3092,0.3126,0.3135,0.3142,0.3145,0.3141,0.3134,0.3131,0.313,0.3127,0.3122,0.3153,0.3174,0.318,0.3204,0.3221,0.3224,0.3209,0.319,0.3191,0.3206,0.303,0.2863,0.2701,0.1263,-0.17,-0.4687,-0.6608,-0.6818,-0.6815,-0.7237,-0.8302,-0.9367,-1.0428,-1.1699,-1.1911,-1.2545,-1.3391,-1.3607,-1.3391,-1.3391,-1.3391,-1.3607,-1.3607,-1.358,-1.3624,2.0755,2.03,2.0205,1.9851,1.9477,1.9276,1.8911,1.8375,1.8316,1.7875,1.7107,1.7161,1.7195,1.703,1.6841,1.6889,1.6965,1.683,1.6912,1.7127,1.7127,1.7158,1.7419,1.7586,1.7473,1.7338,1.7188,1.7032,1.689,1.6809,1.6802,1.6876,1.6951,1.6978,1.6978,1.6348,1.4862,1.2736,1.02,0.7447,0.4476,0.4016,0.3773,0.3325,0.3266,0.3202,0.3129,0.3097,0.3066,0.3037,0.302,0.3018,0.3033,0.302,0.301,0.3011,0.3039,0.3056,0.3055,0.3097,0.3127,0.3142,0.3142,0.3129,0.3089,0.3069,0.3077,0.3118,0.3137,0.3152,0.3167,0.3195,0.3215,0.3215,0.3215,0.3215,0.3213,0.3198,0.3185,0.3172,0.3179,0.3189,0.3189,0.32,0.3215,0.3224,0.3217,0.3205,0.3193,0.3227,0.3265,0.3295,0.3325,0.1889,-0.1274,-0.4474,-0.6608,-0.6818,-0.6815,-0.6812,-0.6809,-0.7234,-0.8083,-0.9572,-1.0212,-1.0843,-1.1483,-1.1694,-1.169,-1.1906,-1.2979,-1.3412,-1.3618,-1.3613,-1.3651,2.1092,2.084,2.071,2.0523,2.0328,1.9741,1.9415,1.9122,1.9111,1.8696,1.7732,1.7718,1.7763,1.7855,1.7625,1.7489,1.7622,1.749,1.7596,1.8046,1.7776,1.8011,1.8308,1.8213,1.8121,1.8072,1.7961,1.7586,1.7408,1.7291,1.7223,1.6985,1.6978,1.6978,1.6985,1.6341,1.5283,1.4002,1.1474,0.872,0.5536,0.4869,0.4217,0.3363,0.3321,0.3272,0.3221,0.3195,0.317,0.314,0.3122,0.312,0.3135,0.3122,0.3112,0.3115,0.3134,0.3148,0.3149,0.317,0.3183,0.3183,0.3183,0.3193,0.3212,0.3197,0.3176,0.3168,0.3183,0.32,0.3212,0.3246,0.3279,0.3284,0.3287,0.3283,0.3283,0.3265,0.3239,0.3215,0.3208,0.3208,0.32,0.3198,0.3208,0.3225,0.323,0.322,0.3208,0.3243,0.3285,0.3313,0.3326,0.1885,-0.1274,-0.4474,-0.6608,-0.682,-0.6818,-0.5962,-0.5109,-0.4255,-0.4892,-0.6592,-0.7444,-0.808,-0.9356,-0.978,-0.9996,-1.0424,-1.2142,-1.3645,-1.3635,-1.3618,-1.3629,2.1311,2.088,2.084,2.0637,2.0361,1.9867,1.9726,1.9789,1.9438,1.9357,1.911,1.9117,1.9155,1.8835,1.8899,1.8922,1.9065,1.9155,1.9187,1.9142,1.9276,1.9341,1.9148,1.9235,1.9309,1.9184,1.9147,1.8769,1.8088,1.8046,1.7756,1.6992,1.6978,1.6992,1.6985,1.6137,1.571,1.5072,1.338,1.0623,0.6807,0.6169,0.5088,0.3367,0.3362,0.3343,0.3306,0.3306,0.329,0.3265,0.3279,0.3283,0.3262,0.328,0.3294,0.3292,0.3295,0.33,0.3298,0.3303,0.3299,0.3305,0.3298,0.3299,0.3305,0.3303,0.328,0.3238,0.3225,0.3239,0.3264,0.3276,0.3291,0.3314,0.3318,0.3317,0.3318,0.3314,0.33,0.3272,0.3262,0.3257,0.323,0.3223,0.3224,0.3224,0.3232,0.3231,0.3227,0.3255,0.3291,0.332,0.3343,0.1896,-0.1062,-0.4474,-0.6182,-0.6608,-0.682,-0.5539,-0.3194,-0.149,-0.1276,-0.3828,-0.4464,-0.5525,-0.7016,-0.8083,-0.8511,-0.9155,-1.1082,-1.345,-1.364,-1.3618,-1.3624,2.1311,2.1019,2.1019,2.0864,2.0669,2.0505,2.0594,2.0491,2.041,2.0528,2.0615,2.0623,2.0272,1.9608,1.9577,1.9891,2.0304,2.0369,2.0442,2.0261,2.0198,1.9916,1.9875,1.9777,1.9588,1.9521,1.9431,1.9312,1.8762,1.8445,1.7939,1.7249,1.7243,1.7243,1.7243,1.7023,1.6596,1.6589,1.5229,1.2626,0.9195,0.7252,0.553,0.3607,0.3393,0.338,0.3351,0.3348,0.3333,0.3306,0.3314,0.3315,0.3303,0.3314,0.3321,0.3321,0.3321,0.3321,0.3321,0.3321,0.3321,0.3321,0.3321,0.3321,0.3321,0.3321,0.331,0.329,0.3284,0.329,0.3302,0.3318,0.3335,0.3348,0.3363,0.3374,0.3374,0.3358,0.3336,0.3307,0.3287,0.3265,0.3238,0.323,0.3223,0.3216,0.3231,0.325,0.3238,0.327,0.3313,0.3341,0.3359,0.211,-0.0638,-0.277,-0.4689,-0.6182,-0.6823,-0.5541,-0.1491,0.0852,0.1064,-0.149,-0.1914,-0.2552,-0.3829,-0.4896,-0.5536,-0.6602,-0.8093,-1.0228,-1.3005,-1.3635,-1.3624,2.1433,2.1278,2.1222,2.1092,2.0937,2.0978,2.1043,2.1132,2.1181,2.127,2.1376,2.1384,2.11,2.0536,2.0363,2.0523,2.0986,2.0954,2.1027,2.1181,2.0762,2.0615,2.0717,2.0285,2.0065,2.005,1.9943,1.986,1.9589,1.8784,1.8065,1.7635,1.7419,1.7419,1.7419,1.7419,1.7419,1.719,1.62,1.3765,1.0524,0.8329,0.5962,0.3624,0.3411,0.3401,0.3381,0.3378,0.3369,0.3347,0.3345,0.3345,0.3345,0.3345,0.3345,0.3345,0.3345,0.3345,0.3345,0.3345,0.3345,0.3345,0.3345,0.3345,0.3345,0.3345,0.3345,0.3345,0.3345,0.3344,0.3337,0.3354,0.3369,0.3378,0.34,0.3411,0.3408,0.339,0.3367,0.3337,0.3309,0.3273,0.324,0.323,0.3225,0.3224,0.325,0.3276,0.3265,0.33,0.3343,0.3363,0.3373,0.2328,0.0,-0.1278,-0.2985,-0.5117,-0.6184,-0.4474,-0.0213,0.2342,0.3196,0.0852,0.0426,0.0213,-0.0213,-0.1065,-0.213,-0.2769,-0.4471,-0.7237,-1.0441,-1.193,-1.3201,2.1806,2.162,2.1449,2.1287,2.1132,2.1287,2.127,2.1157,2.1295,2.1376,2.1384,2.1384,2.1376,2.1352,2.0964,2.1197,2.1319,2.1181,2.1197,2.1343,2.136,2.1368,2.1384,2.1384,2.1384,2.1164,2.114,2.0841,2.0256,1.9014,1.8273,1.8288,1.7662,1.7433,1.7446,1.7453,1.7433,1.7224,1.6226,1.377,1.0746,0.9181,0.6809,0.3837,0.3411,0.341,0.3408,0.3408,0.3407,0.3407,0.3403,0.3405,0.3405,0.3405,0.3404,0.3404,0.3405,0.3405,0.3404,0.3403,0.3403,0.3404,0.34,0.3405,0.3399,0.3399,0.3399,0.3405,0.34,0.339,0.3369,0.3369,0.3381,0.3403,0.341,0.3411,0.3411,0.3408,0.3396,0.3366,0.3333,0.3295,0.3242,0.323,0.3247,0.3262,0.3275,0.3285,0.3309,0.334,0.336,0.3369,0.3386,0.2769,0.1278,0.0213,-0.1492,-0.341,-0.4048,-0.3195,0.0426,0.341,0.3198,0.2985,0.2558,0.2557,0.2985,0.2558,0.1279,-0.0,-0.213,-0.4683,-0.66,-1.0,-1.1916,2.1896,2.1831,2.1766,2.1636,2.1481,2.1538,2.1457,2.1303,2.1352,2.1384,2.1384,2.1384,2.1384,2.1376,2.1319,2.1327,2.1376,2.1319,2.1327,2.1376,2.1384,2.1384,2.1384,2.1384,2.1384,2.1384,2.1384,2.1132,2.042,1.9913,1.9235,1.8579,1.8368,1.8149,1.7704,1.7704,1.7704,1.7677,1.6391,1.3879,1.0827,0.9206,0.6809,0.3624,0.3411,0.3411,0.3411,0.3411,0.3411,0.3411,0.3411,0.3411,0.3411,0.3411,0.3411,0.3411,0.3411,0.3411,0.3411,0.3411,0.3411,0.3411,0.3411,0.3411,0.3411,0.3411,0.3411,0.3411,0.3411,0.3405,0.34,0.3396,0.3399,0.3408,0.3411,0.3411,0.3411,0.3411,0.34,0.337,0.334,0.331,0.3294,0.3288,0.3292,0.3303,0.3321,0.3328,0.3325,0.3348,0.3367,0.3367,0.3375,0.3177,0.277,0.1705,0.0426,-0.0853,-0.1279,-0.0213,0.2344,0.3198,0.3198,0.3198,0.3411,0.3411,0.3198,0.3198,0.2345,0.0853,-0.1065,0.0,-0.2341,-0.7016,-1.0424,2.2107,2.2107,2.2107,2.2001,2.1847,2.1831,2.1701,2.149,2.1473,2.1441,2.1392,2.1384,2.1384,2.1384,2.1384,2.1384,2.1384,2.1376,2.1384,2.1384,2.1384,2.1384,2.1384,2.1384,2.1384,2.1384,2.1384,2.1164,2.0725,2.0505,2.0073,1.8971,1.8757,1.853,1.8088,1.786,1.786,1.7592,1.6525,1.3988,1.0882,0.9247,0.6828,0.4052,0.3411,0.3411,0.3411,0.3411,0.3411,0.3411,0.3411,0.3411,0.3411,0.3411,0.3411,0.3411,0.3411,0.3411,0.3411,0.3411,0.3411,0.3411,0.3411,0.3411,0.3411,0.3411,0.3411,0.3411,0.3411,0.3411,0.3411,0.3411,0.3411,0.3411,0.3411,0.3411,0.3411,0.3411,0.3397,0.3371,0.3351,0.3333,0.3322,0.332,0.332,0.3321,0.3347,0.3355,0.3344,0.3351,0.3367,0.3367,0.3367,0.3377,0.318,0.255,0.213,0.1066,0.0639,0.1918,0.2558,0.3198,0.3411,0.3411,0.3411,0.3411,0.3411,0.3411,0.2558,0.1279,0.0,0.0,0.0,0.0,-0.8936,2.2456,2.244,2.2456,2.2318,2.2156,2.2139,2.1977,2.1693,2.1652,2.1546,2.1425,2.1392,2.1384,2.1384,2.1384,2.1384,2.1384,2.1384,2.1384,2.1384,2.1384,2.1384,2.1384,2.1384,2.1384,2.1384,2.1384,2.1384,2.1384,2.0725,2.0293,1.9632,1.8978,1.853,1.786,1.786,1.786,1.7605,1.6601,1.4059,1.0899,0.9305,0.7089,0.3848,0.3419,0.3419,0.3416,0.3414,0.3412,0.3415,0.3412,0.3411,0.3411,0.3411,0.3411,0.3411,0.3411,0.3411,0.3411,0.3411,0.3411,0.3411,0.3411,0.3411,0.3411,0.3411,0.3411,0.3411,0.3411,0.3411,0.3411,0.3411,0.3411,0.3411,0.3411,0.3411,0.3411,0.3411,0.34,0.3374,0.3365,0.3354,0.3332,0.3326,0.3328,0.3333,0.3348,0.3362,0.3354,0.3356,0.3363,0.3363,0.3354,0.3351,0.337,0.3389,0.3401,0.3198,0.2772,0.3198,0.2985,0.3411,0.3411,0.3411,0.3411,0.3411,0.3411,0.3411,0.3411,0.0,0.0,0.0,0.0,-0.4044,-0.8518,2.2464,2.2464,2.2464,2.2359,2.2204,2.2188,2.205,2.1847,2.1717,2.1628,2.1563,2.1441,2.1384,2.1384,2.1384,2.1384,2.1384,2.1384,2.1384,2.1384,2.1384,2.1384,2.1384,2.1384,2.1384,2.1384,2.1384,2.1384,2.1384,2.1164,2.0725,1.9853,1.9412,1.875,1.7867,1.786,1.786,1.7846,1.6614,1.4097,1.0984,0.9386,0.6954,0.3909,0.3474,0.3475,0.3472,0.3434,0.3423,0.3441,0.3423,0.3411,0.3412,0.3411,0.3411,0.3411,0.3411,0.3411,0.3412,0.3412,0.3414,0.3412,0.3412,0.3411,0.3411,0.3412,0.3412,0.3412,0.3411,0.3411,0.3411,0.3411,0.3411,0.3411,0.3411,0.3411,0.3411,0.3411,0.3397,0.3377,0.3385,0.3382,0.3362,0.3352,0.3351,0.3351,0.3362,0.3363,0.3343,0.3341,0.3335,0.3335,0.3325,0.333,0.3354,0.338,0.3397,0.3408,0.3411,0.3411,0.3411,0.3411,0.3411,0.3411,0.3411,0.3411,0.3411,0.3411,0.3411,0.3411,0.0,0.0,0.0,-0.3194,-0.6812,2.2464,2.2464,2.2464,2.2399,2.2302,2.2294,2.2196,2.2026,2.1912,2.179,2.1652,2.1538,2.1449,2.1408,2.1457,2.1449,2.14,2.1449,2.1449,2.1392,2.1384,2.1384,2.1384,2.1384,2.1384,2.1384,2.1384,2.1384,2.1384,2.1384,2.0945,2.0073,1.9632,1.9192,1.8309,1.8088,1.786,1.7626,1.6671,1.4387,1.1695,0.989,0.7451,0.4596,0.3938,0.3727,0.3513,0.3471,0.3454,0.3468,0.3454,0.3446,0.3445,0.3446,0.3445,0.3445,0.3446,0.3446,0.3445,0.3449,0.3445,0.3445,0.3445,0.344,0.3433,0.3429,0.3426,0.3414,0.3411,0.3411,0.3411,0.3411,0.3411,0.3411,0.3411,0.3411,0.3411,0.3411,0.3405,0.3393,0.34,0.34,0.3389,0.3384,0.3377,0.3371,0.3165,0.3162,0.3348,0.334,0.3335,0.3332,0.333,0.3339,0.3347,0.3369,0.3392,0.3403,0.3411,0.3411,0.3411,0.3411,0.3411,0.3411,0.3411,0.3411,0.3411,0.3411,0.3411,0.3411,0.3411,0.2558,0.1278,-0.0638,-0.404,2.2464,2.2464,2.2464,2.2464,2.2448,2.2448,2.2359,2.2221,2.2172,2.1993,2.1758,2.1668,2.1579,2.149,2.1587,2.1571,2.1473,2.1595,2.1603,2.1498,2.1457,2.1465,2.1433,2.14,2.1384,2.1384,2.1384,2.1384,2.1384,2.1384,2.1164,2.0505,1.9853,1.9412,1.875,1.8088,1.786,1.786,1.6748,1.4906,1.2607,1.0836,0.8601,0.5702,0.4828,0.4183,0.3539,0.3521,0.3505,0.3502,0.3497,0.3494,0.3499,0.3502,0.3497,0.3494,0.3499,0.3497,0.3499,0.3493,0.3494,0.3493,0.3491,0.3491,0.3464,0.3454,0.3442,0.3422,0.3415,0.3411,0.3411,0.3411,0.3412,0.3415,0.3419,0.3419,0.3418,0.3422,0.3422,0.3418,0.3415,0.3415,0.3416,0.3414,0.3403,0.339,0.3188,0.3397,0.3385,0.3373,0.3356,0.335,0.3347,0.3341,0.335,0.3365,0.3388,0.3404,0.3411,0.3411,0.3411,0.3411,0.3411,0.3411,0.3414,0.3414,0.3411,0.3412,0.3411,0.3411,0.3411,0.3411,0.2343,0.0639,-0.1064,2.2464,2.2464,2.2464,2.2464,2.2464,2.2464,2.244,2.2375,2.2245,2.2139,2.2001,2.1774,2.1717,2.1774,2.1693,2.1701,2.1774,2.1831,2.1847,2.1798,2.179,2.1709,2.1579,2.1449,2.1384,2.1384,2.1384,2.1384,2.1384,2.1384,2.1164,2.0505,2.0285,1.9632,1.875,1.853,1.8309,1.786,1.7203,1.5856,1.4038,1.2477,1.0028,0.6903,0.6011,0.4905,0.3801,0.3572,0.3544,0.3506,0.3504,0.3504,0.3506,0.3506,0.3508,0.3508,0.3506,0.3505,0.3505,0.3506,0.3505,0.3504,0.3509,0.3499,0.3491,0.3471,0.3456,0.3441,0.3427,0.3414,0.3412,0.3414,0.3423,0.3441,0.3448,0.3454,0.3469,0.3479,0.3471,0.3452,0.3464,0.3463,0.345,0.3445,0.3441,0.3435,0.3437,0.3444,0.3429,0.3414,0.3399,0.3377,0.3369,0.3355,0.3352,0.3366,0.3384,0.3404,0.3411,0.3411,0.3411,0.3411,0.3411,0.3411,0.3419,0.3422,0.3415,0.3412,0.3412,0.3415,0.3411,0.3411,0.3411,0.2343,0.1278,2.2464,2.2464,2.2464,2.2464,2.2464,2.2464,2.2464,2.2448,2.2359,2.2261,2.2156,2.1985,2.1904,2.1928,2.1904,2.1896,2.1944,2.2009,2.1993,2.1936,2.192,2.1823,2.1668,2.1538,2.1465,2.1384,2.1384,2.1384,2.1384,2.1384,2.1164,2.0945,2.0285,1.9853,1.9192,1.853,1.8309,1.786,1.6982,1.5886,1.482,1.281,1.0375,0.7903,0.6547,0.5178,0.3818,0.3602,0.3585,0.355,0.354,0.3539,0.3539,0.3539,0.3539,0.3539,0.3539,0.3539,0.3539,0.3539,0.3539,0.354,0.3539,0.3531,0.3521,0.3502,0.3493,0.3475,0.3459,0.3452,0.3449,0.345,0.3464,0.3489,0.3494,0.3497,0.3504,0.3501,0.3494,0.3486,0.349,0.3498,0.3478,0.3476,0.3476,0.3475,0.3474,0.3476,0.3472,0.3457,0.344,0.3416,0.3405,0.3399,0.3388,0.3395,0.341,0.3427,0.3418,0.3416,0.3419,0.3418,0.3414,0.3415,0.3425,0.3429,0.3426,0.3422,0.3423,0.3423,0.3416,0.3411,0.3411,0.3411,0.2344,2.2464,2.2464,2.2464,2.2464,2.2464,2.2464,2.2464,2.2464,2.2456,2.2367,2.2245,2.2204,2.2107,2.2001,2.2099,2.2115,2.2017,2.2164,2.2131,2.2066,2.2026,2.1944,2.179,2.1717,2.1628,2.1514,2.1449,2.1473,2.1506,2.1481,2.1457,2.1048,2.0378,1.9699,1.9294,1.8607,1.8129,1.7693,1.7059,1.5976,1.4915,1.2682,1.0234,0.7992,0.6138,0.4755,0.3841,0.3621,0.3621,0.36,0.3596,0.3589,0.3588,0.3588,0.3587,0.3584,0.358,0.3581,0.3587,0.3581,0.3585,0.3583,0.3583,0.3579,0.3554,0.354,0.3527,0.3508,0.3505,0.3494,0.3495,0.3501,0.3512,0.3531,0.354,0.3536,0.3519,0.3512,0.3512,0.3512,0.3513,0.3512,0.3512,0.3512,0.3513,0.3523,0.3521,0.3521,0.3517,0.3504,0.348,0.3452,0.3448,0.3449,0.3437,0.3426,0.3441,0.3454,0.3435,0.3429,0.3434,0.3431,0.342,0.342,0.3435,0.3442,0.3442,0.344,0.344,0.343,0.3423,0.3416,0.3411,0.3411,0.277,2.2464,2.2464,2.2464,2.2464,2.2464,2.2464,2.2464,2.2464,2.2464,2.244,2.2383,2.2261,2.2261,2.2334,2.2253,2.2237,2.231,2.2375,2.2383,2.2367,2.235,2.2245,2.2074,2.1953,2.1855,2.1798,2.1806,2.1806,2.1798,2.1774,2.1582,2.1111,2.0632,2.0237,1.9324,1.9071,1.8601,1.8084,1.7471,1.6115,1.4515,1.2995,1.0528,0.7573,0.5249,0.4104,0.3655,0.3644,0.3644,0.3651,0.364,0.3619,0.3599,0.3591,0.3589,0.3589,0.3589,0.3589,0.3589,0.3589,0.3589,0.3589,0.3589,0.3587,0.3581,0.3557,0.3544,0.3531,0.3517,0.351,0.351,0.3525,0.3538,0.355,0.3565,0.3576,0.3572,0.3569,0.3565,0.3566,0.3566,0.357,0.3569,0.3565,0.3565,0.3569,0.3569,0.3569,0.3559,0.3546,0.3521,0.349,0.3484,0.3486,0.3479,0.3464,0.3461,0.3463,0.3442,0.344,0.3445,0.3445,0.3434,0.3438,0.345,0.3456,0.3464,0.3463,0.3463,0.3446,0.3433,0.3431,0.3429,0.3422,0.2781,2.2464,2.2464,2.2464,2.2464,2.2464,2.2464,2.2464,2.2464,2.2464,2.2464,2.2448,2.235,2.2383,2.2456,2.2375,2.2383,2.2448,2.2464,2.2464,2.2456,2.2456,2.2407,2.2342,2.2212,2.2123,2.1985,2.1928,2.1936,2.1936,2.1944,2.1462,2.1019,2.0802,2.0095,1.922,1.9001,1.85,1.8001,1.7362,1.6015,1.4201,1.2415,0.969,0.6696,0.4604,0.3682,0.3677,0.3682,0.3678,0.3679,0.3677,0.3656,0.3615,0.3598,0.3591,0.3589,0.3589,0.3589,0.3589,0.3589,0.3589,0.3591,0.3589,0.3589,0.3588,0.3573,0.3568,0.3564,0.3554,0.3544,0.3544,0.3554,0.3565,0.3568,0.3579,0.3589,0.3589,0.3589,0.3589,0.3589,0.3585,0.3587,0.3589,0.3589,0.3588,0.3579,0.3579,0.358,0.358,0.3568,0.3555,0.3535,0.3525,0.352,0.3517,0.3504,0.3482,0.3467,0.344,0.3444,0.3453,0.345,0.3446,0.3463,0.3482,0.3489,0.3495,0.3491,0.3487,0.3478,0.3468,0.3459,0.3454,0.3461,0.2597,2.2464,2.2464,2.2464,2.2464,2.2464,2.2464,2.2464,2.2464,2.2464,2.2464,2.2464,2.2464,2.2448,2.2464,2.2464,2.2464,2.2464,2.2464,2.2464,2.2464,2.2464,2.2456,2.2432,2.2399,2.2302,2.2034,2.2058,2.2058,2.205,2.2017,2.1621,2.0894,2.0433,1.9789,1.9085,1.8617,1.8389,1.8135,1.7257,1.5447,1.3423,1.1147,0.8382,0.5359,0.4184,0.3714,0.3707,0.3711,0.3715,0.3697,0.3715,0.3696,0.3658,0.3622,0.3604,0.3606,0.3611,0.3614,0.3615,0.361,0.3609,0.3599,0.3598,0.3594,0.3592,0.3588,0.3585,0.3585,0.3581,0.3581,0.3588,0.3585,0.3585,0.3588,0.3588,0.3589,0.3589,0.3589,0.3589,0.3589,0.3589,0.3589,0.3589,0.3589,0.3589,0.3589,0.3589,0.3589,0.3589,0.3587,0.3573,0.3568,0.3557,0.3539,0.3534,0.3527,0.3506,0.3478,0.3445,0.345,0.3463,0.3469,0.3475,0.3499,0.3516,0.3521,0.3525,0.3524,0.352,0.3512,0.3498,0.3483,0.3487,0.3501,0.2406,2.2464,2.2464,2.2464,2.2464,2.2464,2.2464,2.2464,2.2464,2.2464,2.2464,2.2464,2.2464,2.2464,2.2464,2.2464,2.2464,2.2464,2.2464,2.2464,2.2464,2.2464,2.2464,2.2464,2.2464,2.2415,2.2407,2.235,2.2334,2.2342,2.2375,2.1852,2.0965,2.0497,2.0037,1.9108,1.8681,1.8593,1.8295,1.7192,1.5138,1.2326,0.9808,0.7504,0.446,0.3742,0.3738,0.3745,0.3737,0.3734,0.3752,0.3737,0.3723,0.3705,0.3679,0.3666,0.3658,0.3656,0.3654,0.3655,0.366,0.3651,0.3636,0.3625,0.3613,0.3599,0.3589,0.3589,0.3589,0.3589,0.3589,0.3589,0.3589,0.3589,0.3589,0.3589,0.3589,0.3589,0.3589,0.3589,0.3589,0.3589,0.3589,0.3589,0.3589,0.3589,0.3589,0.3589,0.3589,0.3589,0.3589,0.3585,0.3584,0.3584,0.3565,0.3547,0.3538,0.3524,0.3494,0.3469,0.3463,0.3475,0.3491,0.3508,0.3531,0.3544,0.355,0.3553,0.3554,0.3549,0.3539,0.3523,0.3506,0.3516,0.3527,0.3519,2.2464,2.2464,2.2464,2.2464,2.2464,2.2464,2.2464,2.2464,2.2464,2.2464,2.2464,2.2464,2.2464,2.2464,2.2464,2.2464,2.2464,2.2464,2.2464,2.2464,2.2464,2.2464,2.2464,2.2464,2.2464,2.2464,2.2464,2.2464,2.2464,2.2456,2.2003,2.1302,2.084,2.0139,1.9451,1.898,1.8721,1.8443,1.7317,1.4994,1.1204,0.8453,0.5415,0.4471,0.376,0.3759,0.3764,0.3761,0.3756,0.3765,0.3759,0.3752,0.3745,0.3734,0.3712,0.369,0.3684,0.3682,0.3682,0.3681,0.3671,0.366,0.3647,0.363,0.3614,0.3602,0.3591,0.3589,0.3589,0.3589,0.3589,0.3589,0.3589,0.3589,0.3589,0.3589,0.3589,0.3589,0.3589,0.3589,0.3589,0.3589,0.3589,0.3589,0.3589,0.3589,0.3589,0.3589,0.3589,0.3589,0.3589,0.3589,0.3589,0.3577,0.3555,0.354,0.3529,0.3504,0.3483,0.3478,0.3486,0.3501,0.3531,0.3562,0.357,0.3572,0.3574,0.3573,0.3569,0.3566,0.3557,0.3549,0.355,0.3549,0.354,2.2464,2.2464,2.2464,2.2464,2.2464,2.2464,2.2464,2.2464,2.2464,2.2695,2.2695,2.2925,2.2925,2.3155,2.3155,2.3155,2.2925,2.2695,2.2695,2.2464,2.2464,2.2464,2.2464,2.2464,2.2464,2.2464,2.2464,2.2464,2.2464,2.2464,2.2003,2.1541,2.1071,2.0377,1.9683,1.9226,1.8994,1.853,1.76,1.5026,1.0825,0.6603,0.378,0.378,0.378,0.3778,0.3772,0.3769,0.3768,0.3771,0.3769,0.3769,0.3771,0.3772,0.3749,0.3709,0.37,0.3699,0.3701,0.3703,0.3704,0.369,0.3662,0.3645,0.3628,0.3607,0.3589,0.3589,0.3589,0.3589,0.3589,0.3589,0.3589,0.3589,0.3589,0.3589,0.3589,0.3589,0.3589,0.3589,0.3589,0.3589,0.3589,0.3589,0.3589,0.3589,0.3589,0.3589,0.3589,0.3589,0.3589,0.3589,0.3588,0.3583,0.3564,0.3538,0.3524,0.3505,0.3487,0.3478,0.3493,0.3509,0.354,0.3568,0.3583,0.3583,0.3588,0.3589,0.3583,0.358,0.3587,0.3584,0.3573,0.3572,0.3569,2.2464,2.2464,2.2464,2.2464,2.2464,2.2464,2.2464,2.2464,2.2464,2.2925,2.3386,2.3837,2.4288,2.4976,2.4976,2.4517,2.4067,2.3607,2.3155,2.2695,2.2464,2.2464,2.2464,2.2464,2.2464,2.2464,2.2464,2.2464,2.2464,2.2464,2.2234,2.1541,2.131,2.0848,1.9914,1.969,1.9226,1.8762,1.76,1.4373,0.9965,0.5948,0.4286,0.3809,0.3806,0.3795,0.3776,0.3772,0.3772,0.3772,0.3772,0.3772,0.3772,0.3772,0.3769,0.3763,0.3761,0.3761,0.3754,0.375,0.3741,0.3719,0.369,0.3664,0.3633,0.3607,0.3589,0.3589,0.3589,0.3589,0.3589,0.3589,0.3589,0.3589,0.3589,0.3589,0.3589,0.3589,0.3589,0.3589,0.3589,0.3589,0.3589,0.3589,0.3589,0.3589,0.3589,0.3589,0.3589,0.3589,0.3589,0.3589,0.3589,0.3584,0.3568,0.3542,0.3527,0.3509,0.349,0.348,0.3502,0.352,0.3534,0.3558,0.3574,0.3588,0.3589,0.3589,0.3589,0.3589,0.3589,0.3589,0.3588,0.3589,0.3589,2.3846,2.2464,2.2464,2.2464,2.2464,2.2464,2.2464,2.2464,2.2464,2.2925,2.4058,2.4967,2.6092,2.7459,2.7459,2.6558,2.5406,2.4737,2.3607,2.2695,2.2464,2.2464,2.2464,2.2464,2.2464,2.2464,2.2464,2.2464,2.2464,2.2472,2.2242,2.2011,2.1541,2.1079,2.0146,1.9914,1.9451,1.8311,1.6256,1.3287,1.0037,0.695,0.479,0.4296,0.4056,0.3801,0.378,0.3772,0.3772,0.3772,0.3772,0.3772,0.3772,0.3772,0.3771,0.3771,0.3771,0.3769,0.3769,0.3772,0.3763,0.3745,0.3708,0.366,0.3621,0.3599,0.3589,0.3589,0.3589,0.3589,0.3589,0.3589,0.3589,0.3589,0.3589,0.3589,0.3589,0.3589,0.3589,0.3589,0.3589,0.3589,0.3589,0.3589,0.3589,0.3589,0.3589,0.3589,0.3589,0.3589,0.3589,0.3589,0.3588,0.3587,0.3566,0.3544,0.3536,0.3516,0.3484,0.3484,0.3513,0.3532,0.354,0.3549,0.3562,0.3574,0.3584,0.3589,0.3589,0.3589,0.3589,0.3589,0.3589,0.3589,0.3365,2.5835,2.4279,2.3607,2.3386,2.3386,2.3386,2.3386,2.3386,2.3386,2.4067,2.5425,2.6776,2.8812,2.9943,2.9717,2.8585,2.6994,2.6092,2.4508,2.3377,2.2695,2.2695,2.2464,2.2464,2.2464,2.2464,2.2464,2.2464,2.248,2.2505,2.2529,2.2472,2.2003,2.131,2.0609,2.0153,1.9697,1.8377,1.5616,1.3358,1.1072,0.7949,0.6254,0.5279,0.4545,0.3813,0.3788,0.3784,0.3784,0.3772,0.3772,0.3772,0.3772,0.3772,0.3772,0.3772,0.3772,0.3772,0.3772,0.3772,0.3772,0.3753,0.3715,0.3656,0.3603,0.3589,0.3589,0.3589,0.3589,0.3589,0.3589,0.3589,0.3589,0.3589,0.3589,0.3589,0.3589,0.3589,0.3589,0.3589,0.3589,0.3589,0.3589,0.3589,0.3589,0.3589,0.3589,0.3589,0.3589,0.3589,0.3589,0.3589,0.3589,0.3588,0.3574,0.3555,0.3544,0.3529,0.3497,0.3494,0.3525,0.3534,0.3534,0.3543,0.3551,0.3558,0.3566,0.3579,0.3589,0.3589,0.3589,0.3589,0.3589,0.3589,0.3589,2.9063,2.9038,2.6795,2.5901,2.5891,2.5901,2.5891,2.5891,2.5882,2.6558,2.8131,2.9976,3.1781,3.2679,3.1994,3.0857,2.9275,2.7697,2.5882,2.4517,2.3607,2.3155,2.2695,2.2464,2.2464,2.2464,2.2464,2.2464,2.2505,2.261,2.257,2.2497,2.2314,2.1564,2.0878,2.0233,1.9599,1.8261,1.619,1.4632,1.2567,0.9927,0.7494,0.6307,0.5075,0.3843,0.3816,0.381,0.3795,0.3775,0.3772,0.3772,0.3772,0.3772,0.3772,0.3772,0.3772,0.3772,0.3772,0.3772,0.3769,0.3753,0.3715,0.3655,0.3598,0.3589,0.3589,0.3589,0.3589,0.3589,0.3589,0.3589,0.3589,0.3589,0.3589,0.3589,0.3589,0.3589,0.3589,0.3589,0.3589,0.3589,0.3589,0.3589,0.3589,0.3589,0.3589,0.3589,0.3589,0.3589,0.3589,0.3589,0.3589,0.3588,0.3585,0.3569,0.3544,0.3542,0.3528,0.3528,0.3543,0.3542,0.3524,0.3529,0.3536,0.3543,0.3553,0.3572,0.3587,0.3588,0.3589,0.3589,0.3589,0.3589,0.3589,3.1762,3.1769,3.0879,2.9739,2.8348,2.8224,2.8235,2.8327,2.8224,2.9277,3.1103,3.3044,3.4482,3.4928,3.4705,3.334,3.1982,3.0417,2.8141,2.6092,2.4737,2.3828,2.3147,2.2464,2.2464,2.2464,2.2464,2.2464,2.2489,2.2659,2.2683,2.2659,2.2732,2.2087,2.1157,2.0188,1.9338,1.8483,1.7103,1.5992,1.3905,1.1,0.854,0.7304,0.5113,0.4102,0.3825,0.3817,0.3798,0.378,0.3773,0.3772,0.3772,0.3772,0.3772,0.3772,0.3772,0.3772,0.3772,0.3768,0.3756,0.3716,0.369,0.3655,0.3598,0.3589,0.3589,0.3589,0.3589,0.3589,0.3589,0.3589,0.3589,0.3589,0.3589,0.3589,0.3589,0.3589,0.3589,0.3589,0.3589,0.3589,0.3589,0.3589,0.3589,0.3589,0.3589,0.3589,0.3589,0.3589,0.3589,0.3589,0.3589,0.3589,0.3588,0.3566,0.354,0.3547,0.3554,0.3551,0.3549,0.3524,0.3512,0.3517,0.3523,0.3529,0.3544,0.357,0.3584,0.3588,0.3589,0.3589,0.3589,0.3589,0.3589,3.4033,3.4345,3.427,3.2984,3.0812,3.0667,3.0689,3.0801,3.0689,3.1704,3.3728,3.5075,3.6054,3.6498,3.6276,3.5374,3.3576,3.2219,2.9502,2.7459,2.5644,2.4279,2.3147,2.2464,2.2464,2.2464,2.2464,2.2464,2.248,2.2692,2.2789,2.2878,2.3016,2.2378,2.1086,1.9929,1.9039,1.8673,1.8237,1.7326,1.5473,1.226,0.9815,0.8059,0.5615,0.4131,0.3854,0.384,0.3817,0.3794,0.3779,0.3772,0.3772,0.3772,0.3772,0.3772,0.3772,0.3772,0.3772,0.3767,0.3744,0.3699,0.3685,0.3648,0.3609,0.3589,0.3589,0.3589,0.3589,0.3589,0.3589,0.3589,0.3589,0.3589,0.3589,0.3589,0.3589,0.3589,0.3589,0.3589,0.3589,0.3589,0.3589,0.3589,0.3589,0.3589,0.3589,0.3589,0.3589,0.3589,0.3589,0.3589,0.3589,0.3589,0.3588,0.3564,0.3544,0.3561,0.3564,0.3551,0.3542,0.3519,0.3505,0.351,0.3516,0.352,0.354,0.3569,0.3581,0.3589,0.3589,0.3589,0.3589,0.3589,0.3589,3.579,3.6446,3.6015,3.4913,3.334,3.3352,3.334,3.3352,3.3328,3.3974,3.5062,3.5806,3.6276,3.6719,3.6498,3.5818,3.4928,3.3364,3.0879,2.8368,2.6776,2.4737,2.3147,2.2464,2.2464,2.2464,2.2464,2.2464,2.2472,2.2789,2.2927,2.3057,2.2989,2.2606,2.1145,1.9929,1.9291,1.9413,1.9207,1.8568,1.6669,1.3701,1.1263,0.9074,0.6122,0.4391,0.4128,0.3859,0.3836,0.381,0.3782,0.3773,0.3772,0.3772,0.3772,0.3772,0.3772,0.3772,0.3772,0.3772,0.3739,0.3693,0.3681,0.3652,0.3606,0.3589,0.3589,0.3589,0.3589,0.3589,0.3589,0.3589,0.3589,0.3589,0.3589,0.3589,0.3589,0.3589,0.3589,0.3589,0.3589,0.3589,0.3589,0.3589,0.3589,0.3589,0.3589,0.3589,0.3589,0.3589,0.3589,0.3589,0.3589,0.3589,0.3584,0.3561,0.3551,0.3569,0.3572,0.3558,0.3542,0.3523,0.3513,0.351,0.3509,0.3514,0.354,0.3569,0.358,0.3589,0.3589,0.3589,0.3589,0.3589,0.3589,3.5965,3.65,3.6406,3.6141,3.5754,3.5417,3.5469,3.578,3.5818,3.5949,3.6066,3.6392,3.6719,3.6719,3.6719,3.6484,3.6041,3.4928,3.2443,2.9265,2.7914,2.5196,2.3377,2.2695,2.2464,2.2464,2.2464,2.2464,2.2472,2.2822,2.2968,2.309,2.287,2.225,2.1225,2.0225,1.9549,1.9576,1.959,1.8882,1.7447,1.4715,1.2265,1.059,0.7128,0.5152,0.4639,0.4363,0.3847,0.382,0.3791,0.3773,0.3772,0.3772,0.3772,0.3772,0.3772,0.3772,0.3772,0.3767,0.3742,0.3704,0.3679,0.3656,0.3602,0.3591,0.3589,0.3589,0.3591,0.3591,0.3589,0.3589,0.3589,0.3589,0.3589,0.3589,0.3589,0.3589,0.3589,0.3589,0.3589,0.3589,0.3589,0.3589,0.3589,0.3589,0.3589,0.3589,0.3589,0.3589,0.3589,0.3589,0.3589,0.3589,0.3583,0.3565,0.3562,0.3577,0.3574,0.3561,0.3543,0.3531,0.3529,0.3529,0.3519,0.3512,0.3543,0.3572,0.3583,0.3589,0.3589,0.3589,0.3589,0.3589,0.3589,3.5765,3.6179,3.6193,3.6366,3.658,3.634,3.646,3.678,3.6887,3.6821,3.6727,3.6874,3.6941,3.6941,3.6941,3.6941,3.6719,3.5596,3.38,3.0395,2.8822,2.6329,2.4067,2.2925,2.2695,2.2695,2.2464,2.2472,2.2489,2.283,2.3065,2.3005,2.2452,2.2054,2.1328,2.0359,1.9644,1.9644,1.9644,1.9158,1.7715,1.5749,1.3796,1.1587,0.8879,0.6418,0.5631,0.4612,0.3851,0.3827,0.3799,0.3775,0.3773,0.3772,0.3772,0.3772,0.3772,0.3772,0.3772,0.3772,0.3746,0.3707,0.3697,0.3671,0.3629,0.3617,0.361,0.3606,0.3598,0.3591,0.3589,0.3589,0.3589,0.3589,0.3592,0.3592,0.3603,0.3604,0.36,0.3599,0.3591,0.3591,0.3589,0.3589,0.3589,0.3589,0.3589,0.3589,0.3589,0.3589,0.3589,0.3589,0.3589,0.3589,0.3587,0.3577,0.3579,0.3588,0.358,0.3568,0.3562,0.3551,0.3551,0.3549,0.3538,0.3536,0.3555,0.3576,0.3585,0.3589,0.3589,0.3589,0.3589,0.3589,0.3589,3.5378,3.5605,3.5631,3.5832,3.6099,3.6366,3.65,3.6527,3.6821,3.6927,3.6927,3.6914,3.6941,3.6941,3.6941,3.6941,3.6719,3.5831,3.3787,3.1758,2.9954,2.7241,2.5196,2.3837,2.3155,2.2695,2.2464,2.2472,2.2505,2.2773,2.3106,2.3142,2.2491,2.2054,2.1343,2.0387,1.9908,1.9664,1.9664,1.9171,1.8197,1.6813,1.5067,1.2841,1.014,0.7921,0.6637,0.5113,0.4114,0.3843,0.3812,0.3788,0.3776,0.3775,0.3775,0.3773,0.3776,0.3772,0.3772,0.3772,0.3761,0.3733,0.3729,0.3708,0.3679,0.3647,0.3636,0.3624,0.3613,0.3599,0.3591,0.3589,0.3589,0.3592,0.3595,0.3606,0.3622,0.3624,0.3619,0.3613,0.3598,0.3594,0.3591,0.3589,0.3595,0.3589,0.3589,0.3589,0.3589,0.3589,0.3589,0.3589,0.3589,0.3589,0.3585,0.3583,0.3584,0.3589,0.3589,0.3581,0.3576,0.3569,0.3562,0.3557,0.3554,0.3559,0.3573,0.3581,0.3587,0.3589,0.3589,0.3589,0.3589,0.3589,0.3589,3.5364,3.5618,3.5631,3.5792,3.6099,3.638,3.6393,3.6273,3.67,3.6941,3.6941,3.6941,3.6941,3.6941,3.6941,3.6941,3.6719,3.6054,3.4693,3.2892,3.1094,2.8595,2.6548,2.4967,2.3828,2.2925,2.2464,2.2472,2.2513,2.2732,2.3,2.3268,2.2413,2.1986,2.1321,2.0387,1.9908,1.9664,1.9664,1.9414,1.8967,1.7831,1.6317,1.4326,1.1412,0.9175,0.7388,0.5131,0.4132,0.3878,0.3853,0.3833,0.3833,0.3833,0.3829,0.3802,0.3787,0.3772,0.3772,0.3772,0.3767,0.3759,0.3756,0.3726,0.3697,0.3674,0.3659,0.3644,0.3626,0.3613,0.3595,0.3589,0.3589,0.3591,0.36,0.3622,0.3639,0.3648,0.3643,0.3632,0.3617,0.3609,0.3604,0.3602,0.3606,0.3595,0.3592,0.3596,0.3592,0.3594,0.3589,0.3589,0.3589,0.3589,0.3589,0.3587,0.3588,0.3589,0.3589,0.3588,0.3583,0.3576,0.357,0.3569,0.3569,0.3576,0.3585,0.3589,0.3589,0.3589,0.3589,0.3589,0.3589,0.3589,0.3589,3.5297,3.5444,3.5458,3.5565,3.5752,3.6032,3.6046,3.6032,3.6633,3.6941,3.6941,3.6941,3.6941,3.6941,3.6941,3.6941,3.6941,3.6276,3.5151,3.4023,3.2679,2.9728,2.7687,2.5863,2.4288,2.3147,2.2464,2.2464,2.2513,2.2659,2.2911,2.3236,2.2312,2.1932,2.1306,2.0387,1.9908,1.9664,1.9664,1.9414,1.9237,1.8851,1.7597,1.5553,1.2661,1.0426,0.8384,0.5876,0.4151,0.39,0.3874,0.3859,0.3858,0.3857,0.3844,0.3818,0.3803,0.3784,0.3776,0.3772,0.3772,0.3772,0.3771,0.3745,0.3722,0.3699,0.3681,0.3663,0.3643,0.3625,0.3606,0.3589,0.3589,0.3589,0.3614,0.3639,0.3654,0.3669,0.3664,0.3654,0.3644,0.3634,0.3629,0.3625,0.3626,0.3633,0.3637,0.3639,0.3624,0.3604,0.3596,0.3589,0.3589,0.3589,0.3591,0.3592,0.3589,0.3589,0.3589,0.3588,0.3585,0.3584,0.358,0.3583,0.3587,0.3589,0.3589,0.3589,0.3589,0.3589,0.3589,0.3589,0.3589,0.3589,0.3589,3.5204,3.5204,3.5204,3.5231,3.5244,3.5538,3.5658,3.5725,3.6487,3.6861,3.6834,3.6874,3.6874,3.6847,3.6901,3.6941,3.6719,3.6498,3.6054,3.5151,3.3812,3.1094,2.8595,2.6786,2.4967,2.3377,2.2464,2.2464,2.2513,2.2618,2.2822,2.3195,2.1988,2.1324,2.1203,2.0267,1.9556,1.9596,1.961,1.9624,1.9725,1.9615,1.9221,1.7304,1.4399,1.1479,0.9377,0.6863,0.3907,0.3899,0.3888,0.3873,0.3874,0.3859,0.3844,0.3824,0.381,0.3791,0.3776,0.3772,0.3772,0.3772,0.3771,0.3752,0.3731,0.3718,0.37,0.3664,0.364,0.3621,0.36,0.3592,0.3589,0.3602,0.3624,0.3648,0.3667,0.3682,0.369,0.3679,0.3669,0.366,0.3658,0.3654,0.3651,0.3669,0.3671,0.367,0.366,0.363,0.3621,0.3609,0.3603,0.3604,0.36,0.3599,0.3591,0.3589,0.3589,0.3589,0.3588,0.3588,0.3589,0.3589,0.3589,0.3589,0.3589,0.3589,0.3589,0.3589,0.3589,0.3589,0.3589,0.3589,0.3589,3.5204,3.5204,3.5204,3.5204,3.5231,3.5498,3.5631,3.5672,3.6072,3.6286,3.6326,3.65,3.662,3.666,3.6874,3.6941,3.6719,3.6719,3.6719,3.6041,3.4928,3.2219,2.9491,2.7687,2.5425,2.3377,2.2464,2.2472,2.2513,2.257,2.2635,2.2611,2.1734,2.1138,2.1309,2.0119,1.966,1.9777,1.9542,1.959,1.9691,1.9535,1.9097,1.7298,1.4878,1.2917,1.0604,0.7632,0.5413,0.4182,0.3933,0.3929,0.3928,0.3884,0.3859,0.3843,0.381,0.3788,0.3776,0.3772,0.3772,0.3772,0.3768,0.3752,0.3738,0.373,0.3707,0.3666,0.3636,0.3617,0.36,0.3594,0.3592,0.3611,0.3636,0.3659,0.3682,0.3699,0.3714,0.3707,0.3694,0.369,0.3688,0.3685,0.3681,0.3681,0.3679,0.3679,0.3684,0.367,0.3673,0.3659,0.3632,0.3626,0.3618,0.3603,0.3594,0.3589,0.3589,0.3589,0.3589,0.3589,0.3589,0.3589,0.3589,0.3589,0.3589,0.3589,0.3589,0.3589,0.3589,0.3589,0.3589,0.3589,0.3589,3.5204,3.5204,3.5204,3.5204,3.5231,3.5378,3.5431,3.5471,3.5618,3.5685,3.5792,3.6219,3.65,3.6553,3.6807,3.6941,3.6941,3.6941,3.6719,3.6498,3.5374,3.288,3.062,2.8368,2.5653,2.3377,2.2703,2.2489,2.2553,2.261,2.2692,2.2635,2.1969,2.1292,2.1481,2.0787,2.0077,2.0012,1.9991,1.9811,1.9914,1.9766,1.9297,1.7776,1.606,1.4345,1.1845,0.9115,0.6657,0.5181,0.4438,0.3933,0.3922,0.3896,0.3874,0.3851,0.382,0.3786,0.3776,0.3772,0.3772,0.3772,0.3772,0.3757,0.3711,0.37,0.3686,0.3651,0.364,0.3622,0.36,0.3589,0.3589,0.3602,0.3645,0.3682,0.3712,0.3738,0.3746,0.3744,0.3735,0.3734,0.3733,0.3734,0.373,0.373,0.3723,0.3718,0.3718,0.3708,0.3712,0.3704,0.3673,0.3644,0.3629,0.361,0.3591,0.3589,0.3592,0.3589,0.3589,0.3589,0.3589,0.3589,0.3589,0.3589,0.3589,0.3589,0.3589,0.3589,0.3589,0.3589,0.3589,0.3589,0.3589,3.5204,3.5204,3.5204,3.5204,3.5204,3.5204,3.5204,3.5217,3.5217,3.5217,3.5338,3.6046,3.6366,3.654,3.6794,3.6887,3.6941,3.6941,3.6941,3.6498,3.5609,3.288,3.0395,2.8368,2.5653,2.3607,2.2703,2.2578,2.2683,2.2716,2.2822,2.2877,2.2671,2.2164,2.2119,2.1631,2.0824,2.0721,2.053,2.0337,1.9942,1.9773,1.9244,1.8259,1.7041,1.5574,1.3551,1.1073,0.8375,0.6904,0.5674,0.4923,0.4409,0.4386,0.3878,0.3854,0.382,0.3791,0.3778,0.3772,0.3772,0.3772,0.3772,0.3748,0.3701,0.3677,0.3663,0.3643,0.3632,0.3621,0.3599,0.3589,0.3589,0.36,0.3652,0.3704,0.3738,0.3767,0.3768,0.3769,0.3768,0.3767,0.3767,0.3768,0.3769,0.3771,0.3772,0.3772,0.3765,0.375,0.3745,0.3729,0.3703,0.3675,0.3654,0.3622,0.3602,0.3599,0.36,0.3595,0.3589,0.3589,0.3589,0.3589,0.3589,0.3589,0.3589,0.3589,0.3589,0.3589,0.3589,0.3589,0.3589,0.3589,0.3589,3.5204,3.5204,3.5204,3.5204,3.5204,3.5204,3.5204,3.5204,3.5204,3.5204,3.5311,3.5565,3.5912,3.6179,3.6727,3.6927,3.6941,3.6941,3.6941,3.6719,3.5609,3.288,3.0169,2.7914,2.5653,2.3837,2.248,2.2578,2.2748,2.2765,2.2838,2.3073,2.2424,2.1962,2.2094,2.162,2.1153,2.1114,2.075,2.0523,2.0373,1.9935,1.9441,1.8697,1.7959,1.6994,1.5755,1.2802,1.1084,0.9364,0.764,0.64,0.5388,0.5108,0.4594,0.3846,0.3812,0.3788,0.3773,0.3772,0.3772,0.3772,0.3765,0.3745,0.3707,0.3681,0.3656,0.3613,0.3603,0.3603,0.3589,0.3589,0.3591,0.3613,0.3651,0.3707,0.3752,0.3765,0.3771,0.3771,0.3771,0.3769,0.3769,0.3771,0.3771,0.3772,0.3772,0.3772,0.3772,0.3772,0.3772,0.3752,0.3729,0.3723,0.3707,0.3648,0.3621,0.3617,0.3607,0.3596,0.3589,0.3589,0.3589,0.3589,0.3589,0.3589,0.3589,0.3589,0.3589,0.3589,0.3589,0.3589,0.3589,0.3589,0.3589]}]]